GFSSGP_500_spd_003.txt.gz
Wind_Speed
13 12 15 9 11 13 9 10 7 7 6 7 6 7 7 10 12 11 10 11 8 8 11 13 14 18 16 17 17 15 14 14 13 10 9 8 6 6 5 6 7 6 5 5 6 5 4 8 6
11 14 8 10 16 12 8 8 8 7 9 5 7 7 9 12 10 9 7 8 10 11 14 17 18 17 15 15 13 12 10 10 10 10 8 6 4 3 3 5 5 6 7 7 6 6 5 6 6
10 15 11 19 10 3 8 9 9 9 7 6 5 6 5 8 9 9 9 11 11 12 14 16 15 13 12 11 10 9 8 8 8 8 5 4 3 1 2 3 4 5 7 7 5 4 5 5 4
13 16 19 11 4 7 4 6 7 6 6 6 5 5 11 11 7 8 8 11 11 12 12 12 11 10 9 8 9 8 7 6 6 4 3 4 4 2 3 4 6 6 8 7 4 2 4 4 2
16 26 23 7 3 5 6 7 6 5 5 5 5 6 9 7 5 8 9 11 12 12 11 9 7 7 7 7 8 6 6 6 5 4 3 5 5 4 4 6 7 8 7 7 6 5 3 2 2
20 20 20 4 2 5 5 5 7 7 7 7 7 5 8 7 8 9 11 11 12 10 8 6 5 6 7 7 7 6 5 7 8 6 6 6 5 5 3 3 4 7 7 5 7 5 4 3 1
21 12 10 3 2 3 5 6 5 8 9 7 7 7 9 10 8 10 11 11 8 6 6 5 6 6 7 8 8 8 9 9 10 10 10 9 8 6 4 4 3 3 5 6 6 3 2 2 2
22 13 3 5 3 2 6 7 8 9 9 9 7 7 11 13 10 7 9 7 4 4 5 6 6 7 8 10 10 10 10 10 10 11 11 11 10 9 7 7 6 5 3 5 6 5 3 2 1
25 23 3 5 16 6 8 8 8 9 10 11 11 7 7 13 13 9 8 5 4 5 6 6 8 9 10 10 9 9 9 9 10 11 12 12 11 10 9 8 6 5 5 7 8 8 7 7 5
18 22 11 13 8 8 7 8 7 7 8 9 10 10 7 13 14 12 9 7 7 6 6 10 13 11 11 9 8 7 9 10 12 14 14 14 13 13 13 13 13 12 12 12 12 11 11 11 10
7 1 12 7 13 11 7 9 8 6 5 7 7 10 11 11 13 11 8 7 8 8 10 12 12 11 10 8 7 7 8 10 12 14 16 15 14 14 15 14 14 13 13 14 14 14 13 12 11
12 8 2 9 9 9 8 9 8 7 6 8 8 8 13 14 14 13 12 11 11 12 13 12 10 10 9 8 8 7 8 10 11 11 12 13 13 13 13 12 13 13 13 14 13 13 13 12 13
13 13 10 9 10 9 11 9 8 7 6 8 10 10 11 14 13 12 11 12 14 14 12 12 9 7 7 7 8 8 8 8 7 6 8 10 10 11 10 10 11 11 11 11 11 11 10 9 9
12 11 11 11 10 12 12 8 7 6 6 6 8 10 9 12 12 13 13 13 14 13 13 10 8 6 6 6 7 7 7 5 5 3 4 6 8 7 7 7 7 7 7 7 9 9 10 11 11
21 15 12 13 12 14 14 8 7 7 8 6 6 7 8 12 12 14 14 15 15 13 11 10 8 6 6 6 5 5 4 5 4 3 3 3 3 5 4 6 5 5 6 7 8 9 10 10 11
22 17 11 12 16 17 16 5 6 7 8 8 8 7 8 10 11 12 11 12 12 11 10 8 8 5 4 2 1 2 2 3 3 4 3 1 1 2 4 4 5 6 7 8 10 10 12 14 13
23 16 12 19 20 18 16 8 12 9 8 9 8 8 8 9 9 10 11 12 11 9 9 9 7 5 4 4 3 4 4 3 1 1 1 1 1 1 2 4 6 8 10 11 12 14 14 14 14
20 17 15 17 22 22 19 11 19 13 11 11 10 8 9 8 8 8 9 10 10 9 9 8 7 6 7 8 7 8 7 4 3 2 2 4 3 3 3 5 7 9 12 14 14 15 15 15 14
18 17 18 16 23 25 20 18 15 14 13 12 11 10 9 9 9 9 10 10 10 11 11 11 10 9 9 9 8 6 4 5 5 6 6 5 7 9 9 9 12 13 14 16 17 15 15 14 14
24 23 20 15 30 22 20 17 17 18 13 12 14 13 10 8 8 8 9 11 13 13 13 13 12 10 11 10 9 9 8 8 7 8 9 9 9 12 14 16 17 17 18 18 16 17 15 15 15
30 27 23 21 28 18 22 19 22 26 17 15 15 14 13 12 9 9 9 11 12 13 15 15 13 12 12 12 10 10 9 9 10 11 12 12 14 17 21 18 17 19 20 19 17 18 18 17 17
33 29 25 24 33 27 25 21 27 24 24 20 18 16 14 13 12 12 13 13 14 15 14 14 14 14 14 13 13 14 12 13 14 15 17 18 19 22 23 20 21 21 22 21 20 19 20 20 19
35 28 28 27 30 30 24 27 24 24 23 26 21 17 16 18 19 17 15 15 13 14 15 16 15 16 17 16 15 15 15 17 18 20 22 23 25 24 24 24 23 22 22 23 23 23 21 21 20
32 31 30 30 31 35 32 32 29 34 23 29 25 23 23 22 21 21 21 14 13 15 16 18 18 19 20 19 18 18 18 19 22 24 24 23 23 24 25 25 24 24 25 25 26 26 24 21 22
44 37 34 36 37 40 30 37 34 26 29 25 23 24 27 25 24 23 22 19 17 13 15 18 19 19 21 20 20 20 20 21 21 23 22 23 25 27 27 28 29 28 26 26 27 26 26 24 24
51 46 42 40 34 34 32 37 35 32 27 23 24 22 25 32 27 23 18 19 18 17 16 15 16 21 21 22 22 20 21 20 22 21 23 25 25 25 23 28 29 31 35 32 25 28 27 27 28
47 55 43 35 30 32 30 31 31 25 32 33 32 26 26 36 24 23 16 15 11 13 15 15 17 18 20 22 22 20 21 22 20 19 18 19 21 22 23 33 31 32 38 37 42 31 30 31 32
51 43 48 48 44 38 33 31 27 31 33 30 30 26 26 27 25 26 22 18 12 12 10 10 12 18 19 22 20 21 20 19 17 16 19 19 16 27 25 30 31 30 33 31 35 37 33 32 33
47 57 47 45 45 43 38 33 31 26 22 26 26 20 24 26 22 21 16 14 16 18 15 13 16 17 18 19 19 18 17 15 15 13 14 16 19 21 25 34 29 30 34 32 33 38 35 36 40
39 44 54 47 51 47 42 36 27 30 26 27 29 25 19 25 27 22 22 21 18 19 18 21 18 16 18 19 21 20 16 13 12 16 19 19 17 22 22 24 32 31 33 24 21 27 38 46 41

GFSSGP_500_spd_006.txt.gz
Wind_Speed
12 9 12 8 13 7 9 4 2 2 11 2 3 5 10 8 13 13 10 8 10 12 11 19 16 17 17 14 11 11 11 11 10 8 5 3 3 7 9 10 10 10 6 4 3 5 4 5 5
11 9 12 16 18 26 9 7 7 7 4 5 2 5 9 12 9 7 6 10 14 16 19 19 17 16 13 10 11 11 9 9 7 6 3 3 4 7 9 9 10 10 7 6 5 6 5 4 5
10 6 9 24 22 17 4 20 4 2 7 2 3 3 3 7 6 11 11 13 15 16 16 15 14 12 10 9 10 9 7 6 5 3 2 3 4 6 8 9 9 8 8 8 8 6 5 5 5
11 10 18 22 14 12 2 3 4 4 5 3 1 3 9 5 7 8 11 13 13 14 13 12 10 10 9 9 9 8 6 5 4 2 3 3 5 6 8 10 9 8 9 9 8 5 4 4 4
8 13 19 15 4 11 5 2 3 4 4 1 1 2 1 1 4 10 10 13 13 12 10 9 9 9 9 8 7 8 6 5 4 3 3 3 4 5 8 9 8 10 10 9 7 6 4 3 2
7 17 22 4 10 2 4 3 5 2 5 2 3 3 5 3 7 11 12 14 11 9 8 8 8 8 7 6 7 8 8 8 6 5 5 5 5 5 5 5 6 6 7 5 6 6 4 3 2
5 24 20 12 16 8 6 5 4 8 9 4 3 4 7 9 8 11 11 10 8 6 7 6 6 6 5 7 9 10 9 9 9 10 10 9 7 4 4 5 5 4 6 5 5 3 2 2 2
15 18 10 8 2 13 7 5 8 9 5 6 7 5 7 12 11 10 10 6 4 4 6 5 4 5 7 8 10 9 10 11 11 11 11 10 10 8 7 6 7 6 6 7 7 6 6 4 4
12 8 8 1 8 17 8 9 7 4 8 5 11 4 3 11 13 11 8 4 3 4 5 6 6 9 8 8 9 9 10 11 10 11 11 9 13 13 10 8 9 10 10 10 11 11 10 9 6
5 15 17 12 8 17 7 11 6 5 6 9 11 11 8 9 10 10 9 5 6 6 7 8 9 10 8 8 9 10 12 13 13 14 14 16 18 15 15 13 13 14 15 15 12 12 13 13 12
6 12 13 12 14 6 10 15 7 5 6 8 6 8 10 9 11 12 8 7 7 7 9 11 10 9 7 7 9 11 13 14 14 15 16 16 14 12 12 10 2 16 15 15 12 12 14 14 14
12 4 5 8 9 10 13 13 6 5 7 5 7 8 9 9 7 10 10 10 9 11 13 11 9 8 9 8 9 11 11 12 12 12 13 14 10 15 10 8 12 15 11 10 11 10 11 11 12
10 13 4 10 14 11 8 17 12 7 8 6 7 6 6 7 9 10 9 10 12 14 13 12 11 9 8 9 10 10 9 10 10 9 10 10 10 12 11 11 11 11 10 10 10 11 10 10 10
9 13 12 10 12 12 10 19 11 8 9 7 4 5 7 8 10 10 11 14 14 14 13 11 10 9 10 9 9 8 6 6 7 6 6 8 7 8 9 6 5 5 6 7 8 9 9 10 11
18 16 18 19 10 19 16 21 12 10 9 7 4 3 4 9 11 11 14 14 14 13 11 10 9 8 8 8 8 7 3 3 3 2 4 4 4 4 5 3 4 4 7 8 9 9 12 12 12
19 19 17 13 16 16 13 16 8 11 5 6 5 3 6 10 10 13 12 12 12 11 10 9 8 7 5 6 4 4 5 4 2 2 1 1 2 2 2 3 4 5 8 10 11 11 12 12 13
23 19 17 8 20 15 9 22 28 14 7 7 7 5 6 9 10 12 13 13 12 11 9 7 6 4 4 3 2 1 2 2 1 1 1 1 2 2 4 4 6 7 8 11 14 15 16 16 16
20 19 18 17 14 18 15 26 23 17 12 10 9 7 8 10 10 12 12 12 11 10 8 6 5 3 4 4 3 4 5 3 2 3 2 3 1 6 5 8 9 11 14 14 15 15 16 16 17
19 16 15 20 24 19 22 27 28 18 7 13 11 9 8 10 11 11 10 11 11 10 9 7 6 5 5 6 5 4 2 3 4 3 3 4 5 9 9 11 14 16 18 19 19 18 17 17 17
24 24 22 17 23 22 19 25 23 15 15 16 14 13 12 10 10 9 10 10 11 11 10 10 9 8 7 6 5 6 6 5 5 6 6 8 10 12 14 17 20 20 19 21 22 21 19 17 18
28 28 22 19 22 20 18 21 18 23 24 20 17 16 14 13 13 12 10 10 11 11 13 13 11 10 10 9 8 8 7 6 7 9 10 12 14 16 18 21 22 22 22 23 24 24 23 21 19
30 30 26 23 29 30 28 32 26 22 24 18 21 17 16 14 14 13 12 12 12 14 14 14 15 14 14 12 12 11 10 10 10 12 14 16 18 20 21 22 23 23 24 24 24 23 24 25 24
31 26 30 27 27 30 26 31 24 28 32 27 19 18 19 20 17 17 16 16 16 15 16 17 16 15 16 15 15 14 13 14 14 16 17 20 20 20 22 22 22 22 24 24 26 26 25 27 27
33 31 29 31 29 36 32 37 27 30 26 29 37 26 21 21 19 19 20 21 21 21 17 16 17 18 18 18 18 17 18 17 17 18 18 18 19 20 19 19 19 18 20 20 21 22 23 25 26
40 35 36 35 38 39 27 37 30 28 31 36 36 36 16 26 26 22 23 22 20 18 19 17 18 18 20 20 20 21 21 19 19 19 18 20 18 16 12 12 19 22 24 27 28 32 24 21 24
37 40 45 42 38 33 30 38 33 31 36 42 26 13 27 29 29 24 23 21 13 17 17 20 18 19 23 23 23 22 21 21 19 17 18 15 12 11 12 13 17 18 25 28 27 29 28 27 21
35 44 41 38 33 34 30 31 27 32 33 34 22 20 28 23 32 33 22 21 19 16 13 15 18 21 20 22 24 23 22 21 19 17 12 9 8 10 12 17 20 20 18 30 31 30 30 28 23
38 30 41 48 46 44 35 34 31 27 34 40 28 30 29 27 38 38 28 23 19 15 11 9 10 11 15 19 21 23 22 20 17 9 6 9 10 9 12 16 16 23 24 28 33 33 33 28 23
38 42 44 39 49 48 42 39 27 25 32 36 40 33 31 28 35 39 27 28 21 18 14 12 10 16 18 17 20 23 24 19 9 5 4 13 11 11 10 16 20 23 28 28 30 30 26 29 32
38 39 43 52 49 51 47 43 24 24 27 34 39 36 33 33 34 36 24 25 24 18 13 10 11 16 19 18 18 18 18 12 7 5 9 6 9 10 13 17 20 24 31 32 32 38 41 39 35

GFSSGP_500_spd_009.txt.gz
Wind_Speed
9 10 3 5 9 5 7 7 3 2 3 3 7 7 9 9 13 15 10 15 16 13 18 19 20 17 14 10 9 11 10 9 8 7 7 8 8 7 8 10 9 9 9 7 6 5 6 6 8
11 12 17 12 12 7 7 11 11 2 4 4 7 4 6 13 13 12 11 15 19 21 19 18 16 14 11 8 8 10 10 8 7 6 5 6 6 5 9 9 9 11 11 9 7 7 6 6 6
11 19 8 5 3 11 10 4 3 5 6 8 8 6 5 7 11 16 14 16 17 17 16 14 13 12 10 9 10 10 9 7 5 4 3 5 5 8 9 10 10 11 9 8 8 9 7 5 5
9 12 11 25 23 19 16 4 5 11 7 6 7 7 7 7 10 14 14 14 14 14 12 12 12 11 10 10 11 9 8 6 4 3 3 5 7 8 10 11 12 11 11 11 10 8 7 5 3
17 18 25 19 21 20 16 8 14 7 4 4 3 3 5 6 12 14 15 14 13 11 11 11 10 11 10 11 10 9 8 6 5 3 4 6 7 8 9 11 12 11 10 12 10 8 6 4 2
6 3 13 19 10 22 12 9 3 7 4 2 2 5 4 8 15 15 15 13 10 10 10 10 9 10 11 12 11 10 9 9 8 8 8 8 8 9 9 9 8 9 10 9 8 7 6 4 1
4 11 12 13 15 10 12 7 6 6 3 5 0 5 3 8 14 17 15 11 9 8 9 9 9 11 12 13 12 12 12 13 12 11 11 10 8 8 8 8 8 9 9 10 8 7 5 4 4
14 8 13 12 15 9 15 19 4 14 2 4 4 6 6 8 12 14 12 7 6 7 8 9 10 11 12 12 12 13 13 13 12 12 11 10 10 9 10 9 10 12 11 13 13 11 9 7 5
12 2 11 13 8 8 16 16 17 13 4 10 9 10 6 9 10 12 9 4 2 7 8 11 12 12 12 12 13 13 13 12 12 13 11 10 12 12 12 14 15 15 14 15 15 13 13 12 10
15 6 10 2 2 17 12 14 12 14 10 7 5 3 7 10 7 9 7 2 3 7 10 12 12 11 12 13 14 15 13 14 14 13 13 14 18 14 12 16 17 17 15 14 15 16 15 16 13
8 7 4 5 5 13 18 18 8 12 14 7 5 2 6 8 9 8 7 4 5 8 11 13 12 10 12 14 16 15 15 14 14 14 12 17 11 12 18 11 13 9 12 12 13 14 14 15 13
20 12 8 10 13 14 18 16 11 10 12 10 8 3 8 9 7 8 9 10 8 10 13 11 11 10 11 14 15 13 12 12 11 14 13 14 8 10 11 13 14 13 10 10 12 13 13 12 11
20 12 1 9 7 16 22 16 21 14 13 9 8 9 2 10 8 8 7 7 9 12 12 12 12 11 13 13 14 12 10 10 9 9 9 13 11 11 9 10 13 11 8 10 12 12 12 11 10
21 12 7 3 12 17 15 19 17 18 16 9 7 7 4 9 8 7 7 9 10 11 12 12 11 11 12 12 11 10 8 7 7 7 6 8 9 9 10 10 9 7 9 12 12 11 12 11 11
19 19 17 11 16 17 16 26 10 18 16 6 5 6 5 3 8 7 8 11 12 11 11 13 10 10 11 11 9 7 6 5 6 6 5 5 6 7 7 7 8 10 12 13 13 14 13 13 13
24 25 24 18 12 13 14 16 19 17 15 10 3 5 3 4 7 9 11 11 13 13 11 10 11 10 10 8 7 7 7 5 4 3 2 2 3 4 6 7 7 9 12 13 14 16 16 16 15
28 23 22 18 17 21 10 16 14 21 21 18 6 5 1 5 7 10 11 11 13 12 12 10 7 7 6 6 6 5 4 3 3 2 1 4 4 4 6 7 9 10 11 13 15 16 17 17 17
22 19 20 15 10 13 20 12 14 17 23 15 11 4 3 6 9 10 8 9 10 10 10 9 7 4 5 4 3 2 1 2 3 1 0 2 4 5 7 9 11 13 16 17 18 18 18 18 18
19 22 18 9 15 21 23 22 15 19 22 23 14 5 4 6 8 9 8 9 8 8 7 6 4 3 2 2 1 1 2 2 4 4 3 4 5 7 10 13 15 18 18 18 18 19 20 21 18
21 22 22 20 22 27 26 22 13 12 15 17 16 5 6 6 7 8 9 9 9 8 8 7 5 4 4 4 3 2 3 3 3 2 2 5 8 11 13 16 19 20 19 20 19 18 19 19 19
27 22 24 25 19 22 24 21 23 15 25 20 13 5 3 8 9 10 11 11 10 9 10 8 7 8 7 7 6 5 6 6 4 3 5 8 11 14 16 17 17 16 16 16 17 16 16 17 18
27 24 27 28 23 23 23 21 20 27 29 21 4 6 7 5 10 10 9 10 10 11 10 10 11 11 12 10 11 9 9 10 7 4 6 8 12 14 15 16 15 14 14 15 17 20 21 19 19
23 28 34 33 28 25 23 30 23 25 29 18 19 10 11 9 11 9 12 13 13 12 14 14 13 12 15 14 14 12 12 11 10 9 7 9 10 11 12 13 14 14 15 16 19 19 19 20 21
27 31 37 38 31 35 31 29 30 28 26 28 21 10 19 15 13 12 10 13 15 17 17 16 16 16 16 17 16 16 16 14 13 11 10 9 12 10 10 12 11 14 14 17 21 21 24 26 20
31 38 39 47 46 46 35 34 33 14 23 30 28 23 25 22 15 10 14 17 19 16 16 15 16 18 19 19 18 19 18 15 15 13 10 9 8 8 7 11 11 9 11 20 25 25 29 33 22
32 38 47 47 49 46 41 41 32 17 15 23 31 35 29 34 26 11 12 13 18 18 16 16 18 20 19 19 22 21 20 15 15 12 10 7 8 5 8 9 10 10 14 18 23 26 30 32 32
30 38 31 43 45 43 44 40 26 25 23 27 31 23 32 26 32 13 10 16 16 19 18 17 17 18 20 20 22 21 22 18 17 13 8 5 4 5 8 6 8 12 15 17 21 25 32 30 30
37 30 35 39 46 50 42 45 38 23 24 32 32 28 32 31 28 26 10 18 28 21 20 19 14 11 12 16 18 18 18 17 14 10 6 5 6 11 5 6 11 11 17 20 20 26 30 29 27
36 40 43 37 41 43 45 45 31 26 19 29 30 32 36 41 30 30 19 26 24 22 23 23 15 12 12 13 11 12 15 12 9 8 6 5 6 4 4 6 7 11 16 24 26 29 30 33 32
39 40 40 47 41 46 45 41 32 28 26 30 32 34 33 36 30 27 22 30 25 23 20 22 14 13 13 14 10 9 7 5 9 8 6 5 6 5 6 12 14 15 16 23 34 38 37 33 31

GFSSGP_500_spd_012.txt.gz
Wind_Speed
11 8 6 7 6 12 10 7 5 4 4 10 10 10 11 12 13 13 13 15 14 16 17 17 15 13 12 11 10 9 9 7 9 9 8 9 10 10 8 8 10 8 7 7 6 6 6 9 10
12 9 10 12 12 9 11 11 4 6 7 8 12 10 14 13 12 15 14 16 16 18 18 16 13 11 11 11 10 9 8 8 8 7 7 8 8 7 7 8 9 8 8 8 6 5 6 7 7
15 7 10 22 14 18 9 6 8 9 12 9 11 7 12 14 13 19 17 16 16 16 14 13 12 11 10 10 8 8 8 7 5 5 5 7 7 9 10 9 8 8 8 7 7 6 7 7 7
7 21 18 31 21 13 12 15 13 11 13 10 10 13 8 7 13 17 14 15 16 14 12 11 11 12 10 9 8 8 7 5 5 5 5 7 10 11 11 10 10 10 9 7 7 7 6 5 6
12 11 16 13 23 14 12 19 13 15 11 8 6 11 7 6 10 17 16 14 13 13 11 11 11 11 11 9 9 7 6 7 5 5 7 9 10 9 11 11 12 11 9 9 8 7 6 4 5
7 12 17 14 7 12 12 15 13 8 4 5 7 11 6 10 13 16 17 13 10 11 11 11 11 12 11 10 10 9 9 9 10 9 10 10 9 11 13 13 12 11 9 9 8 9 9 8 7
7 5 13 15 9 8 17 14 15 13 12 3 5 10 8 9 13 16 14 11 9 8 11 12 12 13 12 12 12 12 12 13 13 13 12 11 12 15 15 13 12 11 11 11 13 11 10 9 8
6 11 6 9 7 12 18 15 13 9 5 6 2 6 13 8 10 13 10 6 5 8 10 13 13 13 12 13 14 14 14 13 13 13 12 13 13 15 15 13 15 15 17 17 17 16 15 12 11
6 7 4 8 8 13 16 18 11 6 4 7 3 5 7 13 11 11 8 3 2 7 11 14 13 13 13 13 14 14 14 14 13 15 18 16 18 18 18 18 17 17 16 17 18 18 17 15 16
16 12 11 12 12 12 12 18 12 11 12 5 5 3 9 11 11 11 7 2 3 8 13 14 14 14 14 14 14 14 15 15 17 16 15 17 19 17 17 16 17 17 15 15 17 16 16 16 14
16 11 9 12 14 16 12 13 17 15 13 10 7 3 10 14 11 7 7 5 6 11 14 14 14 13 15 15 14 17 17 15 16 17 15 14 16 14 11 15 12 14 13 13 13 13 14 13 13
15 15 15 10 9 18 21 18 14 12 7 7 7 3 7 11 15 12 10 8 9 13 14 13 14 13 16 14 14 16 15 15 15 15 16 13 12 16 11 13 13 13 13 13 13 14 13 11 10
18 16 17 5 3 10 15 23 18 9 12 9 9 5 4 10 11 9 8 10 11 15 14 13 13 14 15 13 12 13 13 13 14 13 13 15 13 11 11 10 11 12 12 11 12 13 12 11 12
19 20 16 10 3 10 11 18 23 16 14 11 9 8 4 6 12 11 11 11 15 14 15 14 11 13 15 13 10 9 9 11 11 12 10 11 9 9 8 10 10 10 10 11 11 10 12 14 14
29 23 16 14 14 10 12 18 18 10 11 13 11 9 6 5 9 10 12 15 14 16 13 13 10 11 11 11 8 8 8 7 9 8 7 6 7 9 9 8 7 8 8 10 12 12 12 13 13
27 26 17 14 11 8 15 19 18 13 6 17 14 11 7 4 8 10 13 13 15 14 15 13 11 12 11 10 9 9 9 8 6 7 4 5 5 6 6 7 9 9 12 13 14 13 14 14 13
30 27 23 19 17 17 19 20 17 12 13 13 12 15 7 2 5 11 15 13 15 14 13 12 13 12 10 10 8 7 5 6 4 4 3 3 4 5 7 8 9 11 12 14 15 16 16 14 14
25 20 19 20 21 17 17 13 19 13 14 11 7 14 9 3 6 11 12 14 14 13 12 11 8 8 8 7 6 4 4 4 4 1 3 4 5 7 8 9 11 15 16 14 14 14 15 15 14
23 21 17 21 24 21 17 17 20 18 9 10 10 8 9 2 7 8 10 11 13 12 9 7 6 5 4 5 4 3 5 5 3 2 1 4 5 7 8 12 15 16 14 13 14 15 15 13 14
22 23 22 26 22 19 18 21 23 19 11 9 5 6 8 5 3 5 9 11 12 10 8 7 5 4 4 3 3 3 5 5 5 3 2 2 4 7 10 12 13 14 15 14 16 17 18 18 16
26 24 24 27 22 22 21 29 31 20 16 10 3 6 8 6 5 4 5 8 8 9 9 8 7 5 4 4 5 4 4 4 4 3 2 2 4 7 9 10 13 15 17 17 17 20 21 19 18
27 20 27 30 27 28 27 30 29 26 16 16 3 1 7 10 9 3 3 4 4 5 5 6 8 9 8 6 6 6 5 6 6 5 4 5 7 7 8 11 12 14 14 14 16 17 19 20 20
20 29 29 33 29 32 29 32 20 25 20 11 5 7 10 9 11 6 2 2 1 4 6 7 7 6 8 9 10 8 10 9 8 9 9 10 9 12 11 11 10 10 9 9 11 13 16 19 19
22 34 35 38 37 46 37 33 24 29 17 10 11 12 10 9 10 2 4 6 3 5 8 9 11 11 10 9 12 13 13 11 11 11 12 12 12 15 11 7 6 7 6 13 14 15 16 23 21
28 38 40 44 51 50 40 40 25 26 22 14 16 10 12 17 15 11 10 10 11 9 10 12 15 16 16 13 12 14 16 14 15 14 13 14 16 12 7 3 3 4 5 8 10 13 16 20 21
32 36 44 48 49 45 44 48 30 22 19 14 10 12 16 18 26 18 17 15 11 10 10 14 16 17 18 17 14 14 17 18 17 14 14 16 16 6 1 3 3 6 7 8 12 15 18 20 23
30 42 35 43 44 51 42 50 35 28 24 20 14 20 20 18 13 10 15 17 12 6 8 11 17 17 15 16 16 16 16 18 18 16 17 18 12 4 3 4 6 7 9 9 9 16 20 22 22
38 31 39 42 45 49 46 50 39 32 27 21 18 22 21 22 21 15 15 14 14 5 6 11 17 16 14 11 12 14 19 20 17 18 19 18 9 5 7 9 9 10 8 8 13 22 23 26 25
39 41 41 42 41 40 35 34 38 32 31 24 26 22 19 25 19 18 17 17 21 19 10 10 16 16 15 11 11 11 15 16 16 20 20 16 9 8 8 9 9 11 14 14 16 20 25 30 31
47 44 42 44 40 38 34 26 14 35 36 29 27 25 17 20 22 23 19 20 24 14 14 12 17 17 17 16 13 10 12 15 19 22 20 16 11 7 7 7 7 8 11 15 17 21 16 27 31

GFSSGP_500_spd_015.txt.gz
Wind_Speed
4 6 2 10 12 9 11 5 8 11 10 10 10 12 14 12 12 11 14 15 9 15 14 13 11 10 9 10 10 8 9 8 6 7 8 9 9 10 9 8 8 8 7 7 7 8 7 6 7
8 6 9 5 14 12 13 10 8 10 10 13 10 12 12 12 13 12 12 8 13 15 15 12 10 10 10 10 9 7 7 8 7 8 9 9 9 8 8 8 7 7 6 6 6 6 7 6 5
7 24 12 12 8 15 13 14 11 14 11 9 12 10 9 14 14 15 14 12 12 11 12 11 9 9 11 9 8 6 6 7 6 8 9 10 10 9 9 8 8 7 8 8 7 6 6 5 2
13 13 13 15 18 16 21 14 10 10 11 7 13 14 9 11 16 17 15 14 11 10 10 8 9 9 9 8 7 5 6 5 8 10 9 10 11 11 9 10 10 12 11 9 8 10 7 4 2
12 9 14 15 19 24 15 15 13 8 6 9 8 11 11 9 10 16 15 13 11 10 9 8 9 9 9 8 7 7 7 8 11 10 11 11 12 11 10 11 13 13 11 11 10 10 7 5 4
10 8 15 13 21 14 12 12 9 9 7 6 9 9 8 10 9 14 14 11 8 10 10 8 9 8 9 8 9 9 11 13 13 13 14 12 12 11 10 11 13 15 14 13 10 10 8 7 9
12 9 11 11 15 12 11 10 6 11 10 5 2 11 11 8 8 14 12 9 8 7 9 10 9 10 11 11 13 13 14 15 16 15 15 15 14 12 15 17 18 21 19 18 15 13 12 12 12
9 10 4 9 13 19 14 12 9 11 10 5 2 5 11 11 10 12 9 6 6 7 10 11 11 11 13 14 14 14 15 15 15 15 15 15 15 17 18 20 21 21 20 20 16 17 17 16 15
8 4 2 6 10 15 19 20 17 12 7 2 7 7 8 14 11 12 7 4 3 7 10 11 11 12 13 14 14 15 16 19 18 19 19 18 19 19 20 20 20 19 19 19 18 17 16 16 17
7 4 5 5 13 18 17 22 23 16 6 3 2 7 8 10 12 13 8 1 2 8 11 10 12 14 15 15 14 14 16 17 16 19 17 20 18 18 17 18 17 16 15 15 15 13 14 13 14
12 7 10 3 10 18 14 18 22 18 13 10 3 6 9 10 10 11 7 3 4 11 13 13 13 16 15 15 15 17 17 17 18 17 19 17 15 16 14 14 15 13 12 12 11 11 11 11 12
14 12 13 8 2 10 13 17 19 14 8 8 5 0 9 14 15 14 11 9 10 13 14 13 14 17 14 17 16 17 18 16 17 17 16 17 15 14 13 13 12 11 11 11 11 11 11 12 11
18 24 17 11 8 4 11 13 14 10 12 13 8 6 3 14 18 16 13 10 11 16 15 13 16 18 14 16 16 15 16 16 16 15 16 14 13 12 12 11 10 10 10 9 9 9 10 12 11
24 27 21 15 7 5 4 12 11 12 13 14 12 11 3 5 11 9 10 11 14 16 15 14 16 16 13 14 15 14 13 12 12 12 12 12 13 12 9 8 8 8 10 10 9 10 10 8 8
22 21 18 10 11 6 3 14 15 13 9 14 15 10 9 6 8 11 11 13 17 16 15 13 14 14 11 12 12 12 13 11 9 9 10 10 10 9 7 8 9 9 9 9 9 9 9 9 10
26 24 17 15 11 7 4 11 16 16 11 10 12 7 9 4 10 11 12 13 16 16 15 12 13 14 12 10 10 11 12 12 9 7 8 7 7 5 5 6 7 9 11 12 11 12 11 10 9
31 24 20 17 13 15 8 8 10 11 12 11 3 8 6 2 7 11 14 14 16 15 14 11 12 14 12 10 10 10 9 9 8 6 5 4 5 4 4 4 5 7 10 9 10 10 11 13 12
22 22 23 16 20 20 14 6 10 9 10 8 3 5 4 1 8 13 14 15 13 12 12 11 10 11 11 10 8 8 7 6 5 5 3 5 4 3 2 4 8 11 12 12 13 14 14 14 15
20 24 26 23 24 22 17 12 5 4 6 3 1 4 4 1 7 11 11 14 14 11 10 10 10 9 9 9 8 8 10 11 6 4 4 4 4 1 5 8 10 12 15 17 17 16 16 15 15
27 24 26 23 30 27 24 20 9 8 7 8 3 3 2 4 5 10 10 10 12 14 12 10 9 8 8 7 6 7 8 6 5 6 4 1 1 3 6 9 12 14 17 16 16 16 17 18 17
25 23 27 22 33 33 30 23 16 11 14 9 8 4 3 7 8 8 8 11 12 11 10 10 10 8 7 6 6 5 6 6 5 4 4 3 4 6 8 11 12 15 15 13 14 17 19 21 22
28 20 30 30 37 37 35 29 22 13 10 10 10 10 4 3 11 11 11 9 12 12 11 10 10 8 5 6 6 6 6 7 6 7 6 6 6 9 12 12 13 14 11 11 12 15 15 20 18
20 28 31 36 41 40 40 38 28 19 15 11 13 16 9 2 2 9 15 16 14 11 11 10 8 7 5 5 6 6 9 9 8 8 9 9 8 13 14 12 10 9 10 9 12 10 12 18 20
23 34 35 41 44 51 40 39 30 25 14 14 20 12 11 10 6 3 6 10 12 10 9 8 9 8 7 8 8 9 11 11 12 12 11 12 13 15 14 10 8 8 9 9 11 11 13 14 17
30 41 44 48 54 41 40 42 22 27 17 19 18 11 11 10 7 6 5 14 13 13 10 8 8 7 8 10 10 11 13 12 14 15 15 15 17 15 12 8 9 8 7 8 7 9 12 14 16
28 36 46 43 45 40 40 45 24 26 21 25 18 16 17 13 5 6 7 12 19 19 15 11 11 10 8 10 14 15 16 14 16 17 18 18 17 13 12 11 8 8 9 11 10 12 14 15 16
33 40 32 45 44 47 42 38 31 33 30 28 23 23 19 17 11 4 5 10 22 19 13 9 7 7 7 8 14 18 17 16 16 19 19 19 17 14 13 12 10 10 13 15 11 10 12 18 19
40 30 38 45 47 46 37 35 30 32 32 27 30 23 15 15 12 10 8 5 16 11 10 8 12 8 9 9 11 15 19 20 19 20 21 21 19 16 16 14 11 12 13 13 15 16 16 16 22
40 43 43 43 45 41 34 29 30 27 32 30 28 24 22 19 15 11 10 10 12 16 15 13 13 11 8 10 14 13 16 15 17 20 25 23 18 18 19 16 13 13 13 13 12 16 17 17 20
47 45 47 49 40 36 36 34 22 23 29 31 32 32 29 25 22 19 16 17 17 16 13 16 14 12 10 14 16 17 15 15 16 21 27 23 19 22 21 17 14 14 12 12 15 16 13 16 17

GFSSGP_500_spd_018.txt.gz
Wind_Speed
1 1 4 4 5 7 12 13 11 11 11 13 12 14 12 12 11 11 13 14 11 10 10 10 9 8 7 7 7 10 10 9 10 11 12 12 13 12 11 10 10 9 8 6 4 7 9 9 9
7 17 4 1 6 10 11 12 10 9 11 13 15 12 9 11 12 13 12 6 12 10 11 9 8 7 7 6 9 9 9 11 12 13 13 13 13 12 12 12 12 11 9 7 6 7 7 9 7
10 5 5 7 9 11 11 12 12 11 8 11 12 9 9 10 11 12 9 13 10 10 9 7 5 6 7 7 8 8 9 12 13 13 15 15 13 12 13 15 13 11 10 10 10 9 8 7 6
5 4 9 20 14 16 12 13 12 10 7 6 10 11 11 8 12 12 13 12 10 8 6 4 5 6 7 8 8 9 9 12 13 15 15 14 13 14 13 12 12 14 13 12 11 10 11 7 7
8 9 18 23 20 17 16 11 10 10 10 11 7 7 11 9 8 13 14 12 10 7 5 5 5 6 7 10 9 9 9 13 15 17 14 13 14 14 12 11 12 13 15 13 12 12 12 10 9
12 8 24 16 12 10 7 7 7 9 11 8 8 9 10 8 6 11 12 9 6 5 6 6 6 8 9 9 9 11 13 15 17 16 13 13 14 13 12 14 16 16 17 16 15 14 13 11 11
13 7 23 15 12 10 7 6 8 11 11 9 5 7 12 10 6 9 9 6 5 5 6 7 8 10 10 10 12 15 17 19 17 17 15 15 14 15 18 19 20 21 21 20 20 17 17 17 17
14 12 12 14 14 11 6 8 10 10 7 10 8 2 5 14 10 8 5 3 4 6 6 8 10 11 12 13 15 17 18 18 18 17 16 17 18 20 20 19 20 21 22 21 20 19 20 20 19
13 11 12 12 12 13 11 11 12 10 10 7 7 8 8 10 12 8 5 4 4 5 7 9 10 12 12 14 17 18 18 19 19 20 21 19 18 19 18 19 18 18 19 18 17 17 15 15 16
8 10 12 13 13 13 13 15 13 11 11 7 2 5 9 11 12 11 5 2 3 6 10 10 11 13 13 15 17 17 20 20 20 22 20 19 18 17 16 15 15 14 15 15 14 13 14 12 13
11 9 6 10 9 12 17 17 15 15 14 11 4 2 9 12 10 10 7 1 1 6 10 12 13 14 14 16 18 18 17 19 20 19 16 18 16 15 14 14 13 13 13 14 13 12 13 13 12
15 13 10 12 13 13 10 14 17 16 14 14 11 2 8 14 13 12 11 7 4 9 11 12 16 14 15 17 19 19 19 19 20 19 20 16 15 14 12 13 13 13 11 11 11 11 12 10 11
16 16 15 12 11 14 11 10 17 16 17 19 14 10 5 12 15 13 14 10 6 11 13 13 18 15 16 17 19 18 18 18 18 16 15 14 14 13 13 12 12 10 9 10 10 11 11 10 9
22 24 22 15 11 13 11 12 15 16 14 17 15 11 6 7 11 13 9 10 11 13 13 15 18 14 16 15 17 16 16 16 15 14 13 13 12 12 11 10 8 7 7 7 9 9 9 10 9
26 22 25 19 10 6 10 16 15 14 14 12 13 11 6 3 7 10 12 14 14 16 14 17 18 14 15 15 14 14 13 13 13 13 11 11 10 9 9 8 6 7 8 8 8 7 7 7 6
27 25 25 25 11 8 13 16 16 15 14 11 9 9 5 5 7 9 12 14 17 15 16 16 17 15 15 15 13 12 11 10 10 9 8 7 7 6 7 4 5 6 9 10 8 8 8 7 7
29 24 23 19 13 17 9 17 18 14 15 11 6 7 4 5 8 10 12 16 18 18 17 17 17 16 14 12 13 13 11 9 10 8 7 7 6 4 3 2 5 9 11 12 11 11 11 9 8
19 21 23 21 19 17 8 15 18 16 14 11 7 4 3 4 7 13 16 17 18 19 17 14 17 17 14 12 12 11 13 11 9 8 7 7 4 2 1 4 7 10 13 14 14 12 10 11 10
19 25 25 24 26 19 13 18 17 15 14 11 5 2 2 3 8 11 14 17 17 15 14 13 15 15 13 13 12 10 11 11 8 7 7 5 2 1 2 5 8 12 14 15 16 16 17 17 14
24 21 24 27 26 24 18 21 17 17 14 14 9 4 2 6 10 13 13 15 14 16 15 14 13 15 13 11 10 10 10 8 8 7 6 4 2 4 7 9 12 13 15 14 15 15 18 20 19
23 20 25 29 29 28 24 23 21 19 15 14 19 10 8 9 10 10 12 15 16 13 10 9 10 9 10 10 10 9 10 8 8 7 6 4 3 5 8 10 12 13 11 12 12 18 21 22 22
24 20 26 34 36 36 34 28 29 20 16 16 18 16 12 11 12 11 9 11 15 15 14 11 9 8 8 10 12 11 9 9 9 9 8 6 5 7 10 12 12 11 9 11 12 17 17 20 21
18 27 26 33 40 40 41 33 31 27 20 25 21 22 17 11 10 14 15 15 14 11 12 14 14 12 11 12 13 13 13 11 11 11 9 8 9 10 11 11 11 11 9 10 12 16 13 14 18
24 32 35 39 45 47 33 37 28 26 20 22 24 26 24 21 16 13 13 14 14 16 14 13 13 15 14 15 15 16 15 13 12 12 11 10 11 11 12 12 12 11 7 8 11 12 12 12 13
30 37 43 45 47 32 34 39 19 24 24 20 25 21 17 18 20 16 10 5 2 7 10 12 10 10 11 13 14 16 16 14 14 13 13 14 13 11 11 14 15 12 7 7 9 12 15 14 13
27 37 40 39 37 31 38 29 11 20 24 25 29 26 25 23 18 18 14 7 7 10 10 14 11 11 12 14 17 19 18 17 17 15 15 17 16 11 11 15 17 15 9 8 12 12 13 13 13
34 35 32 41 40 39 38 23 25 22 26 28 32 28 29 24 21 16 15 9 9 10 8 10 12 9 12 12 15 18 20 19 18 19 18 18 18 14 12 17 18 17 10 10 13 13 17 16 11
39 31 38 44 44 38 35 26 24 17 25 30 30 28 29 28 27 24 20 12 9 13 13 13 10 9 7 11 11 13 17 20 20 20 20 20 20 16 15 17 20 20 11 11 13 14 15 16 16
41 42 44 44 43 41 36 23 21 18 19 30 30 29 31 32 30 28 25 20 14 19 21 18 15 12 11 12 11 11 13 16 19 21 22 24 23 18 18 20 21 20 13 13 13 13 15 14 13
46 46 46 47 39 38 34 24 18 17 21 28 32 33 33 33 31 29 27 26 25 21 22 19 18 17 13 15 16 14 14 14 15 18 20 27 26 21 22 24 23 20 14 14 13 13 16 16 15

GFSSGP_500_spd_021.txt.gz
Wind_Speed
4 3 2 5 13 16 14 17 14 13 13 12 14 11 9 10 8 13 16 15 15 9 10 9 8 7 7 6 7 9 11 12 13 13 14 14 14 14 13 13 11 12 11 10 11 9 9 9 9
4 5 5 5 11 13 10 11 13 13 13 13 13 10 8 7 9 13 11 11 9 9 9 8 6 6 6 5 7 10 12 13 14 16 16 16 15 13 13 14 13 13 11 11 10 8 8 8 7
6 8 11 10 11 11 11 13 14 15 15 15 12 7 9 7 9 10 9 14 10 8 7 5 5 5 6 6 8 11 12 14 16 17 17 16 14 14 14 15 15 14 13 12 10 9 7 5 3
8 5 8 12 12 11 11 14 13 13 14 11 8 7 6 5 7 9 12 13 11 7 5 5 5 6 6 7 10 11 13 15 17 18 17 15 15 16 16 16 15 13 14 13 10 9 9 6 5
13 12 17 17 15 11 11 10 10 8 10 13 12 7 7 6 4 9 12 10 9 7 5 6 6 7 7 8 10 11 14 15 16 18 17 15 14 15 16 16 14 13 14 15 13 12 10 10 8
17 13 17 15 12 10 10 7 8 9 12 11 9 11 10 7 6 8 9 7 5 5 5 7 7 7 8 10 11 14 16 16 16 18 16 14 15 17 18 18 16 18 17 16 15 13 13 13 12
19 16 14 13 9 10 10 7 8 8 9 9 7 9 11 9 7 8 7 4 4 4 4 7 8 9 11 12 14 16 18 17 17 17 16 16 20 20 20 20 21 21 20 21 21 19 18 16 15
12 10 12 9 9 10 12 13 12 7 9 10 10 6 5 11 11 8 5 3 3 6 6 7 8 11 13 14 15 17 17 19 18 17 17 19 20 21 23 22 23 22 21 21 20 19 16 14 14
14 11 9 5 4 6 9 12 11 8 9 10 8 12 10 10 12 10 6 4 4 7 8 8 9 12 14 15 16 17 18 18 19 19 20 20 19 20 20 20 20 19 18 17 16 14 14 13 12
14 12 11 8 5 7 8 11 14 11 10 9 8 8 11 10 10 9 6 4 4 6 9 9 10 12 15 17 18 18 19 21 21 20 20 19 17 16 17 16 17 17 16 15 13 12 11 11 10
14 18 11 11 7 4 9 12 16 14 11 7 7 11 12 13 9 8 5 2 4 6 9 11 11 12 14 16 19 19 19 22 20 18 16 16 14 14 14 14 14 15 13 13 12 10 9 9 10
17 19 14 11 9 8 8 10 15 17 15 11 8 9 15 15 12 11 9 5 1 8 9 12 14 14 15 17 17 19 20 20 16 17 16 15 13 13 13 13 13 12 12 10 9 8 6 5 6
20 20 19 15 13 11 7 7 11 16 16 13 11 8 11 16 13 11 10 8 5 11 11 14 14 16 16 17 18 17 19 19 18 19 16 14 13 13 12 12 11 10 9 8 6 6 6 5 4
26 22 21 24 12 13 10 7 7 9 13 13 11 9 5 14 17 15 13 13 10 13 12 17 15 18 17 18 18 18 18 18 16 15 15 14 13 11 10 9 9 6 5 5 4 5 5 5 4
28 23 19 22 21 14 11 12 9 6 7 10 10 9 4 10 14 17 15 14 16 17 14 18 17 18 18 18 17 16 16 16 14 14 14 13 11 9 8 7 7 6 7 7 7 7 8 7 6
29 26 19 20 16 16 18 19 14 10 7 8 9 8 6 8 12 13 14 15 17 17 15 19 18 20 18 18 18 16 14 14 13 12 11 10 8 5 5 5 5 7 10 11 10 9 7 7 6
28 21 21 26 20 18 18 20 17 14 9 8 8 7 7 8 11 13 15 17 19 18 15 20 18 20 19 17 16 15 13 13 11 10 9 7 6 3 2 4 7 10 11 12 12 11 9 8 7
18 22 23 28 24 22 18 20 22 19 17 14 10 8 7 7 10 12 18 20 19 19 18 20 18 17 17 15 14 13 12 11 10 9 8 6 4 3 2 5 8 10 12 13 13 13 11 11 10
17 24 27 30 33 28 20 23 24 21 19 15 13 10 8 9 10 13 17 19 19 20 18 18 16 15 13 15 15 14 13 11 10 9 9 7 4 1 3 6 9 10 13 13 13 14 16 17 15
23 23 28 33 33 31 31 26 27 19 17 15 17 15 9 12 12 15 18 18 18 20 20 19 18 17 15 13 12 13 13 12 11 10 8 4 1 4 6 8 10 10 11 12 11 18 21 21 17
25 22 28 32 35 30 27 30 31 23 23 19 12 18 19 16 15 16 19 22 21 20 18 19 19 17 15 14 11 11 12 13 12 10 8 5 2 4 7 9 12 11 10 12 12 18 19 21 19
24 20 27 33 35 36 30 32 36 31 28 23 13 16 20 19 16 16 18 20 21 21 22 19 16 15 13 12 13 12 11 11 11 11 9 6 4 3 4 7 11 11 11 12 11 15 16 17 16
19 26 26 31 36 38 34 32 37 36 31 21 16 22 19 20 20 19 20 20 20 19 17 18 19 17 15 14 15 13 11 12 12 13 13 10 7 6 5 8 11 11 10 10 10 12 12 13 12
25 32 33 35 38 42 31 33 36 37 25 22 21 24 22 20 20 20 23 24 22 21 20 18 16 17 17 18 17 16 17 15 14 15 15 12 11 9 8 8 10 12 11 9 8 10 13 12 10
29 36 38 39 40 31 31 40 17 32 30 23 25 24 27 24 24 22 16 14 13 14 16 17 17 15 14 14 14 16 17 18 18 18 18 17 16 15 10 9 10 11 11 9 7 10 12 13 12
30 33 34 35 30 39 34 14 10 28 32 28 29 26 28 30 28 25 24 22 18 15 14 11 11 13 14 15 16 17 17 18 19 20 21 21 20 18 13 12 11 12 11 10 6 8 11 13 9
34 32 27 38 37 36 27 16 11 18 31 32 29 30 31 28 26 26 25 23 22 20 15 12 14 16 15 16 20 21 21 21 20 22 23 22 22 20 17 15 13 12 11 11 7 7 10 12 12
39 33 37 38 38 35 25 20 11 14 20 27 31 30 32 27 27 25 24 22 19 16 17 16 17 15 17 15 16 18 18 21 23 22 22 23 24 22 19 18 16 14 13 11 9 8 10 13 13
43 42 40 39 39 34 26 17 12 13 19 27 35 32 32 30 28 28 26 23 22 19 21 18 18 18 15 14 15 15 14 15 17 20 24 25 27 25 21 20 20 17 15 12 10 9 10 12 15
45 44 43 45 36 31 31 28 18 13 19 26 34 36 34 32 36 33 32 30 27 25 25 23 22 20 15 19 18 16 17 14 12 13 17 22 27 28 26 24 23 20 19 14 12 10 12 13 15

GFSSGP_500_spd_024.txt.gz
Wind_Speed
4 4 5 11 14 17 17 14 14 15 14 14 13 11 9 9 9 11 14 17 14 9 11 5 6 9 10 12 12 10 10 10 12 14 14 15 15 15 14 13 13 12 10 10 11 11 8 7 6
3 3 6 10 15 12 13 13 14 15 14 14 12 9 8 6 10 13 13 12 8 9 8 6 6 8 9 11 10 10 10 11 14 14 15 15 15 14 14 14 13 12 11 11 9 9 7 6 4
2 3 8 11 9 10 11 11 13 15 13 13 11 9 8 8 12 11 9 12 10 7 5 5 7 7 9 10 9 9 11 13 15 15 16 16 16 15 14 15 13 12 11 10 9 7 6 3 2
7 10 13 11 10 10 10 13 13 15 15 13 9 7 7 8 9 8 12 12 10 7 4 5 7 7 8 9 9 10 12 14 15 17 18 18 17 16 16 14 13 13 12 10 9 7 5 4 3
14 10 13 10 11 10 11 12 12 12 11 11 9 7 6 6 5 9 12 9 9 6 5 6 7 7 8 8 10 11 14 15 17 19 19 18 17 16 15 14 15 13 12 11 10 9 7 8 8
14 15 15 7 11 10 9 9 9 9 9 9 7 7 8 7 7 8 9 7 6 4 7 6 7 7 8 9 12 13 15 16 18 18 19 19 19 18 17 17 15 14 13 13 14 14 15 15 14
13 12 13 10 6 8 8 8 10 9 11 9 8 9 9 9 9 8 7 5 6 4 6 6 8 8 9 11 13 14 16 17 19 20 20 21 21 22 21 20 19 20 18 18 17 16 15 13 14
13 9 9 7 8 8 11 10 12 12 11 12 12 8 9 10 11 8 7 6 7 7 7 6 7 10 12 13 15 15 17 18 20 20 21 22 23 23 23 21 20 20 18 15 15 14 13 12 13
13 10 7 6 7 7 7 8 10 9 11 12 11 13 10 10 12 10 8 7 8 8 8 7 9 11 12 15 15 16 17 17 19 21 21 22 22 22 20 19 18 17 15 13 12 11 10 11 11
18 14 11 7 5 7 9 8 10 10 14 12 9 14 13 11 12 11 9 7 7 8 9 9 10 12 14 15 16 16 17 19 19 20 20 19 19 19 17 16 15 13 12 12 11 9 9 9 10
19 16 14 11 8 6 8 9 10 12 14 13 12 13 15 14 13 11 8 7 7 8 10 11 12 13 14 17 17 18 19 19 18 18 18 16 16 15 14 14 13 12 10 10 10 9 8 8 8
17 17 14 12 9 7 9 10 12 12 13 12 12 14 14 17 15 14 10 7 4 8 9 11 12 14 14 18 19 19 18 17 15 15 14 14 14 14 13 11 10 10 9 8 6 8 8 9 9
20 20 15 12 11 9 8 8 11 12 13 12 10 13 16 16 16 13 10 8 5 9 11 12 13 15 16 18 19 20 18 15 14 14 14 13 13 12 12 10 9 8 7 5 5 4 5 7 8
26 24 18 15 15 11 8 8 9 10 12 12 12 12 18 19 18 16 15 13 9 11 11 14 14 16 17 19 18 18 16 15 15 14 13 13 12 11 9 7 6 5 5 4 5 4 4 5 6
30 29 26 24 15 14 12 10 9 8 8 10 10 11 13 20 19 20 19 17 14 15 14 17 16 16 17 17 17 17 16 14 14 13 13 12 10 10 8 6 5 5 7 5 5 5 4 4 3
31 30 26 25 28 16 13 14 13 11 10 9 7 8 10 15 21 20 18 18 17 17 17 19 17 17 17 18 18 17 15 13 13 14 13 10 9 7 6 5 4 7 9 8 7 5 5 5 5
33 24 25 27 29 28 22 21 19 15 12 11 9 9 10 12 15 16 18 19 19 20 19 20 18 19 18 18 16 15 14 12 12 12 9 7 5 5 2 4 6 9 11 10 9 9 8 8 6
26 30 24 28 27 24 25 26 23 19 16 14 13 13 13 14 16 18 21 20 20 19 20 22 20 21 19 17 17 15 14 13 11 9 7 5 3 3 3 4 8 11 12 11 11 13 12 8 7
24 28 27 29 33 27 29 30 26 22 21 17 14 14 15 14 15 16 18 22 22 21 19 21 19 17 17 18 18 17 16 14 12 10 9 7 4 4 4 6 7 10 11 11 11 12 16 13 7
25 22 28 32 36 33 32 32 29 26 23 20 19 18 18 19 17 17 19 21 22 23 22 22 21 17 16 15 16 14 12 12 11 10 9 7 4 5 4 4 7 9 9 9 10 13 18 18 14
32 30 33 36 39 37 36 34 32 27 25 23 21 20 19 17 21 20 21 22 23 24 23 24 23 21 17 15 13 13 12 14 14 12 9 6 4 5 4 4 6 8 8 9 10 13 16 16 15
31 29 32 38 42 40 41 39 36 29 30 28 23 16 17 18 20 22 22 21 22 25 25 25 25 22 19 15 13 15 16 15 13 12 11 8 5 1 1 3 6 9 9 7 7 11 13 12 13
24 33 36 34 40 38 41 41 40 37 38 32 26 16 19 19 23 24 23 24 24 23 24 23 22 20 18 18 19 16 14 15 15 16 14 12 9 6 5 4 4 6 8 8 6 10 11 11 11
31 37 37 37 35 45 34 34 37 41 40 35 31 23 21 20 24 24 25 27 25 23 22 21 20 21 21 20 18 17 17 16 16 16 16 14 12 10 10 8 7 5 6 6 5 7 9 10 9
35 38 39 40 42 35 32 35 25 47 39 37 31 25 25 24 26 25 24 25 25 23 23 22 21 20 20 20 18 17 17 17 17 17 17 16 16 14 12 11 12 9 5 5 4 4 9 10 9
36 37 35 39 37 34 29 22 20 30 39 37 34 29 29 29 28 27 25 26 25 24 22 21 19 19 19 20 19 19 18 17 18 17 18 19 19 17 15 14 14 13 9 4 4 2 7 9 11
35 36 27 37 36 32 21 21 22 18 35 42 37 32 28 28 30 27 26 28 28 27 23 20 19 19 18 19 20 20 21 20 19 20 21 21 19 19 19 17 17 16 13 8 5 3 2 6 9
42 30 41 39 36 29 25 20 16 16 28 40 39 33 27 25 25 29 30 29 27 25 25 25 24 21 20 23 22 22 22 21 21 21 19 20 21 21 20 19 19 18 16 14 8 5 2 2 6
48 47 43 36 32 29 24 18 18 18 23 34 37 31 28 26 24 27 30 29 26 25 26 24 23 23 22 19 17 17 19 19 19 20 21 21 24 22 21 21 22 21 19 16 12 10 6 4 7
47 42 41 41 35 31 24 18 18 17 23 32 38 34 34 32 31 30 32 31 29 26 24 25 23 23 19 18 18 16 18 17 16 16 17 20 22 25 25 25 25 25 21 18 17 14 10 8 8

GFSSGP_500_spd_027.txt.gz
Wind_Speed
6 6 10 13 14 13 9 12 12 9 11 12 11 9 10 9 8 6 5 4 5 3 15 10 13 12 12 10 10 12 11 11 11 11 12 12 12 12 11 11 11 11 11 11 10 9 8 6 4
4 4 7 10 10 8 10 10 13 11 13 11 10 7 7 4 9 9 9 6 4 6 7 10 12 10 10 10 10 10 10 10 11 11 12 12 12 12 11 10 10 9 10 9 8 7 6 4 3
0 9 9 10 4 5 6 11 10 10 10 10 7 6 5 5 10 11 8 7 5 4 6 7 8 8 8 9 9 9 9 11 12 12 11 11 12 11 11 11 9 10 9 8 6 5 4 4 4
1 11 12 9 5 7 8 8 10 10 9 10 7 5 3 4 8 6 9 9 8 5 5 5 8 8 7 8 8 9 11 13 13 13 13 12 12 12 12 11 11 10 10 9 7 7 6 6 7
9 12 12 8 3 8 8 8 8 10 10 8 5 5 4 5 4 6 10 8 8 5 5 6 7 7 6 8 8 12 13 15 15 15 14 13 12 13 14 11 11 11 11 10 9 7 8 11 12
9 16 10 12 8 8 9 10 9 9 9 8 7 6 6 6 7 8 8 7 6 6 6 7 6 6 6 7 10 14 15 16 16 15 14 14 14 14 15 14 14 14 13 12 13 13 13 14 15
13 4 19 7 2 9 7 7 9 9 10 9 8 8 8 7 9 9 7 7 5 6 6 7 7 7 7 8 12 15 16 17 18 18 16 17 18 18 19 19 19 19 18 16 14 13 13 12 14
16 12 15 6 6 10 8 8 10 9 10 10 10 9 8 9 11 8 6 8 7 7 5 7 7 8 9 11 15 16 17 19 20 19 19 20 20 21 21 21 18 17 15 13 12 11 11 11 14
18 13 13 7 6 9 4 6 8 10 11 11 13 11 9 9 12 9 8 8 9 8 8 8 8 9 12 14 15 17 19 21 20 20 20 20 19 19 16 17 15 13 11 10 9 10 10 11 12
13 21 22 9 9 6 4 8 10 11 12 14 13 12 11 9 12 10 9 9 9 10 10 10 9 10 13 14 16 18 20 21 20 18 20 10 17 16 15 14 12 11 10 10 10 11 11 11 9
17 8 16 17 7 3 7 4 8 9 12 15 11 11 11 11 12 12 10 9 9 10 11 11 10 11 13 15 16 18 20 20 18 17 16 17 16 10 11 11 10 8 9 10 11 9 9 9 10
20 21 16 13 7 5 6 9 5 8 14 17 13 13 14 14 15 13 9 9 8 10 11 12 12 12 14 15 16 19 19 18 17 14 13 13 13 11 10 9 7 8 8 8 10 11 12 11 10
22 19 16 14 9 8 8 9 8 7 12 13 14 14 16 15 15 13 9 7 7 10 12 13 13 14 15 16 16 17 17 15 13 12 11 12 11 10 9 7 6 7 8 10 8 10 9 9 10
24 23 20 15 12 10 8 9 9 9 11 9 12 14 16 18 15 15 14 11 8 10 12 14 14 15 17 15 16 15 14 12 12 11 10 10 10 9 7 6 4 6 7 6 7 7 6 10 8
33 28 23 17 14 12 11 9 9 12 10 10 10 12 16 19 17 18 18 16 12 13 13 15 16 17 17 17 15 13 11 12 11 11 10 9 7 6 5 4 6 7 6 5 5 5 7 6 7
34 31 29 22 17 15 13 9 13 16 12 12 10 10 14 20 23 22 18 16 16 14 15 16 17 18 18 17 15 14 12 11 10 10 10 9 7 5 4 4 5 7 7 6 6 6 5 6 5
36 30 31 26 24 17 16 9 12 21 19 13 11 10 13 17 22 22 20 18 19 17 17 18 18 17 19 18 16 14 13 12 11 10 9 7 5 3 2 3 5 8 7 8 10 7 6 6 6
35 33 24 27 24 31 23 17 14 17 18 14 12 11 12 13 16 20 22 20 19 19 18 20 19 18 18 18 16 14 13 12 12 11 8 5 3 2 2 3 5 8 9 10 10 10 9 7 6
31 29 30 23 24 24 31 24 25 19 19 16 14 13 14 15 16 18 21 21 21 20 20 21 20 20 18 19 18 17 15 13 10 8 7 5 4 3 2 5 7 10 11 11 10 15 16 13 11
31 31 29 28 26 30 27 26 24 20 25 20 18 16 17 17 17 18 19 20 22 22 21 21 21 21 21 20 19 17 15 13 10 9 8 6 5 3 2 5 8 9 10 10 10 12 15 16 14
36 32 28 29 28 27 31 29 27 24 24 24 21 19 18 18 18 18 20 23 23 22 21 22 22 22 22 19 18 17 15 15 15 12 9 8 7 4 2 5 6 8 10 8 8 11 14 13 14
35 33 34 31 31 31 33 31 32 28 26 27 25 23 19 20 20 20 20 22 23 25 25 23 24 24 20 17 16 17 17 16 13 12 11 10 9 5 1 2 4 6 7 7 7 9 13 11 11
26 36 38 38 36 31 31 33 25 27 28 28 28 25 21 23 21 21 22 25 26 25 24 23 24 22 20 18 18 17 15 14 14 15 15 11 8 5 4 2 3 6 5 6 6 7 8 9 10
30 36 41 41 43 45 39 36 33 31 27 27 28 28 24 24 24 23 26 25 24 23 24 22 21 22 22 21 19 18 18 17 16 16 15 12 9 9 8 6 5 5 6 4 5 4 6 7 8
37 37 41 45 46 45 36 39 33 30 31 31 30 29 29 28 27 28 27 25 25 21 21 22 23 22 22 20 18 18 19 18 17 17 15 14 13 12 9 9 8 6 6 4 2 2 3 5 6
39 38 39 43 42 35 34 35 33 31 30 32 29 30 31 32 26 28 26 25 27 25 23 22 22 22 20 19 19 19 19 17 17 17 17 17 15 13 12 12 11 10 7 6 4 3 1 1 4
41 41 30 24 23 24 25 25 23 29 32 32 34 36 32 32 26 28 26 27 28 28 26 23 23 21 19 18 19 18 17 17 18 19 19 19 17 15 15 14 12 13 11 8 7 7 4 2 2
45 33 39 41 28 25 24 21 24 20 23 30 34 37 34 32 24 29 28 28 28 27 27 26 24 21 22 20 19 18 17 18 20 19 19 20 19 17 16 15 14 14 14 12 10 10 9 6 4
46 47 42 36 36 23 17 13 18 26 16 30 34 37 36 32 24 28 28 29 29 29 28 25 23 23 21 20 20 20 19 18 19 18 20 22 22 19 16 16 15 15 15 15 14 12 13 11 8
44 47 43 41 36 33 19 15 26 23 22 28 35 41 41 36 29 24 25 30 32 29 28 26 25 24 23 23 22 18 18 15 13 14 14 15 17 18 18 17 18 18 19 19 16 16 15 16 14

GFSSGP_500_spd_030.txt.gz
Wind_Speed
9 11 11 10 11 15 13 11 13 9 8 8 11 9 6 3 1 5 3 8 11 9 12 14 11 11 12 15 13 11 11 10 10 10 10 9 8 9 10 11 10 9 10 9 8 7 6 5 4
7 8 5 6 3 11 11 9 12 6 7 9 6 4 3 3 6 1 5 4 5 8 10 12 12 11 11 14 11 11 10 9 9 9 9 9 8 8 9 8 8 8 8 7 7 7 6 7 8
4 8 6 3 9 10 5 9 6 7 6 7 6 5 1 2 4 3 2 3 7 8 9 10 11 11 11 12 11 10 10 9 9 9 9 8 8 9 9 9 8 7 6 7 8 7 8 8 7
2 10 10 13 13 3 5 1 3 4 4 5 3 3 2 4 5 2 2 2 5 7 7 8 10 10 10 11 11 10 10 9 10 10 10 10 10 10 9 10 9 9 10 9 9 10 11 11 10
10 15 10 3 14 16 2 3 3 6 6 5 1 2 2 3 3 3 6 4 4 5 7 7 8 9 10 10 11 10 11 11 11 11 12 12 11 10 12 11 11 12 11 11 12 13 13 15 16
9 14 14 9 12 9 2 4 4 5 6 5 5 6 5 4 5 6 6 5 4 6 7 7 7 8 10 10 11 11 11 11 11 13 14 14 13 14 14 13 14 14 14 15 14 14 15 16 19
13 4 13 12 19 5 4 4 5 7 9 7 8 7 7 6 6 8 5 4 5 6 6 7 7 8 10 11 12 12 11 11 14 16 16 18 19 19 19 19 19 17 16 14 14 13 14 16 18
14 5 9 3 8 9 6 4 3 7 9 11 10 10 7 5 6 7 4 6 7 8 6 8 8 9 11 13 14 14 12 15 16 17 18 19 23 21 20 21 17 15 14 13 12 12 12 15 16
14 9 4 7 8 15 4 8 2 8 10 12 12 10 8 6 7 8 6 6 8 9 9 9 9 11 14 16 15 14 15 17 17 19 20 10 22 20 17 17 15 13 14 14 13 13 13 13 14
15 7 19 18 13 13 9 7 8 7 10 12 12 10 8 7 8 8 7 7 9 10 9 11 11 14 16 16 16 16 16 17 17 20 17 11 13 18 15 15 14 12 12 13 13 12 12 14 13
15 9 14 17 16 8 6 6 5 5 8 9 11 10 8 9 8 9 7 7 8 9 10 11 12 14 16 17 17 17 16 15 16 17 17 10 14 15 12 13 10 9 9 9 11 11 12 10 10
18 12 11 15 12 6 8 15 7 3 7 5 11 12 9 10 10 10 7 6 8 8 10 11 13 15 17 17 17 18 16 12 10 13 13 11 15 13 11 10 9 9 8 9 11 12 10 9 7
18 14 11 5 3 9 11 6 2 7 7 6 10 13 10 10 12 10 7 5 6 8 10 12 13 16 17 18 20 18 16 12 9 7 8 8 14 11 10 8 8 10 8 2 12 11 9 9 10
20 18 19 4 5 10 6 13 9 7 8 7 7 8 11 12 13 13 10 7 5 8 10 11 13 15 17 18 19 18 15 12 9 6 7 8 8 8 9 9 10 11 14 17 14 12 12 5 6
25 28 27 19 19 13 10 9 1 13 11 13 7 7 10 13 14 15 15 11 6 7 10 11 13 17 16 17 17 15 13 11 10 9 8 7 6 6 8 9 9 13 14 13 12 8 7 8 5
32 33 30 23 21 17 11 8 16 14 13 16 12 9 8 13 18 20 16 12 9 8 11 11 13 17 16 17 17 14 13 11 9 9 7 6 6 6 7 7 10 11 10 11 9 7 6 7 9
36 34 31 21 20 14 12 14 21 17 19 13 13 10 9 11 18 19 18 16 14 11 12 13 14 16 17 18 17 15 14 12 10 9 7 6 5 5 6 8 10 12 9 10 10 11 11 9 6
33 31 28 26 21 19 17 15 17 19 18 23 12 11 10 10 13 20 20 18 19 16 14 16 16 16 17 17 17 15 13 12 10 9 7 5 4 3 5 7 10 10 11 10 11 13 14 12 8
30 27 31 21 19 24 16 19 24 28 35 18 17 16 14 11 10 14 17 18 20 19 18 19 18 17 17 18 17 15 12 9 9 8 7 6 5 5 4 8 9 10 10 10 11 13 16 15 15
35 28 27 23 21 22 23 24 26 32 20 6 20 18 13 13 10 12 13 17 18 21 20 20 21 20 20 20 18 14 12 10 8 8 7 6 6 6 4 6 8 10 9 11 11 13 15 19 18
37 34 29 26 24 25 27 23 27 35 19 22 24 24 22 12 9 11 11 14 18 19 19 20 22 23 22 21 18 15 13 12 11 8 8 8 7 7 5 6 7 8 8 9 11 12 12 13 13
36 35 34 32 28 30 30 29 32 32 23 31 27 28 28 10 10 13 14 14 18 21 20 19 21 23 23 21 18 17 17 13 9 10 11 10 7 5 4 4 5 6 7 7 8 10 11 10 8
31 33 37 37 32 32 32 33 30 30 34 32 30 32 20 15 12 15 17 18 19 20 19 18 19 20 21 20 19 18 17 13 11 12 12 11 7 4 2 1 3 5 5 5 5 6 6 7 8
25 29 34 38 34 42 40 34 30 34 27 26 28 21 17 18 19 14 21 20 17 20 20 20 19 20 20 20 18 17 16 14 13 13 11 10 8 6 3 2 2 4 5 4 3 3 4 4 4
34 33 36 39 48 48 37 42 37 25 29 29 30 29 25 25 25 15 20 19 19 19 19 20 19 19 20 20 17 16 15 13 12 11 10 10 9 8 7 6 4 3 4 5 5 3 2 1 1
41 38 39 44 44 37 36 35 29 32 28 23 18 28 26 29 24 14 16 20 21 22 20 22 22 20 20 20 17 15 14 13 13 12 11 11 11 11 12 10 9 7 5 4 4 6 5 3 2
44 44 32 30 22 25 28 25 22 29 40 33 32 30 31 30 28 25 16 20 23 22 19 19 21 19 19 19 18 16 16 13 13 14 14 14 13 13 13 12 11 9 8 7 6 5 8 8 6
46 35 38 38 30 24 18 22 18 24 36 43 39 35 33 32 32 24 13 20 22 23 23 22 21 19 19 19 18 15 13 13 12 12 13 15 16 16 14 15 14 12 11 9 9 8 8 10 11
47 45 40 35 34 23 16 17 20 21 21 30 30 37 38 37 35 30 14 20 23 25 24 24 22 20 18 16 16 15 15 14 13 12 13 15 15 15 13 15 14 14 13 11 10 11 10 11 12
48 46 43 42 38 34 21 16 22 25 24 24 32 34 39 36 34 34 18 21 25 26 24 24 22 20 20 21 19 18 14 13 10 10 10 10 10 10 10 11 12 14 15 15 14 12 12 12 13

GFSSGP_500_spd_033.txt.gz
Wind_Speed
8 10 6 7 7 13 11 13 13 11 5 3 3 5 1 4 5 7 4 9 10 12 9 10 11 11 9 10 13 14 14 13 13 10 9 10 9 8 10 9 11 10 9 8 7 8 9 9 8
5 7 4 4 7 6 18 13 15 7 6 5 4 3 1 3 2 5 9 6 10 9 8 10 10 10 10 11 13 14 14 13 11 8 8 9 9 8 9 9 9 9 9 9 8 8 8 7 7
5 8 6 2 7 13 9 11 4 5 7 6 3 1 5 2 3 5 5 8 7 7 7 11 11 10 10 11 14 14 14 12 10 8 9 10 10 10 10 9 9 9 8 9 10 10 10 9 8
5 8 15 10 6 5 6 9 5 4 5 4 2 1 2 4 5 3 2 6 6 6 8 9 10 11 11 12 15 14 14 11 9 9 10 11 12 12 12 11 12 12 12 13 13 14 14 15 13
7 12 11 13 6 15 9 8 3 7 4 2 1 1 2 1 1 2 4 4 4 4 9 8 10 12 11 12 15 14 12 10 10 11 12 13 13 14 14 15 15 15 15 15 16 15 15 18 20
12 11 14 14 6 12 10 4 3 1 3 2 2 5 4 4 2 3 4 3 3 6 8 7 9 11 11 13 14 15 12 11 13 14 14 15 14 14 16 16 18 18 15 14 13 13 16 21 24
12 15 12 13 22 12 9 3 4 1 2 2 3 4 5 5 3 6 4 2 4 6 7 7 9 11 12 14 14 14 14 16 18 18 19 19 19 17 18 19 18 16 15 14 13 14 17 20 22
9 2 3 16 10 22 21 3 3 5 6 3 4 2 6 5 4 6 4 3 5 6 8 8 10 12 13 15 15 15 17 18 18 20 22 21 21 21 18 16 16 14 14 13 14 14 16 17 20
10 11 11 11 18 18 7 7 6 6 3 4 6 6 7 5 5 4 4 3 5 6 9 9 11 14 14 16 16 17 20 19 19 21 19 21 18 15 16 16 14 14 16 14 15 15 15 17 16
11 4 17 17 12 10 14 5 7 5 5 4 6 7 7 6 5 5 3 5 7 7 10 11 12 15 16 16 17 19 20 17 18 18 15 13 16 14 14 17 15 14 14 13 13 12 13 16 16
15 7 13 10 9 8 6 4 9 3 3 4 5 6 5 4 4 4 4 6 8 8 10 12 14 16 16 16 18 20 20 16 16 13 14 12 14 13 12 17 15 14 13 14 10 11 11 14 13
17 13 12 13 8 3 1 8 6 8 8 5 5 4 6 6 4 4 5 6 7 8 9 13 15 16 17 17 18 19 20 15 13 13 9 12 12 13 14 15 15 16 13 12 11 9 9 8 12
18 14 9 11 9 8 2 10 5 5 8 4 6 7 7 4 3 6 5 5 6 9 10 12 15 16 17 17 18 17 17 14 13 11 9 13 12 12 14 16 16 14 13 5 9 9 5 7 9
18 18 16 12 16 6 5 10 9 7 7 5 10 7 6 4 7 10 9 5 5 8 10 12 14 16 16 19 18 16 14 14 14 10 10 11 12 15 15 15 15 14 10 9 9 7 7 8 8
23 18 20 15 11 3 6 11 17 6 7 7 8 6 8 5 8 13 13 9 4 7 9 12 14 16 16 18 18 15 13 10 11 9 9 11 13 12 12 15 16 11 13 13 11 7 8 8 6
30 30 26 22 18 14 12 14 21 13 9 4 5 5 5 6 9 13 10 12 9 7 10 12 16 17 18 18 17 15 12 11 11 9 8 9 10 10 12 14 15 12 9 12 12 12 9 8 7
36 32 30 28 21 17 14 17 16 20 19 13 2 6 6 5 4 7 12 13 13 11 13 12 16 17 17 17 15 13 11 10 8 7 7 7 8 11 11 12 14 12 12 15 18 16 13 7 5
30 32 28 29 21 19 16 15 17 25 28 23 9 2 5 9 7 3 10 15 18 15 16 13 16 17 18 17 15 13 11 10 9 7 6 6 7 9 10 11 13 14 12 13 16 15 15 16 11
33 31 29 26 25 25 12 11 21 29 26 22 18 8 3 5 7 5 4 11 14 16 16 17 17 18 18 18 16 13 11 9 8 6 6 6 7 7 8 10 10 10 11 11 13 16 17 16 14
37 34 31 23 24 21 17 18 33 32 26 30 19 11 5 8 3 5 3 10 14 17 18 19 19 19 20 19 17 14 11 10 9 8 7 7 7 7 7 8 9 9 10 12 13 13 14 17 14
38 37 30 23 25 20 16 17 36 41 27 31 35 16 16 11 7 2 1 8 17 19 18 18 21 21 22 20 17 15 13 11 10 8 7 7 8 8 5 7 7 8 9 9 11 12 11 12 13
33 34 33 26 34 30 31 37 33 31 32 28 26 29 18 3 12 2 2 8 15 19 19 18 21 22 22 20 18 16 14 11 9 10 9 7 8 7 5 5 5 5 6 7 9 9 9 9 7
26 33 36 34 39 35 35 34 27 34 33 29 30 19 17 14 18 7 7 9 12 17 17 16 20 22 20 20 19 16 13 11 12 12 10 9 7 4 4 4 4 5 5 6 5 7 6 6 8
28 34 38 41 42 50 43 40 38 37 29 29 31 24 14 4 8 9 11 10 11 16 15 14 15 17 20 19 17 16 13 12 13 12 11 11 8 4 2 3 3 3 4 4 4 4 4 3 5
36 35 36 42 52 50 45 47 42 33 29 26 28 28 24 10 5 8 8 11 11 16 17 17 16 15 17 18 16 15 14 13 12 11 10 10 8 6 5 3 2 1 3 4 4 4 5 6 4
37 34 38 41 46 44 45 45 36 36 31 26 28 33 29 32 9 4 7 10 12 15 18 17 17 19 18 17 17 15 13 13 12 11 11 10 9 9 9 9 7 4 4 5 5 6 7 7 6
40 45 36 34 34 37 40 39 33 28 33 36 32 38 34 32 15 7 9 10 13 15 17 18 19 21 20 19 17 15 14 12 12 11 10 10 11 13 12 10 9 8 8 8 7 5 7 8 8
47 34 40 39 37 33 27 24 13 28 34 41 36 41 29 26 20 20 10 8 10 16 18 18 18 20 20 19 18 16 15 13 12 12 12 11 11 11 12 11 10 10 10 9 8 7 6 8 8
50 44 39 37 37 30 22 7 7 7 6 25 34 27 23 21 27 20 8 6 9 15 18 20 18 17 16 16 17 16 15 15 14 11 10 11 11 12 13 12 10 11 11 11 11 10 9 10 9
42 49 43 43 37 31 19 20 21 21 22 14 18 33 27 28 34 25 13 12 12 12 17 20 20 18 19 20 19 18 16 13 11 9 7 6 5 3 4 4 3 3 6 9 11 10 11 12 12

GFSSGP_500_spd_036.txt.gz
Wind_Speed
3 8 7 2 2 10 11 10 14 7 8 5 6 4 8 7 8 7 8 8 8 7 5 9 10 10 9 10 11 13 13 13 12 12 10 9 9 10 11 12 11 9 7 7 6 5 4 4 4
2 4 5 3 7 7 9 12 16 9 9 9 7 4 6 5 6 10 9 7 5 6 6 9 10 9 10 10 12 14 14 14 13 13 11 9 9 9 9 10 11 9 7 7 7 6 6 5 4
5 5 8 5 15 9 5 16 11 9 9 6 7 9 7 6 6 7 6 7 5 6 7 8 10 9 10 12 13 14 15 15 13 12 11 10 9 9 9 10 9 9 10 9 9 10 11 8 5
8 8 7 6 12 10 7 9 13 10 8 6 6 6 6 4 4 3 5 6 5 5 8 8 9 9 11 14 14 14 14 13 12 12 11 11 11 10 10 11 12 12 12 13 12 14 15 12 7
8 10 13 6 14 16 13 9 14 12 9 4 5 4 3 2 1 3 7 5 5 7 7 8 9 10 12 14 15 13 12 14 15 14 13 12 12 12 13 14 14 15 14 12 14 17 18 19 16
10 14 13 5 17 14 13 11 14 8 7 5 2 1 0 2 1 5 6 4 4 8 9 8 9 11 13 13 15 12 15 17 17 15 14 14 14 15 16 16 16 14 12 14 16 18 19 25 26
9 14 13 15 13 15 18 13 11 5 4 1 1 2 1 2 1 3 5 3 6 7 9 7 9 13 14 14 17 18 20 20 18 16 17 17 16 17 17 15 14 13 13 14 15 17 18 20 21
13 15 8 13 23 23 17 15 12 6 7 1 1 3 3 0 0 1 3 3 6 7 9 8 9 14 15 17 20 20 22 23 21 20 20 20 20 15 13 14 12 13 15 15 17 16 16 17 16
6 5 5 17 4 30 16 11 10 5 5 4 1 2 4 2 1 1 2 2 5 6 9 10 11 15 16 20 22 22 24 23 23 22 22 18 18 14 12 12 13 14 15 16 15 15 16 16 14
12 3 22 16 11 9 17 13 8 7 9 6 1 3 4 3 1 0 2 4 6 8 10 10 13 16 18 22 23 24 23 22 21 20 18 14 15 16 13 14 13 11 12 14 12 13 13 14 13
15 13 9 17 16 5 10 10 8 3 4 7 4 4 4 3 3 1 3 5 7 9 10 11 14 17 19 23 22 23 23 21 17 16 17 14 14 15 13 12 10 10 12 11 11 11 11 10 10
16 15 16 14 18 9 9 20 15 8 4 8 7 5 3 3 5 3 4 8 8 8 9 12 14 16 19 22 21 20 23 16 19 15 15 13 14 13 11 11 10 8 10 9 8 7 11 10 7
16 17 14 18 11 7 10 11 16 6 4 8 8 6 5 5 7 5 4 6 9 10 11 13 13 16 19 22 21 18 16 17 16 15 13 12 12 12 12 12 11 11 11 8 7 7 7 9 6
19 20 20 20 17 9 8 16 10 8 7 10 8 7 4 7 11 8 6 5 7 10 11 13 14 16 19 23 21 19 15 15 15 15 12 11 13 13 13 12 11 12 12 9 7 7 7 5 9
26 27 28 24 14 13 13 12 10 12 7 6 6 7 5 3 12 14 9 6 6 10 11 13 14 15 18 20 22 19 15 17 14 11 11 11 12 12 12 11 10 12 13 12 8 6 7 7 7
32 32 26 21 16 17 12 11 6 6 5 7 5 3 6 1 4 11 15 10 7 8 12 14 14 15 18 18 19 19 15 16 13 10 11 11 10 12 12 12 11 13 15 15 12 8 8 7 10
36 29 27 28 25 18 15 10 9 10 8 7 5 4 1 4 3 6 15 15 12 10 13 15 15 18 19 18 17 18 17 16 12 11 10 10 10 10 12 12 12 12 14 16 14 13 9 7 10
34 28 27 26 25 21 18 18 16 12 8 2 7 4 1 6 2 8 14 18 17 14 14 15 19 18 19 18 16 15 15 14 11 10 7 8 10 10 11 12 13 14 15 16 15 16 16 15 13
35 34 28 22 26 27 18 18 23 16 7 4 2 8 8 3 5 8 11 19 19 16 16 17 21 20 20 18 17 16 14 13 11 10 9 8 9 9 10 10 12 13 14 13 15 16 14 16 13
38 38 30 27 28 24 18 20 25 14 5 5 11 8 9 2 4 4 10 19 21 21 18 19 21 21 22 20 17 16 14 12 10 8 10 9 8 8 8 9 9 11 14 13 14 13 14 16 16
36 38 32 29 30 28 32 28 36 23 16 17 14 7 6 6 6 5 10 15 22 24 22 21 23 22 21 20 17 15 14 12 10 8 8 8 7 6 6 7 8 10 12 12 12 12 11 11 12
36 29 35 34 36 40 31 30 40 28 22 16 19 10 7 9 10 4 9 13 19 24 24 23 23 22 20 19 17 16 13 11 8 8 7 8 7 5 5 5 7 7 8 9 10 11 13 13 11
26 33 39 37 38 42 43 43 38 31 27 22 14 11 10 5 14 9 4 13 18 21 21 19 21 22 21 20 18 15 13 10 10 9 9 9 9 6 4 4 6 6 6 7 7 9 9 9 9
34 37 41 44 45 52 46 46 42 39 26 21 22 17 13 8 7 6 8 10 13 16 19 18 18 21 22 21 18 15 13 12 11 11 10 10 7 6 5 3 3 5 5 5 6 6 5 5 5
42 44 46 52 58 58 45 51 40 35 28 24 23 12 11 12 9 7 7 13 14 16 19 18 18 19 22 21 20 18 15 14 13 12 11 9 7 5 5 3 1 2 4 5 6 5 4 3 4
45 48 49 51 54 47 41 55 37 37 29 27 17 14 11 15 11 9 5 11 14 17 19 20 18 18 21 23 21 19 18 17 15 12 11 11 10 9 7 4 4 5 5 5 5 6 6 3 3
42 49 41 43 47 46 48 48 41 39 37 33 30 32 28 18 14 9 9 7 16 18 22 21 21 20 19 23 22 19 19 18 17 15 13 13 13 11 9 7 7 8 9 9 7 6 7 7 6
46 40 44 46 44 46 44 42 39 38 31 26 32 32 24 25 18 14 10 6 13 20 22 22 20 21 22 23 23 22 21 20 18 16 15 14 13 12 11 11 11 11 12 11 8 7 8 8 8
52 50 45 42 44 41 34 33 28 33 35 35 35 34 30 23 17 18 16 9 9 21 21 22 19 21 21 19 22 23 22 21 19 18 15 12 12 14 14 15 16 14 11 11 10 9 10 10 9
48 51 46 45 45 37 28 24 38 32 31 29 45 45 36 21 21 14 14 11 13 16 21 21 18 17 22 24 23 24 24 22 19 15 11 10 9 8 7 8 10 11 11 10 11 11 11 10 10

GFSSGP_500_spd_039.txt.gz
Wind_Speed
8 6 4 3 8 14 15 12 10 5 7 4 3 9 8 8 9 11 6 4 3 4 7 7 6 7 6 6 7 9 11 12 12 12 13 12 10 10 11 11 9 8 7 6 5 3 2 1 1
5 4 5 2 4 5 5 13 8 13 10 10 6 5 5 10 12 12 8 2 2 3 8 7 6 7 6 7 8 9 11 12 10 10 11 11 9 10 10 11 10 9 8 8 7 6 4 2 2
3 3 5 1 6 6 8 15 13 9 10 9 8 6 7 9 9 7 6 6 2 4 9 7 7 7 7 9 10 11 12 11 10 9 10 10 10 11 10 10 9 9 10 10 9 6 4 2 2
5 6 3 7 8 6 13 14 17 15 13 8 8 7 8 7 5 5 7 6 3 5 8 7 7 8 9 10 10 13 13 11 10 10 11 11 11 12 12 10 10 11 10 11 11 11 7 5 7
7 6 3 6 10 9 11 15 14 13 10 8 6 7 7 6 3 3 7 6 6 7 8 7 8 9 11 11 11 13 11 12 13 13 13 13 13 13 11 11 12 11 11 12 13 17 18 16 15
11 12 10 5 12 10 11 11 12 12 9 5 4 6 3 5 2 4 6 6 5 10 9 8 9 10 12 11 12 11 13 15 16 17 17 16 15 14 12 12 11 9 11 13 14 18 22 24 22
15 15 12 8 11 13 12 18 14 11 11 5 2 4 3 4 2 1 5 4 5 7 11 9 9 12 13 12 13 16 17 18 19 19 19 18 18 16 12 12 11 10 9 13 15 17 18 19 18
13 14 12 16 13 12 14 14 10 8 8 8 4 2 3 5 5 1 2 2 5 7 9 10 10 14 13 16 18 18 19 22 21 20 21 20 19 17 12 11 12 10 11 13 15 16 16 15 15
11 13 7 15 17 23 19 14 10 13 7 10 6 4 5 5 7 3 1 1 5 6 9 11 13 15 15 20 20 21 22 23 23 21 21 18 15 15 12 12 12 9 9 11 15 15 15 15 12
14 11 19 9 9 17 20 14 13 9 5 7 7 7 10 6 7 3 2 4 6 7 9 12 16 17 19 21 22 22 23 23 22 19 17 16 14 14 13 10 13 8 8 11 11 12 13 15 14
15 9 5 14 13 15 12 12 12 12 4 4 8 11 12 8 6 2 1 3 7 8 10 13 17 17 22 23 24 23 23 19 19 17 16 15 13 12 11 10 9 7 8 9 9 8 10 12 13
17 16 9 19 16 12 15 20 14 10 9 1 6 12 12 11 9 5 4 8 8 9 10 14 17 19 22 23 24 22 20 19 19 16 14 14 10 9 11 10 8 3 10 8 8 7 6 10 12
20 19 18 11 20 14 18 15 11 12 11 9 6 6 12 12 11 6 5 6 9 10 12 16 18 20 22 23 23 17 20 18 16 15 13 11 9 8 10 10 8 7 8 6 9 8 5 8 10
26 28 23 18 17 18 22 17 13 14 13 12 10 6 7 15 14 10 9 7 8 10 13 15 17 21 22 23 22 19 17 17 17 15 12 10 8 10 11 10 10 9 9 7 8 7 8 8 6
31 30 26 20 21 21 19 19 13 14 14 10 9 6 8 14 16 14 11 9 8 12 14 14 18 21 22 22 22 21 19 17 15 14 12 8 7 12 12 13 11 12 9 7 6 7 12 7 6
33 33 24 23 28 23 17 16 12 13 9 7 9 6 3 5 10 16 14 12 8 11 14 16 18 19 22 19 20 21 20 18 16 14 10 7 8 11 11 14 14 13 11 12 9 7 13 11 9
38 32 26 28 29 24 22 21 15 13 14 9 7 9 5 4 4 11 15 15 13 12 15 18 19 21 22 21 18 20 20 16 15 14 9 6 8 9 10 14 13 13 15 14 13 10 12 11 10
35 32 30 28 28 24 28 21 18 18 16 11 6 10 5 4 3 8 16 18 17 14 16 20 22 23 22 20 19 18 18 16 13 11 9 7 8 8 9 13 15 15 17 17 16 16 15 14 10
32 33 33 28 35 32 29 26 24 20 22 13 8 11 5 3 2 4 15 17 20 15 16 20 21 24 22 20 20 19 16 14 13 10 9 8 8 8 10 11 14 15 17 17 17 15 14 14 13
36 35 31 31 36 34 32 32 29 22 18 17 12 7 7 4 3 1 9 18 20 21 19 21 25 24 24 23 23 21 16 14 12 10 9 8 6 8 9 11 13 14 15 17 16 17 14 14 15
37 36 32 26 36 36 35 35 30 25 28 24 17 16 12 5 5 2 5 16 19 23 20 21 24 24 23 23 22 20 17 15 12 11 10 9 7 5 8 9 11 11 12 14 15 13 10 10 11
39 29 32 33 39 40 38 38 32 26 26 19 15 11 15 5 3 2 2 12 19 25 25 24 26 25 23 23 23 23 21 18 14 12 11 10 8 4 7 7 9 8 9 11 11 11 11 13 12
28 32 36 37 41 42 43 43 39 32 32 23 18 15 16 12 4 5 4 8 21 27 24 25 27 26 25 25 25 22 18 14 12 10 11 11 9 6 5 6 6 7 7 7 8 8 8 10 12
34 38 39 43 47 56 47 51 46 37 23 24 21 20 14 15 10 3 5 10 17 27 25 26 26 25 26 26 23 21 19 16 13 12 12 11 9 5 3 5 5 6 7 8 7 6 6 7 7
45 49 47 51 59 59 45 57 43 36 27 26 24 17 10 12 13 6 6 13 15 21 26 24 26 26 26 25 22 20 18 16 13 13 12 10 10 7 3 2 1 2 3 5 7 8 8 7 6
53 53 57 56 56 51 46 59 44 30 28 30 30 26 14 13 11 12 9 12 19 21 24 24 25 28 27 26 23 21 18 17 15 15 14 12 9 8 7 6 4 5 4 3 3 5 8 9 8
54 59 51 51 51 47 51 55 40 35 36 32 30 30 32 21 16 16 8 14 19 22 26 23 22 26 30 28 26 22 19 18 18 18 16 14 12 10 9 9 9 9 8 6 5 5 7 7 8
53 51 53 55 54 52 54 54 41 38 33 30 29 26 34 29 23 19 17 17 18 23 27 27 25 22 24 27 26 23 21 21 21 18 17 16 14 12 12 13 13 13 11 10 8 7 8 8 7
60 58 54 48 52 51 50 44 33 35 35 31 22 19 24 32 32 23 19 20 14 24 26 27 26 24 20 23 26 26 24 23 21 19 18 16 14 13 14 15 14 14 14 13 11 10 10 8 8
59 60 54 54 53 51 47 37 32 33 37 36 30 24 22 23 25 27 26 21 18 18 26 27 27 25 23 24 25 26 26 24 21 20 17 14 12 11 13 15 16 17 15 15 14 12 11 10 8

GFSSGP_500_spd_042.txt.gz
Wind_Speed
5 7 4 2 6 13 13 9 6 3 15 10 11 11 8 7 8 10 10 5 5 5 8 8 7 6 6 6 7 8 9 9 10 12 12 13 14 13 11 10 8 5 2 3 3 2 1 1 2
4 7 1 4 6 2 14 14 10 9 8 11 9 9 7 9 12 10 10 5 5 4 7 9 7 7 8 9 11 12 13 11 11 11 13 14 13 12 12 10 8 6 5 5 4 4 3 1 0
1 2 3 11 1 3 6 17 11 14 11 9 7 7 10 11 8 9 8 6 5 5 7 9 8 9 10 13 13 12 13 13 13 12 14 15 13 11 10 10 10 9 9 11 11 10 5 1 6
2 1 3 3 6 6 9 13 15 15 11 10 5 7 10 9 7 7 8 5 6 6 7 8 8 9 10 13 13 12 12 12 13 13 14 14 13 13 12 11 12 11 13 14 13 11 5 7 11
4 4 5 3 1 7 8 20 18 16 11 9 7 7 7 8 8 6 7 5 8 7 7 8 8 9 9 11 11 11 11 12 14 14 15 15 14 14 13 13 12 13 12 15 16 18 16 16 16
8 7 4 6 7 9 11 14 15 15 14 10 7 7 6 8 7 6 5 4 7 9 9 9 9 10 9 10 10 10 11 13 15 16 16 17 15 13 14 13 13 12 12 15 18 22 24 20 17
12 8 4 5 10 9 10 15 12 12 14 10 8 7 7 8 9 4 3 3 7 8 10 9 10 11 10 9 10 12 14 16 16 17 17 17 15 15 14 14 12 11 13 14 16 18 19 19 18
12 7 8 8 7 9 14 15 12 6 8 8 8 6 5 10 13 6 2 2 5 7 9 10 12 12 10 12 14 15 17 18 18 18 18 18 15 14 15 14 12 13 14 14 14 15 16 15 15
11 10 14 15 17 12 13 17 15 10 11 10 9 8 10 9 14 9 2 5 5 6 8 11 13 12 13 16 17 19 20 20 21 20 18 15 13 13 15 13 12 12 11 12 13 14 14 15 14
15 13 14 12 9 22 22 17 19 15 9 8 8 11 14 11 10 11 4 6 7 8 9 13 14 13 18 19 21 22 22 23 20 17 15 14 12 12 10 11 11 11 9 11 9 13 13 15 15
17 13 14 16 9 17 28 11 12 16 12 10 11 14 14 17 10 11 5 5 7 9 12 15 14 16 19 21 22 23 22 21 17 15 15 13 11 10 11 8 11 9 8 9 9 10 11 13 15
17 15 9 9 11 14 6 14 15 13 12 11 10 12 12 18 14 12 9 11 9 10 13 16 15 18 20 22 23 19 21 19 17 13 13 12 9 8 8 11 11 10 9 8 7 9 10 8 13
19 18 17 9 12 10 12 18 14 12 10 11 12 12 11 15 15 13 10 10 11 11 15 18 18 21 22 23 22 20 21 18 17 14 13 12 8 7 8 11 12 10 8 7 7 9 10 8 10
24 19 20 16 13 11 15 19 16 15 11 12 13 12 12 20 17 16 14 12 13 13 16 20 20 23 24 21 21 20 19 18 16 14 13 11 9 8 9 12 12 10 7 9 8 9 10 11 10
29 26 20 21 17 21 18 20 12 13 14 13 10 11 11 19 18 16 13 13 14 17 17 19 20 23 23 21 21 21 20 17 14 14 12 11 10 10 12 14 13 13 10 9 8 8 10 11 10
32 32 21 26 20 19 20 19 16 16 13 11 11 10 9 12 20 17 15 12 11 14 18 18 21 23 23 20 19 21 21 19 15 13 12 12 12 11 13 14 15 15 13 9 10 8 9 10 10
39 35 24 27 24 19 22 18 18 17 13 13 14 13 11 9 13 20 16 14 12 14 17 18 21 24 21 20 18 19 18 18 15 12 13 13 12 12 12 12 16 17 16 14 12 9 10 10 10
38 32 28 30 26 24 22 24 23 21 19 17 15 13 12 9 11 19 23 20 13 13 17 19 22 25 22 20 19 18 16 15 14 12 12 12 12 13 12 14 15 17 18 19 16 15 12 12 10
33 35 33 31 30 27 24 24 27 24 19 17 16 14 12 9 5 7 15 25 20 13 17 19 21 24 23 19 20 20 18 15 13 12 11 10 12 13 14 13 14 17 17 17 17 16 13 13 12
34 36 36 34 35 32 29 26 30 19 22 23 22 20 14 13 10 6 8 17 25 18 16 20 22 24 23 24 25 21 18 15 12 12 11 9 9 12 13 14 14 14 15 15 16 16 14 12 14
38 35 35 34 39 37 35 35 32 22 28 31 28 26 18 15 12 8 8 13 28 23 17 20 24 27 24 25 24 20 17 14 13 12 12 11 9 10 11 10 10 13 12 15 15 14 13 11 11
42 34 33 38 43 45 43 40 41 33 32 34 30 21 24 19 16 10 9 10 22 28 24 21 27 28 26 24 22 21 21 19 16 14 12 11 10 8 9 9 10 9 10 11 13 14 14 11 12
35 37 38 39 45 47 49 46 39 37 38 35 29 25 27 19 17 11 11 15 21 30 27 24 27 26 26 25 25 23 19 13 13 14 14 12 10 8 7 8 8 7 8 8 9 10 10 11 12
36 44 44 46 48 59 51 55 43 33 29 29 29 27 25 22 16 13 11 12 18 28 31 27 26 27 26 27 26 24 19 17 16 15 15 14 11 9 8 7 6 6 8 9 10 10 9 8 9
47 51 51 52 59 60 51 56 45 32 31 32 27 25 22 22 19 15 11 11 13 20 26 27 26 26 26 26 26 23 22 19 16 15 15 16 14 10 8 6 4 2 4 6 8 9 10 9 7
56 55 58 60 59 56 53 63 50 35 34 34 31 26 26 26 21 19 16 15 15 20 25 26 26 25 26 26 26 25 22 20 18 17 17 17 15 11 10 6 2 2 2 3 4 5 6 8 9
63 63 55 55 55 54 58 59 50 37 37 40 36 36 33 32 28 23 17 17 20 20 23 25 26 29 29 30 29 27 24 21 19 21 19 17 14 12 10 7 6 6 5 3 4 5 4 5 7
65 64 58 60 60 59 60 56 49 37 37 42 38 39 33 31 30 29 22 16 22 23 26 29 30 30 31 33 33 30 27 25 22 21 19 18 16 13 11 10 9 9 8 7 7 7 6 4 4
67 67 66 59 59 60 60 54 40 40 36 34 40 38 37 36 34 30 26 21 18 26 27 30 30 30 33 35 35 32 29 27 24 24 22 19 16 14 12 13 13 12 11 10 11 9 7 4 2
68 68 68 67 64 61 60 52 38 37 37 36 39 38 37 37 36 33 26 26 23 24 29 29 31 29 28 32 34 32 32 29 27 26 23 20 17 15 15 14 14 15 13 14 12 11 10 7 6

GFSSGP_500_spd_045.txt.gz
Wind_Speed
8 6 4 2 7 11 10 8 7 13 16 15 9 10 8 7 8 9 10 8 8 7 10 9 7 6 7 9 9 11 11 11 12 12 13 14 13 12 10 8 6 5 4 3 3 3 3 3 3
9 6 5 5 3 4 14 10 8 13 15 11 10 9 7 9 11 10 10 10 7 8 11 10 8 7 8 9 9 10 11 11 11 12 12 13 12 11 10 8 6 6 6 4 4 4 2 4 5
2 2 7 6 2 2 8 15 11 14 14 10 8 9 10 12 9 8 8 9 8 8 10 11 10 9 10 11 11 11 11 11 11 12 13 11 11 11 10 8 8 9 10 10 8 4 3 5 7
1 6 9 6 6 4 5 12 10 19 16 14 11 9 9 9 8 8 8 8 9 10 10 11 10 11 12 13 13 12 12 12 13 12 13 12 12 12 12 10 11 14 16 15 14 11 11 12 13
2 5 4 1 2 2 7 16 19 16 15 12 12 11 9 9 9 8 8 7 10 10 10 11 12 13 14 14 14 14 14 15 15 14 13 14 15 15 13 13 14 15 17 20 20 19 18 16 15
5 5 5 2 5 6 13 16 16 15 13 12 10 10 9 11 11 10 7 8 8 10 11 11 13 14 14 14 13 14 15 15 15 15 15 16 16 14 13 15 14 16 16 19 23 22 19 17 19
10 6 3 1 10 10 11 15 14 15 13 13 8 9 9 12 14 10 7 7 9 8 9 9 12 12 12 13 13 15 16 15 16 15 16 16 16 13 15 15 16 16 15 15 17 19 19 19 17
10 9 6 5 8 8 11 17 14 14 14 9 10 9 7 12 18 12 7 7 8 9 8 9 9 9 10 13 15 16 17 17 17 16 16 16 15 15 15 14 16 15 14 14 15 16 14 14 15
10 12 10 10 6 9 12 14 8 9 9 12 12 11 10 12 17 15 10 10 9 9 9 9 9 8 11 15 16 17 18 17 18 17 15 15 15 14 12 13 14 13 13 14 14 14 13 14 14
12 13 14 11 9 17 16 15 12 8 9 8 10 9 14 13 13 17 12 11 10 11 11 10 10 11 14 16 18 19 20 20 18 14 13 14 13 10 8 11 12 11 12 12 13 14 14 13 13
13 15 15 14 15 12 20 15 19 16 14 12 10 11 15 16 14 14 13 10 12 12 13 13 12 15 16 19 20 22 21 18 15 14 14 13 12 10 8 10 11 10 10 10 11 12 13 13 13
15 17 13 13 15 14 13 20 16 18 19 14 12 13 15 18 19 15 17 14 13 13 14 15 15 17 18 21 21 21 19 17 15 13 11 11 11 9 9 10 10 10 10 10 10 9 11 12 14
18 19 17 6 12 12 9 23 22 18 17 16 14 13 15 15 19 15 15 15 14 14 16 17 19 20 20 22 17 19 17 17 15 12 12 12 10 10 10 8 8 8 9 12 11 10 10 10 13
23 20 19 15 12 10 9 15 17 15 15 15 13 13 16 19 20 18 17 15 14 15 17 18 22 23 21 19 17 19 18 16 14 13 13 11 11 11 11 9 8 8 9 10 11 12 10 10 11
27 22 21 18 14 14 8 17 17 13 12 14 12 11 15 19 19 20 21 19 17 17 19 20 24 24 22 18 17 19 18 15 14 13 12 12 12 12 13 12 11 10 12 13 12 13 12 12 11
30 25 23 25 19 14 13 15 13 14 11 12 13 14 17 20 19 17 17 18 17 19 21 21 24 24 22 16 17 18 19 17 15 13 13 14 14 13 12 14 13 9 12 13 13 13 12 11 11
37 26 23 27 23 17 16 17 14 12 13 13 12 15 16 19 21 18 18 18 20 20 20 22 25 25 23 17 16 15 16 17 17 14 14 14 15 14 13 15 14 12 14 13 13 12 13 11 11
34 27 25 25 26 22 22 20 19 19 18 16 16 16 18 22 24 25 19 18 18 20 20 22 27 26 23 17 16 14 15 15 16 15 15 13 14 14 13 15 16 17 17 13 13 15 14 12 11
32 33 32 31 29 29 26 27 23 22 23 18 18 17 17 18 20 25 27 22 18 20 21 21 23 25 23 19 18 17 16 15 15 14 14 14 15 16 16 16 16 16 15 15 14 15 14 13 12
32 34 34 34 34 32 30 31 26 25 26 26 23 21 18 15 16 17 26 27 21 21 23 23 24 26 25 25 23 21 18 15 14 15 13 15 14 16 17 16 17 15 15 15 16 16 13 12 12
37 34 35 39 40 38 36 39 35 31 32 28 26 25 23 19 16 16 20 29 27 23 22 25 25 28 27 26 24 20 17 14 14 15 14 14 13 13 15 15 14 15 14 13 14 14 14 12 9
41 36 36 40 43 43 43 41 41 35 35 32 28 23 21 19 18 16 17 22 31 27 26 28 28 30 28 26 24 22 21 20 18 17 15 13 12 12 13 13 12 11 12 12 13 12 13 13 11
39 41 41 43 48 47 49 48 43 40 41 32 23 24 26 24 23 19 20 24 33 33 29 29 30 31 26 26 26 24 22 18 14 15 16 14 12 12 12 11 11 10 10 8 8 8 10 11 11
46 49 48 48 52 62 51 53 48 48 46 32 26 28 30 29 27 26 21 22 28 36 35 32 30 30 27 24 26 25 23 17 16 16 17 16 13 12 12 12 13 13 13 11 8 7 7 9 10
53 55 53 54 59 60 51 58 46 48 43 39 33 29 31 31 30 27 24 21 25 30 32 34 33 30 27 26 26 25 21 19 18 16 15 15 16 13 12 11 11 11 10 9 8 9 9 7 7
56 59 60 59 59 57 55 64 47 45 40 41 38 35 37 34 30 27 25 25 26 31 35 33 34 32 29 28 26 26 22 21 19 16 16 17 16 14 13 11 8 9 8 6 4 6 7 7 7
59 63 58 60 59 60 63 62 53 43 47 44 44 43 36 35 32 30 28 26 27 32 36 35 33 35 33 31 29 27 24 22 19 19 18 18 16 14 13 10 7 5 6 5 4 3 4 5 6
61 58 66 65 63 65 67 64 58 45 43 46 49 44 39 36 33 32 29 30 28 30 38 40 38 36 36 35 33 30 28 26 24 20 21 21 19 16 15 13 9 7 5 6 5 3 3 4 3
61 64 67 66 66 65 69 66 55 46 39 49 49 44 41 35 34 33 28 28 29 31 36 37 37 37 37 37 35 33 30 27 25 23 24 23 20 18 17 14 12 10 8 7 6 4 4 3 2
51 69 69 69 70 68 67 67 52 45 42 49 50 46 44 38 38 35 31 32 33 30 31 34 35 35 35 35 36 34 33 31 28 26 26 25 24 21 19 17 15 11 11 9 7 7 6 4 4

GFSSGP_500_spd_048.txt.gz
Wind_Speed
10 9 5 6 9 11 10 6 6 11 13 11 10 7 8 7 8 8 8 7 8 6 7 9 8 8 9 10 12 13 14 14 14 14 15 14 12 11 9 7 6 3 2 2 2 2 2 4 4
7 8 0 4 2 5 12 10 9 16 15 9 11 7 6 8 8 8 9 9 7 6 7 9 8 8 9 11 13 13 13 12 13 13 13 12 11 9 9 7 6 4 4 4 4 3 4 5 5
4 6 7 7 2 5 14 15 13 15 15 11 10 8 9 11 8 8 5 11 9 6 7 9 9 10 10 12 12 12 12 12 13 12 12 12 10 8 8 8 7 6 6 3 1 6 6 6 2
4 5 3 6 4 2 7 17 16 19 16 13 12 11 11 10 7 8 8 10 11 8 7 8 9 9 11 11 11 11 10 11 12 11 11 11 10 9 10 9 11 13 12 11 13 14 13 12 14
4 3 3 3 2 1 5 11 16 21 20 20 15 13 11 9 8 8 6 10 13 10 9 9 8 9 11 11 10 10 10 11 12 12 12 13 12 11 10 12 14 16 16 17 18 17 16 14 17
6 7 4 3 2 3 10 15 18 18 20 18 13 10 10 10 10 9 7 10 11 11 10 10 9 10 10 10 10 11 11 12 12 13 14 14 13 11 12 13 14 16 17 19 20 18 19 18 19
8 7 3 3 5 8 11 14 14 17 13 16 14 11 11 12 14 10 7 10 12 10 9 10 10 11 12 11 11 13 14 13 14 14 14 14 13 13 13 12 13 16 17 17 18 17 16 17 16
8 9 6 4 9 10 11 13 15 17 15 10 11 10 11 15 16 11 9 10 11 11 9 11 11 11 12 13 13 14 16 16 16 16 14 13 12 13 12 13 13 15 16 15 15 14 13 13 12
9 11 10 8 8 9 8 12 9 13 12 11 13 14 13 15 18 15 12 12 11 12 10 11 11 12 13 14 15 15 16 17 18 16 13 12 13 11 11 11 12 13 14 13 14 13 14 13 12
11 13 15 14 12 11 8 11 10 6 10 12 13 11 14 16 17 18 15 15 13 13 12 12 11 16 16 16 17 17 17 18 18 15 14 12 10 8 9 10 11 10 12 13 14 14 13 13 14
14 13 15 15 14 9 15 15 11 11 10 9 8 10 14 16 15 16 15 14 14 14 13 13 14 16 15 17 18 19 20 17 16 15 14 10 10 8 7 8 9 11 9 11 13 14 13 13 14
17 17 17 16 16 19 17 13 14 15 14 12 11 12 14 17 18 17 17 15 14 14 14 15 17 17 17 18 19 19 17 17 15 14 12 10 8 8 8 8 8 8 8 10 12 12 13 13 15
18 18 19 17 10 13 14 19 20 16 14 14 13 13 14 16 19 15 18 17 16 15 17 17 20 19 19 20 19 16 16 15 14 12 11 11 9 9 9 6 8 9 9 9 10 11 12 13 15
21 19 19 14 8 13 10 14 21 18 14 17 15 15 16 17 18 18 18 18 17 17 19 20 22 21 21 19 17 15 15 14 13 12 12 12 10 10 8 7 7 9 10 10 10 10 10 13 14
21 20 18 18 13 13 9 12 17 14 15 16 17 15 16 18 19 21 21 20 18 19 21 22 24 24 21 15 16 15 14 14 13 11 12 13 11 11 10 8 6 9 9 10 9 10 10 12 13
26 21 19 20 17 16 13 15 14 13 14 16 17 17 18 23 20 18 19 18 18 20 21 24 25 24 21 17 17 14 14 14 13 13 14 14 14 12 12 12 10 11 10 10 12 11 10 11 12
30 24 21 21 21 20 15 15 13 14 14 16 17 18 20 21 18 17 18 18 20 21 23 26 27 25 20 20 13 14 13 14 13 14 14 14 15 16 15 14 13 14 13 12 13 12 12 12 11
29 27 24 23 26 22 21 18 18 17 17 18 17 18 19 23 21 19 19 20 20 22 24 26 28 26 21 19 16 15 14 14 13 14 13 14 17 18 17 17 15 14 12 12 13 12 12 13 11
27 31 30 29 30 30 25 23 22 19 18 17 18 19 20 25 25 23 22 21 21 22 22 24 26 25 22 19 18 18 16 14 12 12 12 13 17 17 19 19 17 15 14 12 11 11 12 13 11
32 31 33 36 36 34 30 28 27 24 22 22 18 18 19 18 21 25 25 23 21 23 22 23 26 25 24 23 22 20 18 15 14 13 12 14 17 18 18 19 17 15 14 12 11 11 12 12 10
35 35 36 40 41 37 37 37 33 30 30 24 23 23 19 20 20 24 27 26 23 24 23 24 26 27 26 24 22 20 18 16 16 14 13 14 16 17 17 18 17 16 14 13 11 11 11 11 9
40 36 38 41 42 40 41 39 38 36 32 29 28 25 22 20 17 18 25 31 26 25 27 28 28 30 27 25 22 22 22 21 18 17 15 14 15 15 14 14 14 14 12 11 11 10 9 8 8
43 42 40 44 48 47 50 47 40 40 38 35 32 27 23 23 19 19 22 27 35 31 29 30 30 31 28 25 24 25 23 19 16 17 16 15 14 14 14 13 12 11 11 10 8 9 8 6 7
48 47 45 46 50 57 51 52 49 40 42 40 36 32 27 26 22 23 24 27 34 37 33 34 32 32 30 27 25 25 24 20 18 18 17 16 14 14 13 13 12 11 10 9 8 8 7 8 9
55 53 51 52 56 55 50 56 55 49 40 42 41 32 30 32 31 28 25 22 25 33 33 34 34 33 30 27 26 25 23 19 20 19 17 16 15 13 14 13 12 10 11 11 10 8 6 7 8
61 59 59 57 55 54 54 61 56 53 51 46 47 39 36 35 34 33 29 28 27 31 36 34 35 34 33 29 27 27 24 21 19 19 19 18 16 14 13 12 10 9 8 7 8 7 8 7 6
62 66 57 57 46 53 43 57 58 53 52 50 50 45 39 36 37 34 31 29 27 31 36 37 36 37 35 33 31 30 26 23 21 20 20 18 17 16 15 13 10 8 7 5 5 6 6 6 5
60 58 61 64 59 64 50 54 48 58 48 55 56 52 44 40 39 37 35 31 28 30 35 42 41 38 38 36 35 33 29 27 26 22 19 19 19 18 16 15 12 8 7 6 4 5 6 5 5
45 62 59 51 64 64 61 55 53 57 49 49 53 51 48 45 42 38 34 31 31 31 36 40 43 43 42 39 37 35 31 30 29 24 23 20 19 19 17 16 13 11 9 8 8 7 7 7 6
51 54 64 58 61 70 52 35 40 57 53 44 51 50 49 49 44 41 37 35 33 31 31 38 44 43 41 40 39 37 34 33 31 27 24 23 22 21 20 18 16 14 12 12 11 10 9 8 8

GFSSGP_500_spd_051.txt.gz
Wind_Speed
11 11 9 9 9 11 12 8 9 13 16 15 11 6 7 3 5 6 4 7 10 2 5 7 9 9 10 11 12 13 14 15 14 14 13 12 10 8 6 5 4 3 1 2 2 2 3 2 2
10 7 5 6 7 13 14 11 10 15 13 11 12 9 7 6 6 5 5 7 5 3 5 7 9 9 9 11 13 12 12 13 13 12 11 10 10 8 8 7 6 6 6 6 6 6 5 4 4
11 5 5 6 2 4 16 14 11 18 17 9 12 9 7 8 7 5 2 7 8 3 4 7 8 9 9 11 12 12 11 11 11 10 10 9 9 9 10 8 7 8 6 4 2 4 5 3 7
5 4 5 6 6 1 11 16 16 18 16 13 12 10 9 8 5 5 4 6 8 5 5 8 10 9 10 10 10 10 10 11 11 10 8 8 10 10 9 9 12 12 11 10 11 12 12 12 16
7 3 5 3 5 4 6 18 20 22 21 16 13 11 9 7 5 6 4 6 8 6 6 10 11 10 10 10 10 10 10 10 10 9 8 11 10 9 9 12 14 16 15 16 17 16 15 15 15
5 5 2 1 1 4 3 12 22 20 22 21 15 11 9 8 8 7 4 7 6 7 6 10 12 11 10 9 8 9 9 10 9 10 10 11 9 8 10 13 13 18 19 18 20 17 16 18 18
9 8 3 3 12 6 7 10 10 17 18 19 15 13 10 10 10 8 7 8 8 7 6 9 11 11 10 8 9 9 10 11 9 11 11 10 7 8 11 13 14 17 18 19 17 16 16 16 16
9 9 5 1 3 6 8 11 17 13 6 21 7 13 10 11 12 9 8 8 8 8 6 8 10 11 10 8 9 10 11 12 12 11 11 9 8 9 11 13 13 15 16 17 16 16 14 12 11
10 10 7 6 8 9 12 11 11 11 7 5 12 11 11 11 15 12 10 9 9 9 8 8 9 11 10 10 11 10 13 13 13 12 10 10 10 8 10 12 12 13 15 14 15 15 16 14 9
12 12 10 9 13 11 10 10 11 2 5 8 9 8 11 13 17 15 13 13 12 11 9 9 9 12 12 12 13 12 13 13 13 11 9 8 8 7 8 10 11 12 13 13 13 14 10 14 15
15 15 17 15 15 11 12 9 8 4 7 7 6 9 11 15 16 15 14 16 15 12 11 11 12 15 14 14 13 13 14 13 12 11 9 6 6 5 7 8 8 10 11 10 13 16 7 16 12
18 16 16 17 17 14 10 21 17 13 19 10 11 12 11 14 16 16 16 14 14 14 14 13 16 16 16 15 15 16 15 13 12 12 10 7 5 6 6 7 8 9 8 8 12 14 15 14 13
18 17 16 15 16 16 15 17 15 12 10 10 9 10 11 13 15 15 17 16 15 15 16 17 18 18 19 19 19 14 14 13 11 10 9 7 5 8 7 7 7 8 8 7 11 12 13 13 14
20 18 16 17 16 13 15 12 15 16 15 12 11 11 13 14 16 15 17 16 16 16 16 20 19 21 21 20 18 14 13 12 9 9 8 6 6 6 5 6 5 7 8 8 9 11 11 12 13
18 17 17 17 15 12 10 9 15 14 15 12 12 13 14 14 16 19 19 18 17 17 18 21 22 22 20 19 15 13 12 11 9 10 8 7 6 5 7 7 9 9 8 8 9 10 10 12 12
22 19 17 16 16 13 12 14 11 14 14 13 14 15 16 17 20 19 18 18 17 18 19 22 23 23 19 17 15 13 12 12 10 9 9 8 8 7 7 10 11 10 10 8 9 10 9 11 12
23 22 18 18 16 16 14 17 28 12 14 12 13 16 17 20 19 17 17 17 17 19 20 23 24 22 18 15 15 13 13 13 12 11 11 9 8 11 12 12 14 13 11 10 8 10 9 11 10
19 23 22 20 19 20 20 21 15 15 13 7 13 16 18 18 20 20 18 17 15 18 21 25 24 21 19 15 16 14 14 12 12 13 12 10 8 10 13 16 16 13 13 14 6 8 8 9 8
25 22 27 20 24 25 26 21 16 15 18 10 12 16 17 20 23 23 21 18 15 18 21 24 24 21 18 17 17 16 16 12 12 12 12 11 10 11 14 16 16 14 13 12 10 9 9 9 8
28 25 27 27 27 30 31 25 24 20 22 18 16 16 18 21 22 21 22 18 16 19 21 23 24 23 19 19 17 17 16 15 12 13 13 13 12 12 15 16 16 15 14 13 12 9 10 10 9
32 30 29 33 34 34 33 35 28 25 30 24 18 17 16 18 22 22 21 19 19 21 22 23 26 25 22 19 18 18 17 16 15 14 14 15 13 12 15 14 14 14 12 11 11 10 9 8 8
34 32 33 38 41 40 33 34 32 36 22 30 24 21 17 20 22 23 25 24 21 22 25 25 27 27 24 20 19 19 20 18 17 15 15 16 14 13 13 13 11 10 10 9 8 7 6 6 4
37 38 39 38 41 45 40 38 29 36 31 30 33 24 19 18 21 19 22 26 28 27 26 27 28 29 27 23 20 21 21 19 17 16 15 14 15 13 12 12 9 8 8 8 8 6 6 5 4
43 43 43 43 41 51 45 41 38 33 36 23 36 28 23 20 21 20 18 22 26 32 29 29 29 29 28 25 22 21 22 19 18 18 16 14 13 12 9 9 7 5 5 6 6 7 8 7 5
48 48 46 47 49 47 43 52 45 34 33 33 36 34 27 26 24 25 21 18 23 27 31 29 30 30 30 27 24 22 22 19 19 19 18 17 15 13 11 11 8 8 7 7 6 6 7 6 6
54 53 49 46 41 46 45 51 52 43 33 46 42 39 34 33 30 27 27 25 21 24 30 31 29 32 30 30 27 26 25 21 19 19 20 18 16 14 13 11 9 9 7 5 5 7 7 5 5
47 52 53 38 30 38 35 46 47 44 51 51 28 39 36 37 37 30 30 25 27 25 26 33 31 33 33 32 31 29 28 24 21 20 20 19 17 17 16 13 10 8 7 5 3 2 4 4 4
55 51 45 53 43 41 34 36 36 44 52 56 54 45 42 32 41 35 33 29 31 27 26 30 36 35 35 36 34 32 30 27 25 22 20 19 20 19 18 16 13 9 7 5 4 4 3 4 4
50 57 56 40 44 45 38 36 31 28 37 51 52 54 47 44 47 38 35 33 34 32 28 27 34 38 38 36 36 34 32 29 28 25 22 21 20 21 19 18 14 11 8 6 6 6 6 5 6
47 35 44 56 53 46 46 40 26 26 29 38 48 49 51 49 44 40 37 36 37 36 31 26 28 38 39 39 39 37 36 34 31 27 24 23 22 24 22 21 18 14 11 10 9 9 8 8 9

GFSSGP_500_spd_054.txt.gz
Wind_Speed
10 10 8 7 8 10 7 6 6 7 9 12 10 6 4 4 3 2 2 2 6 5 6 8 10 12 14 14 13 14 14 13 13 11 10 9 8 5 5 4 3 3 3 3 2 2 1 1 2
9 6 6 6 10 13 14 11 9 9 11 11 11 5 4 5 4 1 0 3 3 2 5 7 10 12 13 13 13 13 12 12 12 12 10 10 8 7 8 10 9 8 7 5 3 3 2 3 3
9 4 7 5 1 4 16 17 14 9 16 11 7 6 7 5 4 3 1 3 4 5 4 7 10 12 13 13 12 12 10 10 10 10 10 10 10 13 13 11 13 11 8 4 3 4 2 3 4
5 5 5 5 4 4 5 8 11 13 19 12 12 10 6 6 5 4 2 2 4 5 4 7 9 12 13 12 10 10 9 8 8 9 10 10 13 14 15 16 16 16 16 15 14 15 14 6 12
8 3 5 3 8 3 4 12 19 15 19 15 12 9 8 6 4 4 1 1 3 6 5 7 9 12 13 11 10 8 8 8 9 10 9 12 14 15 16 16 18 19 16 16 16 16 14 17 15
8 5 4 2 2 6 8 9 18 19 22 19 16 11 8 8 6 4 2 2 3 5 7 7 9 12 12 10 9 9 8 8 10 9 10 11 13 14 16 16 19 20 20 18 17 17 18 19 18
9 8 6 5 4 5 11 0 6 16 22 22 13 13 10 7 7 5 3 4 3 6 7 7 9 13 12 11 9 8 8 10 10 9 9 10 12 13 15 15 17 18 19 18 16 15 16 17 17
10 7 4 6 6 5 9 10 4 11 16 19 9 12 10 7 8 7 5 4 3 6 7 6 9 13 13 11 9 9 9 10 10 9 8 10 11 13 13 13 15 16 15 17 17 13 12 12 12
10 10 9 4 3 7 9 10 5 9 4 2 7 10 8 8 8 9 7 6 5 6 8 7 8 11 12 11 9 9 11 10 10 9 8 8 9 12 12 11 13 13 13 15 18 17 10 12 10
12 11 8 7 8 12 8 6 8 5 3 7 7 7 8 9 9 11 10 8 7 7 9 8 9 10 12 12 11 10 10 9 9 8 7 7 8 10 9 10 11 13 13 12 13 14 8 18 16
15 13 16 10 3 6 12 13 15 13 10 8 11 7 6 8 9 11 10 9 8 8 9 9 10 10 12 11 12 11 11 9 7 8 1 6 6 7 9 8 9 14 9 7 16 10 10 21 16
17 16 15 16 16 14 13 18 15 17 18 5 8 9 6 7 9 10 9 8 8 9 9 8 13 16 18 15 12 11 9 8 7 7 6 5 5 4 6 7 7 8 10 11 14 11 13 11 12
19 17 15 15 10 15 14 18 9 4 3 1 5 7 5 7 8 9 10 10 8 10 11 11 13 12 14 15 16 12 10 8 7 6 3 11 5 5 5 6 6 6 8 10 11 14 13 14 12
16 19 16 15 17 14 15 13 18 11 13 12 9 5 7 6 8 8 10 10 10 11 12 13 15 13 12 16 14 12 10 8 7 6 5 6 5 5 5 5 5 7 5 6 10 11 15 14 13
16 14 16 14 16 14 12 10 11 15 16 12 7 7 8 5 8 11 11 11 12 12 12 13 14 18 17 15 13 11 10 7 5 5 5 5 6 3 5 6 10 2 7 7 7 9 10 11 12
21 16 14 14 14 15 12 15 9 19 16 7 10 9 8 8 11 10 10 10 12 13 13 15 16 20 19 15 12 10 9 7 7 7 7 5 6 8 7 7 8 8 9 10 8 9 8 9 9
23 20 17 13 14 17 15 18 19 13 10 11 11 9 9 10 11 10 11 11 13 14 15 16 17 17 17 15 11 11 8 7 8 8 9 6 8 10 5 5 8 9 10 11 9 7 8 8 8
20 21 20 16 13 17 19 22 15 21 11 10 4 9 9 9 10 12 13 13 13 14 16 18 18 17 15 13 13 10 9 7 8 9 8 9 8 10 7 10 8 9 10 11 8 7 7 5 7
25 20 17 19 12 20 23 26 25 17 23 10 5 6 8 9 12 15 16 17 14 12 16 19 19 16 15 15 13 12 10 8 9 9 10 11 11 13 7 10 9 12 7 9 9 7 7 8 8
27 26 25 17 16 22 28 27 31 18 27 20 11 8 8 7 9 10 16 17 15 15 17 20 22 18 17 14 14 13 12 9 9 9 9 10 13 13 12 12 10 10 9 8 9 9 9 9 10
31 27 25 23 21 21 27 37 37 26 28 36 17 13 13 9 7 10 15 16 18 16 18 20 24 21 17 16 14 15 13 11 10 10 11 10 13 12 13 12 12 10 8 8 8 8 8 8 8
33 31 29 33 31 26 32 30 33 30 24 28 26 17 16 12 8 8 14 17 18 18 19 20 25 25 20 16 16 16 15 13 11 10 9 11 12 13 13 12 11 9 8 7 6 5 5 5 5
36 33 35 34 37 36 31 34 29 33 38 32 23 23 18 13 10 7 14 18 20 21 20 22 22 25 23 19 18 17 16 15 13 12 11 11 11 10 11 10 9 8 7 6 4 5 3 3 4
40 38 38 41 40 44 41 40 34 30 36 35 25 26 24 16 14 12 13 16 17 19 22 22 23 24 25 22 19 18 18 17 16 14 12 12 11 10 8 6 6 6 6 6 6 5 4 4 4
43 44 42 43 45 43 35 42 40 27 33 34 32 32 23 17 17 20 17 12 11 14 21 22 23 24 25 24 21 20 20 18 18 17 15 13 11 10 9 7 6 8 9 9 8 5 4 3 4
48 48 45 47 44 39 36 42 38 35 29 26 32 29 31 24 24 22 21 21 14 10 12 23 23 25 25 24 23 23 22 21 20 18 16 14 12 10 11 8 7 9 9 8 8 5 4 2 4
45 41 43 42 30 37 27 31 38 35 37 28 32 37 37 38 30 29 27 22 21 18 14 14 27 27 27 27 26 24 23 22 21 19 19 17 15 14 12 10 8 7 6 5 5 4 3 1 1
51 47 34 42 43 40 29 29 26 27 37 45 48 46 48 38 47 36 34 25 22 22 21 16 19 29 29 30 28 27 26 24 23 21 20 20 18 16 14 12 9 8 6 4 2 3 2 1 1
49 53 52 48 41 50 37 33 25 21 28 29 41 52 53 45 23 35 42 27 25 25 26 20 17 27 30 30 29 29 28 26 25 23 21 20 20 18 17 15 12 10 9 6 4 2 2 3 4
46 48 48 50 48 53 42 42 26 20 24 33 33 39 49 49 51 45 33 35 27 25 25 24 19 19 30 31 33 31 30 30 27 25 23 23 22 21 21 19 17 15 12 9 6 5 4 4 6

GFSSGP_500_spd_057.txt.gz
Wind_Speed
7 6 7 7 7 8 6 6 6 5 5 5 6 3 3 1 3 4 6 1 5 8 8 10 12 13 14 15 15 14 13 12 12 10 9 8 7 6 5 4 3 2 2 2 3 2 2 4 5
10 5 4 5 7 6 11 8 8 12 4 8 2 1 1 1 3 4 5 5 4 6 8 9 11 12 14 14 14 14 13 13 12 11 10 10 9 9 9 9 6 4 1 3 4 3 4 6 6
9 8 2 5 2 7 14 13 22 14 12 5 5 2 4 2 4 2 4 3 4 6 7 8 11 14 14 13 13 13 12 12 11 12 11 12 13 15 16 14 12 10 9 8 7 5 6 7 7
5 2 5 4 4 5 7 8 12 18 9 10 7 5 6 4 4 0 3 5 4 6 7 8 11 13 14 13 11 12 11 11 12 12 13 16 17 18 18 16 15 16 17 16 15 10 9 12 11
7 5 3 3 5 2 2 6 6 5 3 15 12 10 10 5 3 1 2 4 3 7 8 8 11 13 14 13 10 11 12 12 13 13 15 17 18 18 19 18 18 18 17 17 13 17 22 15 15
10 7 3 8 9 6 8 5 10 9 7 10 8 11 8 7 4 2 3 5 5 7 9 9 11 13 14 12 11 11 11 13 13 13 15 16 15 17 17 17 20 19 18 16 17 18 20 19 17
8 7 4 7 7 4 6 10 6 5 9 14 11 11 9 6 5 2 2 5 6 8 9 11 11 12 13 11 11 10 12 12 13 12 13 13 13 14 15 16 19 18 18 17 17 17 16 16 16
12 10 6 7 3 5 7 4 2 4 12 9 14 13 10 7 5 1 4 6 7 8 10 11 12 12 13 12 11 10 11 12 12 11 11 12 12 12 13 15 18 18 18 17 14 15 14 13 11
13 15 10 7 1 5 6 8 2 5 2 15 11 13 9 5 3 1 2 5 7 7 10 11 13 12 13 13 12 11 12 13 11 10 10 10 11 11 13 16 14 15 17 17 18 11 12 11 12
14 13 12 10 1 7 7 6 3 3 4 6 9 9 6 2 4 1 2 4 7 8 9 11 13 13 14 14 14 13 13 12 10 9 8 8 9 9 11 12 16 14 16 15 14 15 14 14 13
17 14 14 11 1 6 12 18 6 2 1 11 11 9 5 1 3 1 1 5 6 9 6 9 12 12 14 13 14 13 13 10 9 8 6 8 7 7 8 8 12 13 12 12 10 12 13 16 17
20 17 16 13 18 9 9 22 5 8 10 7 9 9 4 2 1 2 2 5 6 7 6 8 12 13 13 13 12 15 12 9 6 4 6 5 7 7 6 7 11 12 13 17 12 13 14 17 18
21 19 17 13 11 10 10 15 16 7 6 5 5 6 5 2 3 3 3 5 5 7 7 8 13 16 14 13 12 10 11 8 6 6 6 4 8 6 6 5 6 10 10 13 13 15 16 17 19
17 23 19 15 14 15 14 13 9 9 7 7 2 3 5 4 5 5 5 4 4 6 8 10 10 14 14 14 9 8 10 5 7 4 6 3 11 6 4 4 5 6 9 12 13 13 15 16 15
16 15 21 15 14 13 13 13 11 8 9 11 7 3 6 5 5 6 7 5 5 7 9 11 11 14 17 14 14 8 8 5 4 5 6 7 6 6 1 6 7 6 7 10 13 12 12 13 10
21 15 10 13 13 11 11 15 6 6 4 12 7 7 8 7 8 6 5 5 4 8 8 11 13 14 15 13 8 7 4 3 6 6 8 7 6 7 4 5 8 6 8 8 11 11 11 10 13
21 16 12 12 13 15 13 15 9 14 13 13 9 6 7 9 5 6 8 7 5 9 11 13 13 15 13 12 10 9 6 4 6 8 10 9 9 10 3 5 7 8 9 8 8 9 10 10 11
20 22 20 15 15 16 14 19 17 18 15 17 11 9 11 10 7 7 9 8 7 9 11 14 17 15 12 10 8 9 8 6 6 5 8 9 7 8 9 7 8 6 9 11 8 8 8 9 10
23 28 30 22 4 10 14 16 12 16 15 21 16 13 11 9 9 12 11 9 9 10 12 14 14 13 11 10 9 9 10 8 7 8 9 8 11 12 10 6 8 6 9 10 8 10 8 7 9
27 26 26 27 15 9 19 24 21 21 17 29 30 16 10 6 7 6 9 10 11 12 15 17 18 15 13 13 11 11 11 11 8 9 10 10 12 8 12 10 8 7 9 10 10 10 10 8 9
31 28 23 27 24 26 25 32 24 21 25 19 25 14 15 8 8 9 9 11 12 13 16 18 20 17 15 13 14 13 13 11 8 8 10 11 12 13 11 11 10 8 9 10 9 10 9 10 8
33 31 27 26 34 32 26 22 29 29 26 26 27 24 15 13 6 5 8 11 11 15 17 20 23 19 16 14 15 14 13 12 10 10 12 13 13 13 11 10 10 10 9 9 7 7 7 9 7
32 35 34 31 35 37 34 30 33 31 30 21 29 38 19 18 12 7 8 9 15 15 16 20 21 21 16 17 16 15 14 14 12 12 14 14 13 13 12 10 8 7 8 7 7 6 7 7 9
39 36 38 40 40 42 36 40 32 28 25 21 20 16 15 16 18 14 8 7 10 16 16 18 19 22 21 17 17 17 17 16 14 13 15 15 13 12 11 9 7 6 6 5 7 7 7 7 9
42 43 42 43 43 40 34 40 33 32 21 22 14 13 16 24 12 18 13 8 6 8 16 16 18 19 23 21 18 18 18 17 16 14 13 12 11 9 8 7 8 8 8 7 7 6 6 8 8
45 43 46 44 40 38 36 42 30 26 30 23 19 10 20 24 25 20 19 13 13 11 13 18 17 19 22 23 21 20 19 19 18 17 16 14 11 10 9 7 8 9 8 6 7 6 6 7 7
41 48 41 46 44 44 39 35 29 20 24 29 27 25 22 22 25 29 29 18 16 13 11 13 18 20 22 25 25 23 22 21 20 19 18 16 14 12 10 8 7 8 6 5 4 4 4 5 5
45 39 44 45 48 50 47 39 25 0 9 20 24 28 27 34 30 33 33 27 22 18 17 13 13 19 25 25 26 25 25 25 24 21 19 18 16 13 12 11 7 7 6 4 2 2 2 2 3
42 51 50 49 51 49 47 43 33 17 7 18 16 21 22 25 35 38 43 28 29 27 23 17 13 13 21 24 26 26 24 25 26 23 21 19 17 15 13 13 12 9 7 6 3 1 1 1 2
48 46 51 54 51 54 51 44 29 23 10 16 18 25 23 25 30 38 21 43 34 25 23 21 16 13 16 27 28 29 28 28 25 25 24 22 21 20 18 17 15 14 11 8 5 3 3 3 4

GFSSGP_500_spd_060.txt.gz
Wind_Speed
6 6 3 2 5 6 6 7 2 12 8 4 4 5 5 7 10 9 10 9 9 11 9 9 10 12 12 12 12 12 12 12 11 10 8 7 6 6 6 4 3 3 3 3 3 4 4 5 6
7 6 4 2 4 6 7 14 17 9 3 10 6 2 6 5 6 6 8 8 7 9 10 9 11 12 13 13 14 14 13 12 11 10 9 9 8 7 6 4 2 3 4 5 6 6 6 8 8
8 3 4 4 3 4 9 12 8 3 8 6 5 5 6 3 5 5 7 7 7 9 10 10 12 13 13 13 14 14 14 13 13 12 10 11 12 12 11 10 10 8 6 6 6 7 8 9 9
6 3 7 5 4 4 7 13 11 15 6 6 7 5 5 5 5 5 4 7 7 8 10 10 13 14 13 13 13 13 14 13 13 12 13 14 16 16 15 14 15 17 16 13 6 10 11 12 12
6 8 4 0 6 7 11 3 2 9 6 10 11 4 4 3 3 4 3 6 7 8 10 11 13 13 13 14 14 14 14 14 12 14 14 18 18 19 16 16 19 18 16 18 19 17 16 16 16
7 5 4 5 7 6 7 3 4 3 6 3 7 2 1 1 2 1 5 5 7 9 11 12 13 13 13 12 15 13 13 14 13 13 15 17 17 18 19 17 17 19 19 20 21 20 19 18 17
9 7 4 3 5 4 6 8 4 5 3 5 8 7 5 2 1 1 5 5 7 9 11 12 13 13 13 12 13 13 13 13 13 13 15 16 15 15 19 19 18 17 19 18 18 20 18 16 16
12 12 7 6 2 1 7 6 6 5 7 2 4 8 6 3 2 2 4 6 7 9 10 10 13 13 14 13 13 13 14 13 12 13 14 13 13 12 15 17 18 18 17 16 14 14 15 14 14
13 15 10 9 1 5 8 9 6 3 8 8 15 10 7 4 2 4 5 5 6 9 10 12 14 14 13 13 12 13 14 14 11 12 13 10 13 14 14 14 15 17 20 18 11 9 11 12 15
11 14 13 12 6 2 4 7 1 4 5 5 8 10 8 5 4 5 6 5 6 8 11 12 13 15 13 14 12 11 13 12 11 12 12 10 12 11 12 14 14 14 15 16 14 11 11 12 13
15 18 16 16 5 4 12 12 8 3 5 7 9 9 8 5 10 7 6 4 7 9 9 13 12 13 14 15 13 12 11 9 10 8 9 8 10 11 9 12 12 11 16 13 9 15 14 13 16
21 20 19 18 15 3 7 18 12 7 7 11 11 6 4 5 10 10 7 5 7 8 8 13 12 13 14 15 11 11 11 7 6 6 8 5 10 11 9 12 13 13 12 15 11 15 15 16 19
20 25 25 21 19 11 7 9 5 5 9 11 13 9 6 6 11 11 9 7 6 8 10 13 14 15 16 16 11 9 7 5 5 6 7 7 9 11 9 10 11 10 12 12 15 16 19 18 18
20 25 26 28 19 11 5 6 3 3 8 4 7 7 8 6 10 12 12 9 6 7 8 14 15 15 16 18 12 6 6 3 5 4 8 10 8 11 10 10 9 9 11 13 14 14 15 18 18
24 17 19 27 15 9 6 7 3 1 6 10 9 7 10 6 8 12 14 10 6 8 8 14 15 14 17 16 14 9 5 4 3 2 7 8 8 10 10 10 11 8 11 12 13 12 13 17 17
22 12 8 17 13 8 10 4 3 3 8 12 10 9 11 8 9 13 14 10 9 9 10 13 14 14 14 13 15 11 5 5 3 4 7 7 7 9 10 10 10 10 9 12 12 11 13 14 14
22 16 12 9 9 8 13 9 4 8 8 15 14 10 12 9 10 13 16 11 9 11 10 13 16 16 15 12 14 11 9 4 6 7 8 8 8 6 8 10 12 14 11 11 12 12 12 12 12
20 23 24 20 8 10 15 12 8 14 10 6 13 9 9 11 13 15 18 14 12 11 11 13 17 16 14 11 13 11 11 9 8 7 8 9 7 7 10 9 11 13 11 12 13 12 13 12 13
25 27 24 23 18 14 15 13 12 9 3 7 15 12 10 12 11 13 17 13 13 11 11 13 18 18 14 12 12 11 12 11 9 6 9 10 8 9 9 10 9 11 10 11 12 11 13 9 11
27 26 20 25 23 23 19 14 13 11 12 7 16 10 15 13 10 10 15 14 14 15 14 15 16 17 15 13 11 10 10 12 10 6 8 10 11 10 11 11 9 11 11 12 12 11 12 10 9
30 26 23 28 29 27 24 21 20 18 15 10 14 16 19 15 19 16 15 14 15 16 14 16 18 17 14 14 9 9 9 9 9 6 9 10 9 9 12 12 11 11 10 11 11 12 11 11 10
33 28 27 31 31 28 26 20 20 16 17 15 11 16 23 16 10 17 21 17 15 15 17 18 21 20 15 16 13 11 10 10 10 8 8 9 11 9 11 10 10 10 8 9 9 9 9 10 11
29 31 29 31 36 35 28 30 26 26 23 12 10 12 27 19 13 11 19 19 19 17 16 20 22 21 19 14 14 12 8 11 12 11 11 10 11 9 10 10 9 8 8 7 8 6 10 10 12
35 35 34 34 38 38 34 34 32 28 17 14 12 11 6 23 11 11 18 22 19 18 16 19 22 23 20 18 16 15 13 12 13 13 13 13 11 10 9 8 9 7 7 6 7 7 8 9 10
38 39 38 39 41 38 37 38 31 25 22 13 9 8 10 19 8 13 12 16 16 16 16 17 21 25 24 20 18 16 14 12 13 14 15 13 11 9 6 7 8 8 8 7 6 7 8 8 12
41 41 40 39 37 42 38 41 29 25 24 14 10 13 10 19 18 19 15 17 19 20 21 18 20 22 26 24 21 20 17 14 13 15 15 15 14 10 7 6 9 8 7 7 7 7 7 8 10
41 40 40 40 42 44 38 39 35 36 31 29 25 20 17 14 21 22 23 21 21 22 25 25 23 23 24 28 26 23 23 19 16 15 15 15 13 11 9 8 8 6 6 6 5 5 5 5 7
41 39 42 42 43 47 39 32 31 31 29 21 23 18 15 18 20 18 28 21 19 18 23 30 30 26 25 26 29 27 25 25 23 18 16 14 13 12 11 9 8 7 5 4 4 3 3 3 4
47 49 46 45 45 44 41 32 32 32 28 29 30 25 17 8 12 16 24 25 24 20 19 21 26 31 28 25 27 30 28 25 25 22 20 17 14 13 13 12 9 8 7 4 1 1 1 1 2
48 52 55 55 48 48 43 37 42 36 32 31 34 35 30 25 21 16 18 24 29 29 24 23 22 22 29 29 29 29 30 29 27 26 23 20 19 17 16 15 14 11 9 7 5 2 2 3 4

GFSSGP_500_spd_063.txt.gz
Wind_Speed
6 6 4 5 5 5 7 10 8 12 12 9 7 6 8 6 12 10 9 9 8 10 9 9 11 13 12 11 11 12 12 10 9 9 9 9 8 7 6 4 3 2 2 4 4 4 5 6 7
5 4 5 4 1 5 9 14 13 16 12 11 7 6 8 9 9 10 9 9 8 8 10 9 12 13 13 12 13 12 11 11 10 11 11 10 10 10 8 6 4 1 2 5 6 6 7 7 7
5 1 2 2 3 5 6 12 13 12 9 10 9 8 6 8 7 8 10 8 8 7 10 10 13 14 13 12 12 12 12 10 12 11 12 13 14 14 12 13 13 11 8 7 8 10 9 9 9
4 2 4 4 6 12 3 10 11 7 11 12 13 9 7 6 6 7 9 7 9 7 9 10 12 14 14 13 12 12 12 12 12 13 15 17 17 16 15 15 19 17 13 9 12 12 12 12 15
3 6 5 2 6 9 13 3 6 13 15 12 12 9 9 7 6 8 8 7 8 8 9 10 11 13 14 13 12 12 13 12 13 15 18 19 18 18 18 18 19 21 24 22 20 17 17 17 17
7 7 6 6 9 7 11 15 8 7 5 9 7 7 8 5 7 8 7 7 7 7 11 9 10 12 13 13 12 12 13 12 15 17 18 17 19 19 18 18 20 22 22 23 23 21 20 20 18
10 9 3 3 7 6 10 7 4 8 6 1 5 7 6 7 6 4 7 8 8 6 10 10 11 13 13 12 11 12 13 13 15 16 16 16 16 18 17 16 19 20 20 19 19 21 20 19 17
11 11 7 5 7 6 10 8 7 4 6 6 2 7 7 8 6 3 7 7 7 6 9 8 10 12 13 12 11 11 14 13 14 15 16 15 15 15 17 16 14 16 18 16 15 15 18 17 16
13 14 10 4 1 7 12 13 7 2 6 10 8 8 6 6 6 5 8 8 7 6 8 9 9 12 13 13 12 12 13 13 12 14 15 14 16 17 13 15 16 15 16 12 12 13 14 14 16
14 14 13 8 8 6 5 8 7 3 2 7 7 11 7 6 6 7 8 9 7 7 8 8 7 11 13 14 13 12 12 12 12 13 12 12 14 12 13 14 13 14 15 15 11 11 12 11 15
18 20 14 12 10 2 3 8 7 7 7 9 11 12 8 6 7 9 5 7 8 8 6 10 8 11 12 14 14 12 12 11 10 10 10 10 13 12 13 13 10 17 15 11 13 14 13 13 15
21 24 18 12 12 6 10 12 5 4 7 9 13 12 8 6 8 12 9 8 8 8 7 10 11 11 13 13 13 11 10 11 9 8 8 7 12 12 12 13 16 14 16 16 13 14 16 15 15
23 28 22 16 15 4 9 11 2 9 8 13 15 13 11 7 8 11 8 8 6 9 10 12 12 12 13 14 16 11 10 10 10 10 6 5 11 13 11 11 14 15 17 18 16 16 15 15 15
24 25 23 19 14 16 16 7 7 2 7 9 14 11 11 10 13 14 12 10 9 11 9 12 13 13 13 14 14 14 11 10 8 9 7 8 10 11 9 9 13 14 13 15 17 16 16 16 15
25 14 7 16 19 18 17 15 11 6 11 8 11 8 9 10 15 19 17 16 14 12 11 14 15 15 14 13 12 14 11 8 8 6 5 7 9 12 10 11 12 12 13 13 15 17 16 15 16
25 18 8 6 14 18 14 15 13 6 9 12 12 8 9 10 14 17 17 15 14 14 15 16 15 15 16 11 12 14 11 8 9 7 5 5 11 12 11 12 10 14 11 12 13 14 14 16 17
24 22 18 12 17 20 17 15 12 14 14 13 13 12 9 9 12 19 18 17 16 15 17 16 17 16 15 13 11 11 12 10 9 9 7 9 11 10 11 11 9 13 12 13 12 11 13 13 15
19 21 25 22 18 25 25 20 20 16 6 11 12 10 8 11 14 21 19 16 16 14 15 16 17 17 13 12 9 10 12 11 10 9 9 11 11 12 12 10 10 10 11 11 13 11 11 13 14
23 24 28 26 25 21 24 18 17 15 9 6 6 13 7 11 14 21 19 18 16 15 16 18 19 20 16 14 12 9 8 12 8 10 10 10 10 12 13 11 8 10 10 10 10 9 12 11 10
25 24 25 29 29 23 22 25 25 22 17 10 14 13 9 11 13 20 19 17 20 20 20 21 22 23 18 15 12 9 8 10 9 10 10 11 9 9 11 12 11 11 11 10 9 8 10 11 10
28 21 25 30 32 31 25 23 23 20 17 14 13 12 11 13 17 20 21 19 19 21 22 24 24 22 18 16 14 10 11 8 11 12 12 12 10 10 10 13 11 11 11 11 10 10 9 11 10
30 21 26 31 33 32 29 27 24 24 22 16 15 12 14 17 12 16 21 21 20 22 24 26 25 22 20 17 17 15 11 10 11 12 13 12 11 12 8 10 12 11 11 12 10 9 10 9 11
25 31 33 38 35 33 32 30 26 25 19 17 10 7 14 25 18 18 21 21 24 21 23 27 27 24 21 21 19 16 12 11 11 13 14 13 12 11 10 8 8 9 7 8 10 9 11 8 10
32 33 37 40 40 38 33 30 28 22 13 13 12 9 11 22 21 20 24 22 20 21 21 25 26 23 21 20 18 16 15 14 13 14 14 13 12 11 9 7 6 8 7 9 10 11 11 9 10
35 35 34 38 41 40 33 31 24 21 19 16 9 13 17 34 20 19 20 19 18 18 18 23 26 23 21 20 19 17 17 15 14 13 14 14 14 12 9 7 7 7 8 7 9 9 12 11 11
35 36 36 36 38 41 37 35 28 25 23 22 19 17 14 32 25 17 18 20 21 22 22 21 24 27 24 22 22 21 18 17 15 15 15 13 13 13 11 9 8 10 9 9 9 8 10 12 12
35 36 35 39 40 43 39 38 35 32 30 28 22 19 15 24 25 22 19 18 21 24 26 24 25 28 28 24 23 23 20 18 18 18 16 13 11 11 12 12 12 10 9 9 9 8 7 9 12
39 39 40 39 42 42 37 42 43 41 39 33 28 21 23 28 24 23 23 17 17 24 28 25 25 26 29 30 26 24 24 22 21 20 18 16 15 13 11 12 12 11 9 7 7 7 6 6 9
43 42 44 42 42 41 38 40 43 46 44 40 34 30 29 29 20 22 31 28 25 23 23 25 26 25 24 27 30 27 25 25 23 20 18 16 15 13 14 13 11 10 11 8 5 5 4 4 4
44 44 45 46 48 46 43 42 44 39 42 41 34 31 35 32 28 27 23 30 28 29 27 23 23 28 28 28 30 31 30 28 27 24 22 19 17 16 16 14 13 12 11 9 7 4 3 3 3

GFSSGP_500_spd_066.txt.gz
Wind_Speed
5 4 4 3 3 3 6 10 10 6 11 13 9 8 10 12 13 10 12 10 11 12 12 11 12 13 15 14 13 12 11 10 8 7 7 7 7 6 5 2 1 3 3 3 5 6 6 7 7
3 3 0 1 4 5 9 14 13 12 16 16 13 10 9 12 13 9 13 11 12 10 13 12 12 15 16 15 15 13 11 10 11 11 11 12 12 11 8 4 2 5 7 6 7 6 7 7 8
6 4 1 2 3 6 13 14 17 15 18 17 13 12 12 11 12 9 11 13 12 9 13 13 14 16 16 16 15 14 12 12 12 12 15 18 17 16 16 15 11 10 11 10 10 9 9 8 8
5 4 4 2 5 9 12 13 9 21 22 10 14 14 11 9 10 9 9 12 13 10 12 11 12 14 15 15 13 14 14 14 14 16 20 21 20 19 17 16 14 14 15 14 14 12 12 12 9
2 2 1 6 12 7 18 9 3 11 11 17 16 13 13 8 8 7 9 10 12 11 12 11 11 12 13 13 12 13 13 14 13 16 21 21 20 20 20 22 23 22 20 19 17 16 14 14 20
5 4 3 3 11 14 19 12 11 13 10 13 15 14 13 10 8 7 8 10 10 10 13 11 11 11 12 13 12 12 13 14 12 15 19 19 19 19 20 23 24 23 23 21 19 18 17 16 18
7 6 4 5 11 10 9 9 13 10 7 7 12 14 13 12 8 6 7 11 11 9 10 10 10 11 11 12 11 11 12 14 13 15 16 17 19 19 18 20 23 22 22 20 18 17 16 16 14
9 7 6 2 10 10 6 8 7 11 8 9 9 10 12 14 10 6 7 9 10 10 9 9 9 10 10 11 11 10 12 13 14 15 17 18 17 17 18 17 17 19 18 18 15 14 15 15 14
12 10 6 2 2 8 10 11 7 7 5 9 7 11 11 12 12 8 8 9 9 10 10 10 8 9 10 12 12 10 12 12 13 16 16 18 18 15 17 17 16 16 15 15 15 14 14 14 14
14 12 8 5 2 3 1 7 5 1 7 7 11 11 10 11 11 9 7 9 9 10 11 10 8 7 9 10 12 11 11 12 12 13 14 14 15 16 15 14 12 17 15 13 14 12 13 13 15
17 13 9 9 4 1 6 8 8 5 5 6 6 8 7 10 14 11 7 5 7 9 9 10 8 7 9 10 11 11 11 12 11 11 11 12 17 15 15 12 15 14 16 14 13 13 13 13 15
22 16 12 9 7 3 10 11 11 8 5 6 9 10 7 8 16 14 11 10 10 10 11 9 9 8 10 11 12 11 10 12 10 10 11 9 13 16 17 16 14 15 17 14 13 15 16 14 16
25 22 15 12 9 5 6 8 10 9 9 11 10 9 7 6 13 12 11 9 11 11 11 11 9 9 11 12 12 11 10 13 11 11 12 10 11 15 16 15 15 16 15 17 16 16 15 16 16
27 18 17 15 14 15 12 12 7 6 9 16 16 13 10 7 11 15 15 13 12 12 9 10 11 12 12 14 13 13 12 12 11 11 13 10 9 11 12 14 15 16 16 16 17 16 15 15 16
18 9 11 19 19 15 12 16 19 9 9 9 22 14 10 6 9 14 15 14 14 13 11 11 12 13 14 15 13 12 11 11 10 13 13 11 12 11 9 13 14 15 15 15 17 17 16 15 15
21 13 10 10 17 18 14 18 16 14 11 8 16 12 9 7 7 10 12 12 11 14 14 14 13 13 14 13 12 11 10 8 11 12 12 10 9 11 10 11 12 11 15 15 16 17 17 17 15
27 22 17 14 14 17 19 24 22 18 12 15 12 12 12 8 5 11 12 15 14 15 17 17 14 15 15 14 12 10 12 10 11 11 11 11 9 11 10 11 11 12 11 13 15 16 18 17 15
25 26 24 20 16 17 24 22 24 17 7 13 11 13 12 11 12 15 15 16 16 17 17 18 18 18 15 13 11 10 14 14 13 12 11 8 10 10 11 12 12 11 12 11 13 14 15 16 15
24 24 27 25 23 18 26 25 23 20 19 11 21 17 12 12 16 17 16 19 19 20 20 19 20 19 17 17 13 11 15 14 12 12 11 12 11 10 10 9 10 11 10 10 10 12 12 13 15
25 27 26 29 29 24 22 24 24 22 19 18 17 18 15 11 14 19 16 19 20 22 22 21 23 21 16 15 12 11 13 15 14 12 13 13 13 10 9 8 9 8 8 8 10 9 10 9 12
27 25 27 30 31 29 24 23 25 22 12 12 18 19 17 10 17 21 19 20 21 20 19 22 25 23 17 14 14 13 15 16 17 14 13 10 12 13 10 10 11 10 8 8 9 10 10 10 9
29 26 27 30 31 31 29 25 21 23 22 20 15 16 12 12 17 20 20 20 21 21 19 22 25 23 19 17 16 15 13 14 16 15 14 11 10 13 12 10 11 11 9 9 9 9 11 11 9
27 31 30 31 31 28 30 28 24 19 20 19 15 16 13 10 18 23 24 23 24 22 22 22 25 22 20 18 17 14 12 15 15 16 15 15 13 13 13 12 10 10 9 8 9 9 10 12 12
31 32 34 33 32 29 28 26 26 21 24 25 20 15 17 18 16 18 23 22 25 24 23 24 25 24 23 21 17 15 14 15 16 18 17 17 16 14 13 13 10 9 9 10 9 9 10 11 12
33 31 34 34 36 33 28 25 22 26 24 26 24 23 21 22 22 15 20 21 23 21 19 23 26 23 23 23 20 18 16 16 17 17 17 18 17 16 14 12 11 10 10 11 10 10 11 12 12
33 33 33 35 38 36 34 31 25 25 26 27 22 19 18 25 28 18 21 20 22 24 23 24 26 26 23 23 22 20 18 17 16 18 18 16 16 14 13 13 12 12 12 12 11 10 12 15 15
34 34 35 37 41 40 41 38 32 29 27 24 25 17 18 17 30 22 19 21 23 25 25 23 27 28 27 25 23 22 20 18 19 20 19 17 16 14 13 14 13 12 11 12 11 12 12 14 16
37 36 37 38 40 41 41 37 39 33 31 28 25 22 22 18 32 29 26 24 24 28 28 26 28 30 32 30 26 25 23 21 20 19 18 18 16 15 13 14 13 12 12 11 11 11 12 13 14
40 41 41 40 40 40 39 38 38 36 34 32 30 27 25 21 32 32 27 30 28 31 31 30 28 30 32 31 28 27 26 25 23 20 18 16 15 14 15 16 15 12 10 11 11 10 10 11 13
41 41 41 43 42 42 42 40 38 36 36 34 35 33 31 28 35 31 33 32 34 31 32 32 33 31 33 36 35 30 29 27 25 22 20 17 17 15 15 15 14 14 12 10 9 9 9 9 10

GFSSGP_500_spd_069.txt.gz
Wind_Speed
1 0 1 2 2 3 4 6 7 5 5 11 7 10 13 13 13 12 14 12 14 17 16 15 13 15 15 14 14 13 13 12 11 10 9 7 5 3 1 3 5 6 6 6 5 4 4 4 5
4 4 3 3 4 6 8 9 7 6 14 13 12 12 13 13 13 13 15 14 14 16 16 14 14 16 16 14 13 13 13 13 12 11 9 8 8 6 3 4 7 8 8 8 7 6 4 2 4
6 4 4 5 6 10 13 7 5 16 19 20 15 15 13 12 13 14 13 18 15 15 16 14 14 15 16 15 14 14 13 12 11 13 13 13 12 11 9 9 11 12 12 10 9 6 4 2 11
5 6 9 10 9 12 15 15 4 22 22 21 18 17 15 13 13 12 13 19 17 16 16 14 14 14 16 16 14 13 13 13 15 17 17 17 16 14 14 15 17 17 16 15 11 9 10 13 14
3 4 6 8 11 15 22 9 11 21 16 18 17 14 10 11 12 12 12 16 18 17 16 15 13 14 15 16 14 12 12 15 16 18 19 19 19 21 21 20 19 18 18 15 14 16 19 21 21
4 2 7 9 11 12 15 14 18 20 18 21 17 16 13 10 12 12 13 15 16 16 16 14 13 14 14 15 14 12 12 14 15 19 21 20 19 21 23 23 22 20 19 17 17 17 18 18 17
5 3 3 7 12 9 9 11 18 20 13 16 16 16 15 13 11 11 14 14 16 14 13 12 11 13 13 13 13 13 12 13 15 17 20 19 18 19 21 22 22 20 19 18 17 16 15 14 14
7 5 3 5 13 15 11 12 14 16 16 13 15 15 14 15 14 11 14 15 16 14 11 10 10 12 12 12 13 13 14 14 15 17 18 19 19 17 17 18 19 18 16 16 14 14 14 13 13
8 5 4 3 5 7 9 10 6 14 15 13 16 12 8 13 15 12 15 16 16 15 12 10 8 10 11 12 11 13 13 14 14 16 18 18 17 18 15 14 15 16 14 15 14 15 13 14 13
9 6 4 2 2 4 2 4 12 10 13 4 13 12 9 12 13 13 13 16 15 14 13 11 8 9 9 12 11 12 12 13 13 13 14 17 16 16 14 12 14 14 13 14 13 14 14 16 15
12 9 8 5 4 4 2 2 5 4 8 5 9 10 6 10 13 14 12 13 15 13 13 12 10 11 9 11 11 11 11 13 13 13 13 15 15 12 15 13 15 15 13 13 14 15 16 16 16
15 13 10 7 6 4 2 5 9 7 7 9 10 9 7 7 11 15 14 14 15 14 13 11 10 11 11 11 11 11 9 12 13 12 12 13 15 14 16 15 16 16 14 14 15 16 16 16 17
19 17 12 9 7 6 2 2 6 6 7 7 11 10 7 5 9 11 12 12 13 13 12 13 10 10 11 10 11 10 10 12 12 12 14 13 13 13 16 17 16 16 16 16 15 16 17 18 17
22 18 16 13 11 10 12 6 5 10 11 9 12 12 8 6 11 13 14 13 12 12 12 13 12 11 11 11 10 11 10 11 11 12 13 13 12 13 14 16 17 17 16 15 15 16 17 17 16
21 16 21 20 17 19 15 14 12 8 8 13 18 13 8 7 12 11 12 13 13 13 13 13 13 13 12 12 9 9 11 11 11 12 11 12 13 12 14 14 15 16 16 15 15 16 17 17 16
15 13 17 18 23 22 21 16 14 15 12 13 20 17 12 11 10 9 11 13 15 15 15 14 13 14 14 12 10 9 8 11 9 12 12 12 12 12 14 12 13 14 15 15 14 15 16 16 16
23 18 16 14 17 24 23 19 18 15 16 11 17 19 13 10 9 10 13 16 16 16 16 15 15 15 16 13 11 9 10 12 12 12 12 12 10 10 11 11 12 12 14 15 16 15 14 14 14
29 27 22 19 15 19 23 23 20 17 15 12 15 14 12 12 11 14 17 17 16 16 15 15 16 18 15 15 11 10 12 15 14 13 12 10 10 10 10 10 10 12 13 14 15 15 13 12 14
30 30 29 26 23 17 19 21 20 13 16 17 16 16 12 12 12 11 16 17 15 15 16 16 17 20 18 17 11 10 13 15 14 14 11 12 9 9 9 9 11 10 11 12 12 14 14 13 13
28 28 30 31 29 24 19 20 21 18 14 11 20 21 17 12 13 11 13 17 17 17 18 18 18 20 18 16 12 12 14 15 16 14 12 11 10 7 7 9 10 11 11 11 10 11 13 13 12
27 28 31 33 33 32 23 22 22 20 18 13 17 13 17 14 16 15 15 20 19 19 19 21 21 21 18 16 15 15 16 16 17 15 13 11 10 8 7 9 10 10 11 11 11 10 10 11 9
30 29 31 32 31 36 29 24 21 19 15 13 17 21 22 15 15 19 17 21 21 22 23 23 23 22 18 17 18 17 15 15 16 16 15 13 11 10 10 9 8 8 9 10 11 11 10 11 12
32 31 32 32 32 31 33 26 24 22 22 18 18 19 19 18 16 19 17 21 22 20 23 25 24 22 19 18 17 16 16 17 18 19 16 16 13 12 10 10 9 9 8 8 10 12 11 11 11
33 35 35 33 31 29 30 30 27 25 27 26 26 21 19 18 18 20 19 20 22 22 22 24 26 25 21 19 17 17 17 19 18 20 17 16 15 14 13 11 10 9 9 8 7 11 12 11 11
34 35 36 35 34 29 26 30 33 29 26 29 27 24 22 18 21 22 20 19 21 20 20 22 26 27 25 21 18 18 18 18 19 18 18 17 16 14 13 11 10 9 9 9 9 11 12 13 11
35 34 33 36 34 28 26 28 33 33 29 25 27 23 20 16 23 24 22 23 22 23 22 24 24 27 26 24 21 19 18 18 19 19 19 18 17 16 14 12 9 10 10 10 9 10 12 13 14
37 37 36 35 33 29 32 30 30 32 30 27 26 23 19 20 22 28 25 23 24 25 25 26 26 28 28 27 25 22 21 20 21 21 20 19 17 16 15 14 13 11 11 12 10 11 12 14 16
38 38 39 38 37 35 34 34 33 31 29 28 27 25 21 20 23 26 24 24 25 27 30 30 32 32 32 29 28 27 27 24 22 20 21 20 19 16 15 15 14 13 12 11 12 11 13 14 16
38 40 40 40 39 39 36 36 33 32 32 30 29 26 26 22 24 27 21 26 28 30 32 34 34 35 36 34 30 28 28 26 24 23 21 21 20 18 17 16 15 12 10 9 9 11 12 14 16
39 40 41 42 42 42 39 37 34 32 30 32 33 30 28 26 24 28 31 25 29 31 33 35 37 37 39 39 36 32 32 29 27 25 23 22 21 20 17 18 17 15 13 10 7 8 10 12 14

GFSSGP_500_spd_072.txt.gz
Wind_Speed
5 5 3 1 2 2 3 6 6 2 11 11 7 7 9 12 12 15 14 17 17 17 16 16 14 14 14 14 14 14 12 11 9 7 6 4 2 2 4 6 7 7 5 5 3 3 3 3 7
5 5 5 4 4 6 7 14 9 8 17 13 11 10 10 12 13 15 16 16 16 17 16 16 15 15 15 15 15 14 13 11 9 9 8 6 6 5 3 6 10 9 8 7 4 3 3 5 8
8 7 7 6 8 7 10 12 9 15 20 17 13 12 11 13 14 13 18 19 16 17 16 16 16 16 15 16 14 14 12 10 12 12 11 11 9 7 6 9 13 13 11 8 5 0 5 5 17
11 10 9 10 9 10 16 8 12 18 23 19 16 12 12 14 14 13 17 19 17 17 16 16 16 16 15 14 14 12 12 13 13 14 15 15 14 12 11 12 15 14 12 10 9 14 17 20 26
9 9 6 8 8 11 17 6 15 23 20 21 20 15 13 14 14 13 17 19 17 16 15 15 15 14 13 12 12 11 12 14 14 16 17 18 19 17 16 17 15 15 14 15 16 20 22 22 20
9 11 7 7 8 11 12 11 26 21 23 23 20 13 14 15 15 13 17 18 16 15 15 13 14 13 12 11 11 11 12 13 16 17 18 19 21 21 20 18 17 16 16 17 18 19 19 17 15
7 7 6 10 9 9 13 14 23 17 24 20 18 14 15 16 14 14 17 18 17 14 15 13 13 12 11 10 10 11 12 12 14 18 18 17 19 21 20 20 18 17 17 17 17 17 15 13 13
5 7 6 8 8 10 13 13 20 18 18 18 17 14 15 17 15 14 17 19 18 15 14 13 12 12 11 10 11 12 12 13 15 16 19 16 16 17 18 18 19 17 16 16 15 14 14 11 11
5 6 5 5 6 5 7 11 16 18 18 19 16 10 10 18 17 15 18 20 19 16 15 13 11 11 11 10 11 12 12 13 15 13 14 17 16 15 14 14 15 15 14 15 15 14 14 12 12
8 7 6 3 4 3 2 10 15 11 11 19 15 12 10 12 16 14 18 19 19 17 15 13 12 11 10 11 11 11 12 13 12 11 12 13 14 16 14 12 13 14 14 15 15 15 15 14 14
12 9 7 5 4 3 2 3 6 10 8 18 13 11 12 11 14 13 13 15 17 17 15 13 12 11 10 10 11 11 11 12 12 11 11 12 12 15 16 15 13 13 13 13 15 16 16 16 14
14 12 9 7 5 4 0 1 3 9 10 16 12 7 12 12 16 15 16 17 16 17 15 13 11 11 12 10 10 10 10 10 11 10 11 12 14 13 13 13 14 15 14 13 15 17 16 16 13
18 15 10 9 7 6 3 4 5 6 4 4 10 11 8 10 12 12 12 14 16 16 16 13 11 11 11 10 8 8 10 9 10 10 10 11 13 14 14 13 14 15 15 14 14 16 16 16 15
21 16 13 12 11 9 8 7 3 7 9 6 8 10 9 9 12 15 15 15 15 16 15 15 13 12 12 10 7 8 10 10 11 11 11 10 12 13 14 13 13 15 15 15 15 16 17 16 15
23 19 19 17 14 13 15 11 7 7 6 12 11 12 10 9 10 12 14 15 15 15 16 14 15 13 13 11 8 8 8 9 10 11 11 10 10 12 14 13 10 12 14 14 15 14 16 17 18
23 19 20 22 20 19 17 12 14 10 8 7 18 15 13 11 9 12 13 14 16 15 16 16 16 15 13 12 9 8 7 10 8 11 12 13 11 9 11 13 11 11 12 13 14 14 15 17 17
20 18 19 21 24 24 22 19 16 12 11 10 15 18 14 10 9 11 14 15 14 15 17 18 17 15 14 12 11 9 9 9 8 9 11 14 13 10 9 11 12 12 11 12 13 14 15 15 16
25 24 21 20 19 23 27 25 20 14 10 9 11 23 16 14 11 14 16 15 14 15 15 16 16 16 15 12 12 9 10 12 10 8 9 12 14 9 9 9 10 11 12 12 12 11 13 13 13
33 30 29 24 19 18 22 24 23 16 13 12 13 15 18 14 11 11 16 17 15 16 16 17 18 17 16 14 10 8 11 13 13 10 10 10 11 10 7 8 9 10 9 11 12 11 10 11 13
30 31 33 29 25 22 19 19 21 18 13 12 13 21 16 13 12 11 17 17 18 17 18 18 17 19 15 12 9 8 12 15 13 12 9 10 10 8 8 6 8 10 9 9 11 12 11 11 12
31 30 36 34 33 27 21 17 20 18 16 13 12 19 19 17 15 14 19 20 17 18 20 20 19 19 17 14 12 12 15 16 15 13 13 10 10 8 6 8 8 9 10 9 10 10 11 11 12
32 32 35 35 31 27 27 12 21 21 18 18 17 16 17 16 16 13 18 20 19 19 20 21 21 20 19 18 16 14 14 13 15 14 12 12 9 8 7 8 9 9 9 9 9 10 10 9 11
37 33 33 35 31 37 31 24 22 23 22 22 26 21 20 17 14 12 17 22 23 20 19 22 22 22 21 19 17 15 15 15 15 16 13 12 11 10 8 8 9 8 9 9 9 9 10 10 9
42 36 33 31 29 30 30 30 26 28 25 26 20 21 18 13 15 16 16 22 23 20 19 20 22 24 23 20 18 16 15 16 16 17 16 15 14 12 11 9 8 8 6 6 8 9 10 11 9
39 39 35 33 33 24 26 34 37 32 30 28 24 19 16 14 14 17 16 18 22 20 19 20 22 25 25 21 18 17 17 17 16 17 18 17 15 13 13 12 8 7 7 6 8 10 10 10 10
39 38 28 31 31 26 28 30 42 34 32 31 30 24 19 17 17 17 20 21 23 23 21 22 24 27 27 25 21 18 19 18 18 18 18 16 16 14 13 12 12 9 9 8 8 9 10 11 11
42 41 31 28 29 24 30 37 32 38 36 30 25 25 23 20 22 23 23 25 25 25 23 23 25 27 30 28 23 21 21 20 20 20 20 18 17 16 15 13 12 12 10 10 10 8 10 12 12
42 40 40 36 26 27 29 34 39 38 40 34 27 23 25 24 21 27 27 26 27 28 28 28 29 29 33 33 29 26 25 22 20 20 21 21 19 17 17 16 12 11 12 11 9 10 11 13 13
42 43 42 32 27 25 28 36 37 35 35 36 31 27 26 23 24 26 30 30 27 31 31 31 31 32 34 32 30 28 27 26 24 23 22 22 22 20 18 17 16 13 13 12 11 11 11 13 14
42 45 43 40 38 35 28 37 34 36 35 34 31 30 29 29 25 30 36 28 27 30 32 31 32 32 34 35 35 32 32 29 26 26 25 24 24 22 19 19 18 16 15 14 14 13 12 12 14

GFSSGP_500_spd_075.txt.gz
Wind_Speed
4 5 3 4 3 2 1 5 4 4 11 9 6 7 7 8 11 15 14 16 14 14 14 15 14 14 13 13 13 11 9 8 7 6 4 2 3 5 7 8 8 6 3 3 2 1 3 4 6
6 7 6 5 5 7 7 13 13 11 16 12 7 8 8 10 13 15 15 15 14 14 14 15 14 14 13 13 13 12 11 10 8 8 6 5 4 5 8 9 8 6 3 1 1 2 4 5 7
10 10 8 6 5 4 9 13 6 16 19 16 12 8 10 11 12 13 18 17 13 15 14 15 14 14 14 14 13 11 10 11 11 11 10 8 6 6 8 9 9 6 3 3 5 7 8 4 21
13 10 9 8 6 8 13 10 7 24 20 16 13 9 11 11 12 14 17 18 14 15 15 15 14 14 14 13 12 13 13 13 13 14 14 13 13 13 11 11 10 7 7 7 14 18 21 25 20
12 8 6 5 6 12 15 10 23 24 18 19 15 11 12 12 11 13 17 18 15 14 14 14 13 13 12 11 11 13 13 13 14 16 17 17 17 18 18 15 13 12 12 15 18 23 21 20 17
12 8 4 5 5 11 15 10 22 23 22 20 15 14 12 13 12 12 17 17 14 14 13 12 12 11 10 10 11 12 13 13 14 17 18 19 19 19 19 17 15 15 15 14 16 17 17 16 14
10 6 4 6 7 12 9 11 24 19 24 21 13 14 12 13 12 13 16 18 14 12 12 11 10 11 10 10 10 11 11 12 13 15 17 18 19 19 20 19 18 16 15 14 14 13 13 12 12
8 6 6 6 9 8 12 13 12 21 19 18 15 12 14 14 13 13 15 18 17 12 10 10 9 9 10 10 10 10 11 12 13 13 14 15 16 16 17 18 18 17 15 14 13 12 12 10 10
6 5 6 4 3 5 10 13 15 19 17 16 14 12 12 16 15 14 16 16 18 14 11 10 9 8 8 9 10 10 11 12 11 12 12 12 13 14 15 16 16 16 15 13 13 13 12 11 11
10 7 6 4 2 6 7 13 12 16 18 17 14 10 12 14 16 15 16 17 17 15 12 11 10 8 7 8 9 9 10 11 11 11 10 12 12 11 11 13 16 16 16 14 14 13 12 12 12
13 10 7 5 2 4 8 11 8 12 17 17 13 12 13 11 12 14 15 15 17 17 14 11 11 10 9 7 8 8 9 10 12 11 10 13 11 13 11 11 13 14 15 15 15 14 14 12 13
13 12 10 6 5 2 5 3 7 12 13 15 13 10 13 12 14 14 14 15 15 17 16 13 11 11 9 8 6 7 8 8 9 12 13 12 10 10 12 11 13 14 14 15 13 13 14 12 12
16 14 12 10 9 6 5 3 5 4 7 13 14 9 7 12 13 14 13 15 15 16 16 14 11 11 10 8 5 5 6 7 7 9 12 11 12 12 12 12 13 14 13 14 13 13 14 13 13
20 15 14 13 11 8 7 8 6 4 3 6 10 10 9 11 13 14 15 15 15 15 15 14 13 12 10 9 7 5 6 6 6 7 9 11 11 12 12 12 13 14 13 13 14 14 15 14 14
18 16 16 15 14 11 11 9 7 7 5 9 11 10 10 11 13 12 13 14 14 14 14 14 14 13 10 9 8 6 6 8 7 5 6 8 9 10 10 12 12 12 11 12 13 14 16 15 15
21 19 15 19 17 14 13 9 11 8 5 10 13 13 12 10 10 10 12 13 14 15 15 14 13 13 12 9 8 8 6 8 7 4 5 6 8 10 10 8 11 10 9 11 12 13 14 16 15
23 20 14 24 21 20 12 14 15 9 6 9 8 19 17 12 9 11 13 13 14 14 15 14 13 13 12 10 8 7 6 8 8 6 6 6 6 9 10 8 9 9 9 9 11 12 13 14 15
17 19 17 20 23 23 22 20 21 17 10 8 7 18 20 15 12 14 14 15 13 15 14 13 13 13 13 11 8 6 6 8 8 7 5 6 5 6 8 9 8 8 8 9 10 10 12 11 14
18 22 21 22 20 16 20 15 24 21 16 11 10 10 25 18 14 13 15 16 15 15 14 15 15 16 15 11 8 6 7 9 9 8 7 8 7 6 7 8 8 8 7 5 7 8 9 9 10
29 25 23 27 17 16 21 24 23 24 20 13 10 14 16 17 13 12 14 16 17 15 15 17 17 17 14 10 9 8 8 11 9 8 6 8 7 7 7 8 8 8 9 7 6 7 7 8 9
30 25 24 31 23 21 17 14 13 22 22 16 12 13 19 18 17 15 16 17 17 16 17 18 20 18 14 12 11 10 9 9 12 10 9 8 6 6 5 7 8 7 7 8 8 8 7 8 9
30 32 26 28 28 27 22 10 23 17 23 23 14 16 14 16 16 15 18 19 20 20 17 18 19 18 17 14 13 9 9 10 11 10 9 9 6 5 4 6 6 7 7 7 8 9 8 7 9
24 31 34 30 28 16 24 20 21 23 29 22 20 16 14 21 15 14 16 19 20 20 18 18 19 18 18 16 14 10 11 12 15 11 10 9 7 6 6 7 7 8 8 7 7 9 8 6 9
36 34 37 33 24 28 24 22 23 16 24 26 23 18 18 15 14 13 12 19 20 20 20 19 19 20 19 17 16 14 12 12 13 12 12 9 7 7 7 9 9 8 8 7 7 8 8 8 7
39 33 30 26 25 22 24 23 32 35 26 25 28 24 23 18 13 15 17 16 20 19 19 20 19 20 20 20 18 16 14 14 13 15 14 10 9 8 8 8 8 10 9 8 8 8 8 8 8
39 29 25 20 22 21 19 24 45 45 28 29 27 19 15 16 13 12 15 18 21 22 20 20 20 21 23 23 21 18 16 16 15 15 15 14 12 12 10 9 7 8 10 8 7 8 8 10 9
33 39 29 18 20 21 27 40 46 44 42 29 30 25 19 18 20 19 17 17 21 23 23 23 23 22 24 26 23 20 19 18 16 15 16 16 13 9 12 11 9 8 8 10 10 10 10 10 10
42 34 34 29 25 28 30 34 36 41 36 36 32 32 31 29 25 31 24 20 21 24 26 26 26 26 26 28 27 23 22 20 18 16 16 18 16 15 11 13 11 10 10 9 10 11 12 11 10
44 40 36 28 23 26 24 32 46 37 33 36 37 32 30 29 29 26 24 25 24 26 29 29 29 29 29 28 30 27 24 23 22 19 18 18 19 18 17 16 14 11 12 11 11 12 12 12 12
48 32 35 35 34 26 32 35 42 36 32 32 38 37 34 30 28 26 27 25 28 26 25 26 31 30 30 30 31 31 29 26 24 22 20 19 20 20 19 17 15 14 13 12 12 12 13 12 13

GFSSGP_500_spd_078.txt.gz
Wind_Speed
4 4 3 1 3 2 3 3 6 6 13 7 5 6 5 6 13 13 11 13 14 16 14 14 14 14 13 12 12 12 10 8 6 4 1 3 4 5 4 3 2 1 1 4 5 4 1 1 3
7 6 5 4 6 4 5 12 15 6 14 9 5 6 4 10 14 12 12 14 15 15 13 14 15 13 14 14 13 13 11 10 9 7 5 3 2 5 6 4 2 2 4 5 6 4 1 2 4
9 10 6 6 7 10 9 12 10 16 14 11 9 7 7 10 11 12 14 14 15 14 13 13 14 14 14 13 13 12 12 12 11 10 8 6 5 6 8 6 5 6 7 9 8 4 3 8 20
14 8 8 7 7 8 14 15 11 14 13 11 10 8 9 9 11 11 13 15 14 13 13 13 13 13 13 13 13 13 13 14 15 17 16 14 12 12 13 11 11 12 13 16 17 22 24 20 18
10 8 7 5 6 10 17 14 13 23 17 13 10 10 10 12 11 10 13 14 14 13 12 12 13 12 12 12 12 12 13 16 18 19 20 21 21 20 19 16 15 15 17 19 19 23 20 18 16
8 6 6 5 8 13 10 15 29 21 18 14 9 10 10 11 12 10 13 13 13 12 11 11 10 10 11 11 11 12 13 15 17 19 20 21 21 20 20 18 16 16 17 16 17 17 16 15 14
7 6 4 8 8 14 12 18 17 18 19 14 11 10 9 11 12 10 13 13 13 10 10 10 9 10 10 12 11 12 13 14 15 16 18 19 21 21 20 19 17 15 14 14 14 14 14 14 14
4 5 7 5 8 11 11 14 12 15 17 14 9 9 10 10 12 12 10 12 13 11 10 9 8 10 11 11 11 13 12 14 13 13 15 16 18 19 19 18 17 16 15 14 15 15 15 15 16
6 3 4 3 4 11 10 8 12 19 14 12 8 8 7 11 12 13 12 13 12 10 9 10 8 10 11 11 11 12 12 11 12 12 12 12 13 16 18 17 17 16 16 16 16 16 15 14 12
8 10 5 1 5 9 9 9 12 15 14 14 10 6 7 9 11 14 14 13 14 13 10 9 8 9 9 10 10 10 10 11 11 13 9 7 10 14 18 17 15 15 16 16 18 15 14 14 13
2 7 7 2 3 5 11 9 10 19 12 11 10 7 8 7 8 11 13 12 11 11 11 10 8 10 8 8 7 8 9 12 10 10 11 9 11 14 15 14 12 14 14 18 16 16 17 13 14
12 8 8 6 3 4 7 6 11 7 10 10 8 5 9 9 9 10 12 11 10 10 10 8 9 10 7 6 6 5 9 10 12 12 10 8 11 14 5 12 9 13 11 17 13 15 14 13 16
14 14 9 8 7 5 5 5 11 15 16 15 10 7 7 9 9 11 12 12 10 10 9 10 8 7 6 6 5 4 7 8 12 11 12 13 12 13 14 11 9 15 14 17 18 15 14 13 16
15 10 12 9 9 7 5 6 3 4 10 13 13 10 8 10 8 10 10 12 11 10 9 9 10 8 7 4 6 5 5 7 10 12 12 11 12 14 14 12 9 11 13 13 20 15 14 14 16
20 14 15 13 12 10 6 3 4 4 6 10 12 10 9 9 9 10 10 12 12 11 9 9 9 8 7 4 5 8 6 6 9 9 8 9 8 12 14 12 11 11 13 15 16 13 16 15 16
21 19 13 14 12 14 12 9 11 7 4 8 11 12 10 9 10 9 8 10 11 12 10 9 9 8 8 4 4 5 7 5 6 7 5 8 9 8 14 11 10 11 13 13 11 15 15 16 15
22 18 11 20 18 18 20 17 16 13 10 7 7 10 14 11 10 11 10 10 11 11 11 9 9 9 9 7 4 4 7 6 6 5 9 6 7 7 8 9 8 9 12 11 12 14 15 14 16
17 17 13 19 13 19 26 18 23 14 7 6 11 7 17 14 12 12 13 12 12 11 12 11 10 10 10 8 4 4 5 9 3 4 6 5 7 7 5 7 6 7 10 10 10 11 12 13 14
17 15 21 19 22 13 26 29 35 13 13 8 8 9 9 18 16 16 13 13 14 14 13 13 12 12 11 8 5 4 5 6 7 5 5 6 4 6 4 5 6 7 8 9 9 8 10 12 13
27 21 18 19 23 22 22 22 22 15 14 12 13 13 14 19 18 15 14 13 15 15 14 14 12 12 11 8 6 5 5 8 6 6 4 4 3 4 5 5 5 6 9 9 8 8 9 9 11
34 29 21 27 26 11 19 22 14 16 14 20 17 15 15 15 20 17 14 14 16 16 15 14 14 12 12 10 8 3 2 6 4 5 2 3 3 2 1 4 5 6 6 8 8 7 8 9 9
33 30 18 27 16 23 17 10 23 17 17 14 22 15 15 14 15 17 14 12 16 17 16 15 14 13 13 11 8 5 8 10 9 5 4 4 1 2 2 4 6 6 6 7 9 7 7 9 9
28 32 28 28 30 23 25 19 23 27 26 19 19 16 15 13 15 15 13 10 13 17 18 17 15 14 14 12 9 7 9 9 6 8 5 3 3 1 1 2 4 4 6 6 7 8 7 7 7
32 30 38 18 23 25 20 18 31 36 31 21 19 25 22 17 16 15 14 13 14 15 16 17 16 17 17 15 12 10 9 9 3 8 7 4 5 3 3 3 4 4 3 5 6 6 8 8 10
37 30 30 34 24 21 18 17 32 41 40 28 8 22 17 12 16 14 15 11 12 15 16 18 18 18 18 17 14 13 11 11 11 10 10 7 5 6 4 5 5 3 3 4 5 6 6 9 9
37 31 25 26 24 17 20 24 39 47 41 21 17 24 22 18 22 25 21 17 17 17 18 19 19 20 20 20 17 14 14 14 13 12 9 8 7 11 9 8 7 6 5 4 4 6 7 8 9
27 36 30 18 12 14 23 35 45 48 41 35 28 24 32 22 30 31 26 21 22 16 18 20 21 22 23 22 20 16 15 15 14 10 7 13 16 13 8 7 7 6 6 7 6 7 7 9 9
40 32 34 34 35 26 28 34 44 44 37 36 37 28 25 27 32 30 31 19 23 20 19 20 23 22 24 25 23 19 16 16 15 14 14 16 16 12 16 11 7 6 5 7 7 6 8 8 10
46 34 48 36 24 20 25 41 41 48 44 36 34 34 32 31 30 30 35 30 23 22 20 24 26 26 25 25 25 24 20 17 15 15 15 17 18 13 14 3 11 9 7 6 6 6 8 10 11
45 38 36 41 34 29 36 40 43 47 36 30 34 32 36 35 34 30 34 16 27 24 23 32 29 29 28 26 26 26 25 22 18 16 16 16 19 14 13 12 14 13 7 6 6 7 8 9 11

GFSSGP_500_spd_084.txt.gz
Wind_Speed
4 4 3 4 5 6 17 14 13 11 12 21 11 11 10 12 15 14 15 19 19 20 17 18 18 17 16 14 12 9 7 5 2 1 1 0 2 4 4 5 6 5 4 4 4 7 9 11 11
4 4 3 2 7 3 12 13 12 12 13 12 10 13 13 16 13 18 17 18 19 19 17 18 18 18 18 17 15 13 11 8 3 2 3 3 4 5 6 6 5 5 4 4 3 8 9 10 16
7 3 3 6 17 7 15 7 6 10 8 12 15 13 16 15 12 19 18 17 18 19 18 17 18 19 19 18 18 17 15 12 9 6 7 7 10 10 9 9 9 10 7 7 11 11 19 18 17
5 0 8 11 14 6 4 9 9 16 10 8 13 14 14 14 14 18 17 18 17 18 17 16 17 18 20 19 19 19 18 18 17 16 15 13 16 15 15 14 15 18 19 21 24 22 19 17 17
4 2 6 6 4 10 2 2 13 11 11 10 13 13 13 11 14 16 16 16 17 18 16 15 16 19 19 19 19 20 19 20 21 22 21 20 19 18 17 17 18 19 20 21 22 19 17 17 17
5 5 4 5 8 5 4 16 14 16 12 12 10 13 12 13 14 13 15 15 14 17 16 15 15 18 18 18 18 19 18 18 20 21 19 19 19 18 18 18 18 19 18 17 17 15 16 17 16
4 4 7 4 7 10 26 22 16 14 11 10 11 15 10 11 13 13 14 14 14 14 16 15 15 17 17 15 16 17 18 17 19 20 18 18 18 18 18 19 18 18 18 17 16 15 13 12 13
4 5 4 5 8 13 17 20 18 15 11 11 10 13 12 8 12 13 12 12 12 13 14 14 14 14 15 13 13 15 15 15 16 18 17 14 16 18 18 19 19 19 19 19 18 18 15 15 12
8 6 4 5 9 12 10 20 18 13 9 10 12 13 11 11 8 11 11 12 11 12 12 12 12 14 14 14 13 14 15 14 15 16 17 14 14 17 18 20 19 21 20 19 18 16 17 20 20
10 5 4 6 6 14 9 8 15 10 7 5 10 12 11 12 9 9 12 11 10 10 11 9 11 14 15 15 14 15 16 16 16 14 16 16 14 16 19 21 20 20 22 22 19 15 15 17 20
10 10 4 6 5 10 10 8 7 16 9 5 6 11 11 10 10 6 9 7 10 7 11 9 10 13 13 13 13 16 14 14 15 14 13 13 13 17 17 20 20 18 20 18 19 18 17 18 22
17 16 8 5 11 12 9 7 10 8 11 5 7 7 8 11 14 11 10 5 8 7 7 8 11 11 12 12 10 14 15 13 12 13 14 12 13 14 17 19 21 20 21 20 19 21 20 19 23
16 13 12 11 14 9 9 4 3 8 10 6 7 7 8 6 10 13 10 8 5 6 8 5 8 9 11 11 9 12 14 16 17 14 17 13 12 13 16 22 19 18 20 20 20 22 22 22 21
24 16 9 10 9 10 6 5 4 8 13 10 5 6 7 12 10 12 9 9 8 7 8 6 7 9 9 11 10 10 15 16 14 14 15 15 13 14 17 19 19 17 18 20 21 21 20 20 22
25 18 16 9 6 10 8 8 2 7 8 8 4 2 3 6 8 11 12 10 9 8 7 6 7 7 8 11 11 10 13 14 14 15 15 15 15 15 16 20 20 18 18 18 19 20 19 18 20
16 22 13 18 14 11 10 9 8 11 10 7 6 4 3 3 12 12 12 10 10 9 8 7 5 7 6 10 9 6 10 13 14 14 14 16 14 15 16 17 16 15 16 17 18 19 18 17 17
31 19 18 15 17 15 12 11 5 14 10 9 7 5 5 5 5 11 8 7 8 6 6 5 5 5 4 8 8 6 9 11 10 13 13 13 16 15 14 18 15 16 16 15 15 16 15 16 15
19 20 20 19 16 17 11 9 6 6 10 6 6 2 3 4 1 4 9 10 8 9 8 7 7 6 6 6 7 7 8 10 9 10 11 12 14 14 12 14 16 14 16 16 15 16 13 13 13
20 23 23 20 18 15 14 12 8 10 12 4 4 7 5 7 7 3 6 8 10 9 10 10 8 7 7 6 5 7 8 7 10 9 7 8 10 12 14 12 14 14 14 14 14 15 14 13 13
24 27 26 25 25 20 17 14 14 11 16 10 11 13 9 6 2 9 6 8 11 9 9 9 8 9 8 7 6 6 8 7 9 9 7 6 6 9 9 11 13 12 12 12 12 12 14 11 12
30 31 35 32 23 22 19 23 11 12 15 15 15 14 10 11 7 8 8 11 10 11 13 11 9 8 10 10 7 6 7 7 9 8 7 5 5 4 7 8 10 12 11 10 12 10 12 12 12
33 27 32 29 23 18 21 20 21 17 15 17 13 17 17 15 14 19 14 11 11 11 13 14 12 11 10 11 7 5 9 9 7 5 7 7 6 4 5 6 8 8 10 9 8 9 10 12 13
30 32 31 28 26 24 19 16 16 18 14 15 15 15 20 16 13 14 14 15 16 13 15 15 14 13 12 11 10 8 11 12 10 8 7 7 6 4 4 5 8 9 10 9 8 8 9 10 12
35 38 34 32 26 26 15 16 17 13 10 12 14 12 16 20 17 22 23 22 14 14 13 16 14 15 15 14 13 11 9 12 13 11 8 6 6 5 5 5 5 6 8 10 8 9 9 9 8
43 44 38 35 29 26 21 25 16 18 15 11 15 13 16 22 18 20 22 20 14 12 17 18 17 19 18 18 16 15 11 11 14 10 11 8 8 6 7 7 6 6 6 9 10 9 9 8 7
42 50 41 37 28 14 25 30 24 20 20 20 12 6 5 18 12 19 22 21 21 18 22 20 21 19 19 20 19 17 15 14 12 11 13 11 6 6 7 8 8 8 6 8 10 11 9 9 8
43 53 43 32 30 22 28 26 28 26 22 18 16 9 5 11 13 16 18 21 20 19 22 24 26 21 20 21 21 21 18 17 16 15 14 11 7 10 7 10 10 10 10 7 9 10 11 11 10
37 49 43 37 36 34 29 33 31 24 22 21 16 9 9 15 16 19 22 19 20 23 22 26 24 21 22 24 25 24 22 19 17 16 15 14 13 13 11 11 10 8 9 10 9 12 12 12 11
38 47 47 44 39 33 40 35 35 31 26 20 20 21 20 17 16 20 22 28 35 28 25 31 24 21 20 22 23 24 24 22 19 18 17 16 16 16 13 16 12 10 8 9 10 10 11 12 12
35 44 47 46 39 41 44 48 33 28 24 24 21 20 22 22 21 22 23 23 26 19 29 32 27 24 24 24 25 24 26 25 23 21 20 18 19 18 19 16 17 11 11 10 11 12 13 14 13

GFSSGP_500_spd_087.txt.gz
Wind_Speed
8 6 6 5 5 12 14 16 17 16 15 13 13 14 15 14 14 14 15 18 17 20 18 17 16 16 15 13 12 10 7 5 4 5 5 7 7 7 8 7 6 6 3 3 6 9 10 12 13
7 3 5 7 8 10 10 13 17 17 19 12 12 12 16 16 15 16 16 15 17 19 19 18 17 17 16 14 13 11 9 7 5 7 7 7 7 7 7 7 6 2 1 5 9 10 11 14 16
3 4 4 9 7 10 13 14 18 14 11 8 15 12 16 17 16 17 17 15 15 18 18 18 18 18 18 18 16 14 13 11 9 8 10 10 9 9 9 8 6 5 8 12 11 17 19 17 17
4 3 6 12 12 10 11 11 12 14 13 11 13 16 14 15 17 18 16 15 14 17 17 18 19 18 19 18 18 18 18 15 14 13 12 13 13 13 13 15 18 19 22 24 21 20 17 17 14
6 2 5 11 12 4 5 14 7 11 12 13 16 16 14 13 14 17 16 13 14 16 16 16 19 19 20 19 18 19 19 19 18 16 15 15 15 15 15 17 21 23 23 21 19 19 16 15 15
4 1 3 7 7 2 10 17 15 12 11 13 13 15 14 13 15 15 15 13 11 15 17 17 19 19 19 18 18 18 18 18 18 18 16 15 15 15 16 18 19 21 19 17 18 17 14 13 15
2 4 4 7 6 12 18 20 18 13 14 13 10 15 13 9 11 15 13 12 13 15 16 17 17 18 17 16 17 17 17 16 16 16 16 15 14 15 16 17 18 18 16 14 15 14 12 11 12
6 1 2 6 7 22 20 20 15 10 12 11 8 14 15 9 10 12 11 11 14 15 15 16 15 18 15 16 15 14 16 16 14 16 14 13 13 15 16 17 17 18 18 17 17 17 12 12 13
5 2 2 3 8 9 14 18 15 12 13 8 8 9 13 13 11 11 11 10 11 14 14 15 16 16 17 15 14 13 13 16 14 14 15 13 14 13 15 17 17 16 17 16 18 19 18 20 18
9 5 3 4 8 14 12 18 16 14 13 8 9 9 11 14 10 11 11 10 10 12 14 14 14 15 18 16 15 16 13 14 14 14 15 16 15 14 16 18 18 18 20 18 17 15 16 21 20
11 11 5 3 7 12 17 10 14 18 15 8 7 9 10 11 10 9 13 8 11 11 11 13 12 12 15 16 14 14 13 13 13 12 14 15 15 14 15 18 18 19 19 18 17 17 20 21 23
14 14 8 5 10 10 10 13 11 11 14 10 7 11 11 11 13 11 9 10 11 11 9 12 12 9 12 13 15 13 11 9 11 12 13 13 14 16 18 20 20 20 20 17 18 21 22 22 22
15 18 11 9 15 11 13 11 15 8 11 7 6 12 11 10 13 11 9 9 10 9 9 10 11 9 10 12 14 14 13 11 11 12 14 13 15 13 16 19 20 20 20 18 17 21 22 21 21
19 16 14 11 12 13 8 9 4 8 9 10 7 9 13 14 11 10 9 8 9 8 8 10 9 9 9 12 15 14 14 13 13 12 12 13 15 13 14 18 19 19 20 19 19 19 20 21 20
22 17 11 19 14 10 10 5 4 9 13 11 8 7 12 11 11 11 10 9 9 7 9 10 8 9 10 9 13 13 12 15 14 12 11 14 13 15 15 18 19 18 18 18 17 18 19 17 18
28 22 25 18 22 15 12 12 10 9 15 15 10 7 9 11 13 9 10 11 9 7 9 8 8 10 8 7 9 9 10 13 13 13 12 12 12 14 14 15 17 16 17 18 17 17 18 15 15
22 22 21 19 19 19 11 7 15 11 8 11 10 8 8 13 12 11 10 11 11 9 8 7 9 9 9 6 10 8 8 10 11 13 11 12 12 13 13 14 15 15 15 15 14 15 15 15 13
21 22 18 23 16 15 13 6 4 13 5 10 10 11 10 11 13 12 12 13 12 11 10 9 9 10 10 7 8 10 8 12 11 11 13 12 11 13 12 11 14 14 15 15 14 14 14 14 13
23 28 28 26 17 21 20 12 6 8 15 8 7 7 10 16 12 10 9 11 11 10 9 9 8 8 12 9 7 10 8 9 12 11 11 10 10 12 12 10 11 12 12 13 13 13 12 11 11
24 25 30 31 23 21 8 17 12 15 14 15 7 7 8 11 12 10 9 9 8 9 9 11 9 8 8 10 8 8 10 9 9 8 10 9 9 10 11 10 9 10 9 10 12 12 12 13 10
30 28 31 28 29 25 19 12 15 14 15 20 14 12 7 8 9 13 8 7 8 10 11 10 10 10 9 9 7 7 8 10 10 8 9 8 9 8 10 11 10 9 10 10 12 11 10 11 10
34 28 32 30 31 27 24 19 17 18 16 16 19 14 13 11 8 15 8 8 9 10 12 10 11 11 12 11 7 6 9 11 10 8 8 8 7 7 7 8 8 7 9 10 9 12 10 10 11
31 32 33 32 32 32 30 23 18 16 15 19 17 13 12 14 10 9 12 12 8 7 11 10 11 12 13 14 11 9 9 12 13 8 9 6 5 7 9 7 9 8 8 8 9 10 11 11 12
35 37 38 36 35 38 32 24 18 14 20 18 16 13 11 14 13 11 16 16 18 15 12 14 13 13 14 14 14 13 11 12 12 10 10 9 6 6 8 9 9 7 8 7 8 10 11 11 11
43 41 42 40 41 38 30 26 22 21 19 16 13 14 11 11 19 15 18 18 19 18 15 16 17 17 16 17 16 15 11 11 12 10 11 9 9 7 8 8 9 9 10 9 8 7 9 9 10
43 45 45 45 42 37 30 33 27 25 24 19 14 9 3 12 15 18 17 19 25 20 19 19 18 20 19 19 20 18 14 13 16 15 13 11 10 8 9 10 11 10 11 11 11 10 8 9 9
43 47 45 42 41 37 36 32 29 29 25 20 16 10 5 10 19 19 17 18 25 21 22 21 21 22 23 23 22 21 18 17 17 16 15 16 12 12 11 11 12 13 11 12 13 13 12 11 11
45 47 48 47 39 43 39 33 28 31 24 20 17 19 12 12 20 15 19 19 22 22 25 24 23 23 21 23 24 23 22 21 19 19 16 17 16 15 16 13 13 12 13 13 14 15 15 14 12
46 48 50 47 49 41 39 33 28 28 25 22 22 19 18 19 20 22 23 21 21 27 23 21 25 19 23 24 26 24 23 23 22 21 20 20 21 20 15 17 16 14 14 15 14 15 17 17 15
39 49 52 50 48 46 42 41 33 29 30 24 19 21 25 22 21 22 21 20 22 25 30 18 26 23 34 26 26 27 27 26 26 24 23 23 24 22 20 21 19 18 16 14 15 15 17 17 17

GFSSGP_500_spd_090.txt.gz
Wind_Speed
9 10 7 6 4 15 21 13 14 11 14 15 14 16 18 15 16 13 13 16 17 16 17 16 16 18 17 16 13 11 8 8 8 9 9 10 9 8 8 7 5 5 7 8 9 10 11 12 12
10 8 8 12 13 16 23 17 15 15 16 12 14 16 17 17 15 14 15 14 17 16 18 17 19 19 18 17 17 15 11 10 11 10 10 10 9 9 8 7 5 4 6 8 9 10 8 10 12
7 6 9 12 10 12 22 21 15 9 11 15 16 15 17 16 16 15 15 15 15 16 18 18 19 19 18 19 20 18 16 14 14 13 12 12 12 13 12 8 6 8 11 10 9 14 14 15 13
4 6 10 9 7 15 22 16 13 12 12 14 17 17 14 15 16 15 15 15 14 16 17 18 19 18 19 21 22 22 20 17 14 15 16 17 18 18 18 16 18 22 22 21 19 16 14 15 13
2 7 8 16 10 8 16 15 15 11 14 15 17 15 15 13 14 14 15 15 14 15 16 18 17 19 20 20 21 22 22 21 19 18 18 18 18 18 19 21 23 23 21 18 17 17 15 14 13
1 5 4 11 8 5 16 15 9 13 13 15 16 15 15 13 14 14 15 15 12 14 17 17 17 18 19 19 20 21 21 21 19 18 18 17 16 17 18 19 19 18 18 17 17 16 14 16 13
3 1 6 10 7 11 19 18 13 12 14 16 17 17 16 13 10 14 15 15 13 15 15 16 17 17 16 17 18 19 20 19 19 18 17 15 15 16 17 16 16 16 16 15 13 13 14 15 13
5 0 5 7 5 17 19 18 13 13 13 17 14 18 18 13 8 11 14 14 15 15 15 15 16 15 16 15 16 16 19 17 18 17 16 15 15 13 15 16 16 19 18 16 14 12 14 16 13
7 5 5 5 11 13 21 18 10 13 16 13 13 8 16 15 10 11 12 13 13 15 15 15 15 15 15 14 14 14 17 16 17 17 15 16 15 13 13 14 12 15 17 16 20 19 19 17 16
7 4 4 5 7 13 19 16 12 12 15 14 16 11 13 14 9 9 11 12 13 14 15 15 13 16 15 16 16 14 16 15 16 17 16 15 15 14 14 15 13 16 18 17 18 19 21 18 19
10 4 2 6 6 14 17 16 13 9 12 11 10 14 14 15 11 8 12 12 11 11 13 14 13 12 14 14 14 16 16 14 14 15 16 14 15 14 15 17 16 18 20 19 18 20 21 20 21
10 7 7 6 5 14 19 17 16 9 10 10 10 13 17 15 14 9 6 11 11 10 12 14 13 11 11 13 13 13 13 14 12 13 15 17 17 15 16 18 18 20 22 19 21 22 23 22 22
10 12 10 8 9 12 16 9 18 16 7 7 9 13 13 14 14 12 8 10 10 10 11 11 13 10 9 11 14 14 14 14 12 12 14 15 14 14 14 18 18 20 21 20 19 20 22 22 21
11 14 11 10 6 11 15 16 8 18 8 6 7 9 12 14 15 14 12 10 11 11 10 11 12 11 9 9 13 14 14 14 14 13 14 13 14 13 14 16 17 17 18 18 18 19 19 20 20
15 14 14 12 10 11 10 10 11 14 11 9 9 8 10 11 14 14 13 11 12 10 10 11 12 12 9 8 11 11 12 13 14 14 13 14 13 14 14 14 16 16 16 16 17 18 18 17 18
20 16 13 13 15 13 11 11 9 15 13 13 10 8 12 12 13 15 14 12 12 12 10 11 11 9 10 8 8 10 11 12 13 12 13 14 14 14 12 13 14 14 15 15 16 16 16 16 16
24 20 17 17 19 18 17 15 8 14 18 15 12 11 9 13 13 14 14 13 13 11 11 10 12 9 9 10 7 10 10 10 12 12 11 12 11 11 9 10 14 14 11 12 15 14 14 14 15
24 22 24 22 25 25 26 12 9 14 16 16 14 12 11 14 12 12 14 13 12 11 11 9 10 10 9 9 7 7 9 10 9 9 10 10 9 10 10 11 13 14 12 12 10 11 11 13 13
26 24 24 22 14 20 19 14 12 18 12 16 14 12 16 13 10 9 11 11 12 11 9 9 9 8 8 9 7 7 8 6 10 8 10 10 9 7 10 9 10 11 11 11 11 10 9 10 12
28 27 26 22 17 23 23 19 18 19 16 19 16 8 11 14 13 12 12 13 12 12 11 9 8 9 9 8 11 6 7 7 8 8 8 10 10 8 7 10 8 8 9 11 10 10 9 9 11
30 28 25 24 23 23 24 18 21 22 25 20 17 12 8 12 18 15 14 12 13 10 10 10 9 10 11 8 7 10 8 7 8 8 8 10 9 9 7 8 9 7 8 10 11 10 10 10 10
32 27 25 27 27 26 19 11 21 22 19 18 14 10 13 11 12 15 13 10 9 12 10 9 11 11 11 11 9 9 11 9 7 8 7 8 10 9 9 8 8 9 7 8 8 9 10 9 10
33 30 30 33 31 29 25 17 15 15 14 16 15 12 14 13 12 13 13 11 9 6 10 13 11 12 12 11 10 10 11 11 9 9 8 7 9 10 11 9 7 8 7 8 8 7 9 9 9
36 37 36 31 35 35 27 26 20 20 20 22 17 16 17 16 14 13 13 10 8 8 6 9 12 13 13 13 13 11 11 14 12 11 9 8 8 10 12 12 11 10 9 8 8 8 8 11 10
43 42 40 39 38 36 33 33 24 23 21 23 23 24 19 15 17 15 12 16 15 15 14 8 12 15 15 14 14 13 12 13 15 13 12 10 9 10 11 12 12 12 12 11 9 10 9 9 10
41 44 44 43 42 37 34 34 25 24 23 24 22 19 21 17 20 20 15 16 17 12 15 12 9 16 17 16 16 16 15 15 17 16 14 12 12 10 11 11 12 12 13 12 12 11 11 10 9
40 44 42 42 40 38 37 31 25 25 29 22 15 15 15 17 20 26 21 17 17 17 19 20 13 13 18 17 17 18 18 17 16 18 15 16 14 12 12 13 12 13 13 13 14 13 12 12 11
42 40 45 46 43 43 40 31 27 27 27 22 20 20 16 15 22 21 23 21 19 20 23 22 18 16 16 19 20 21 21 20 17 17 17 18 19 15 15 13 14 14 13 13 14 14 14 13 13
43 44 45 46 44 43 41 34 26 25 29 27 20 26 21 18 18 23 22 26 24 19 23 27 21 18 16 22 25 24 25 23 22 21 21 20 19 20 14 17 17 16 17 16 15 16 16 15 14
43 44 45 46 45 45 44 39 32 29 24 27 27 27 24 24 22 24 23 21 23 25 25 24 18 25 24 26 32 28 27 26 25 25 23 23 21 20 19 19 20 20 18 18 18 17 17 16 17

GFSSGP_500_spd_093.txt.gz
Wind_Speed
8 7 7 8 8 15 12 12 16 15 16 12 16 15 19 17 17 17 17 17 18 18 18 16 15 16 16 13 9 10 12 13 13 12 11 10 9 8 7 7 8 7 9 10 10 10 11 12 13
7 6 7 6 4 20 15 16 17 16 17 13 16 16 17 16 17 17 16 17 17 17 17 17 18 19 19 17 14 12 12 13 13 12 11 10 10 8 7 7 6 6 10 11 11 12 13 14 15
6 6 10 11 15 19 17 20 18 13 18 18 18 16 14 14 16 17 16 17 16 15 17 19 19 21 21 21 18 16 15 15 14 14 14 14 12 10 9 8 7 9 12 13 11 13 14 14 15
4 6 13 12 16 21 19 16 14 17 15 16 18 16 14 14 17 16 16 18 16 15 17 18 19 20 20 22 23 20 17 16 18 17 17 17 16 15 16 17 17 16 16 15 13 16 17 15 15
3 8 10 14 14 18 15 16 16 17 17 16 17 16 16 14 17 16 17 18 15 15 16 18 18 20 20 22 23 23 23 22 21 20 19 19 20 22 23 22 21 18 17 16 15 15 16 13 13
2 7 5 9 8 11 16 18 15 17 16 17 18 16 16 14 15 16 16 17 16 14 16 16 16 18 20 21 22 22 22 21 20 19 18 18 19 20 19 18 17 16 16 16 14 13 16 15 14
2 3 6 6 1 17 15 12 13 16 16 17 18 18 16 14 13 16 15 16 15 15 15 15 14 17 18 19 20 20 21 21 20 18 17 16 19 18 17 18 16 15 13 13 14 16 13 15 14
2 1 7 9 16 24 17 14 12 13 15 16 19 20 18 15 11 14 15 15 14 15 15 13 13 15 16 17 17 20 19 20 19 18 17 17 17 17 17 18 16 15 13 12 13 15 15 13 16
5 3 7 11 20 18 18 16 15 14 16 15 14 12 16 17 12 11 14 14 14 15 15 14 13 14 15 17 17 19 19 18 18 17 16 15 15 15 14 14 13 15 16 14 14 18 16 13 16
6 6 6 10 9 19 19 16 17 15 17 19 18 10 12 18 12 10 12 12 12 13 14 15 14 13 17 16 16 17 19 18 18 17 16 15 14 13 12 14 15 15 16 16 18 20 18 17 15
9 7 4 8 12 20 20 15 17 14 16 13 17 15 13 18 14 12 12 11 10 13 12 13 14 13 12 16 17 16 16 18 19 18 16 15 14 14 13 17 18 20 18 17 19 20 18 18 18
9 6 4 8 9 16 17 16 15 13 16 16 12 17 18 16 14 10 11 11 10 12 11 11 12 13 12 13 14 16 15 16 16 17 18 16 14 14 16 19 20 20 18 17 19 20 20 20 21
12 8 8 5 8 12 15 13 16 11 13 14 14 13 15 16 15 12 10 11 12 10 10 11 11 12 13 12 13 15 14 14 15 15 14 14 14 15 16 20 19 20 18 17 18 19 20 22 23
9 12 9 10 10 15 15 10 20 17 11 13 14 14 15 16 17 15 12 10 12 11 10 11 12 12 12 11 12 12 14 15 16 16 16 14 14 14 15 18 19 18 17 15 16 17 19 21 24
13 12 12 11 12 18 17 15 14 13 13 10 13 13 14 16 14 13 13 12 12 11 10 11 13 14 12 10 11 12 13 14 13 15 14 14 14 14 14 15 17 17 17 15 15 17 17 19 23
16 15 15 15 13 21 15 18 14 17 13 13 11 14 14 15 14 13 12 12 13 12 11 11 12 13 13 10 10 12 13 13 12 14 15 14 14 13 12 12 13 15 15 14 15 17 18 18 19
21 19 18 16 15 13 13 20 17 23 17 15 12 12 14 14 13 12 13 14 12 12 11 11 11 11 12 12 9 11 11 13 13 13 14 12 11 13 12 10 11 13 14 13 15 16 16 17 17
22 22 19 17 18 15 12 13 23 17 17 17 14 13 14 15 15 17 16 14 13 12 11 10 11 11 10 11 10 9 10 12 11 11 12 11 10 11 11 10 9 11 14 12 13 14 13 15 16
28 28 25 21 17 22 22 24 18 19 20 16 15 12 12 14 17 16 15 14 13 11 11 10 8 9 8 9 10 9 11 9 10 10 11 10 9 10 10 10 9 8 9 10 11 10 11 12 15
29 27 25 20 18 22 21 22 21 21 22 20 16 11 12 12 15 14 15 13 12 12 11 11 11 11 8 6 6 8 9 11 8 8 10 10 10 10 10 10 8 8 7 7 7 8 9 9 12
29 28 26 23 22 19 18 23 28 24 24 23 17 11 12 15 14 14 13 14 13 12 12 11 11 10 9 8 5 6 7 7 6 6 7 9 9 9 10 9 9 8 8 8 8 7 7 9 9
31 30 28 28 28 23 21 12 25 26 23 22 17 13 11 14 14 11 13 16 15 15 13 12 11 11 10 9 9 9 7 8 7 6 7 7 8 8 9 10 9 9 8 7 7 7 7 8 10
32 33 31 31 29 27 25 15 30 29 28 15 15 15 13 13 14 13 15 14 13 15 15 14 12 11 11 10 9 9 9 9 10 7 6 8 8 8 8 9 10 10 10 8 7 8 8 8 9
36 36 34 32 33 29 25 19 20 14 21 21 19 18 14 16 16 15 17 13 13 13 14 13 12 12 12 12 12 9 10 11 10 8 7 7 9 10 11 10 9 9 9 10 10 9 9 9 9
41 38 38 36 36 32 28 22 14 15 17 16 17 21 20 24 21 20 16 16 15 14 13 12 14 14 15 14 14 13 11 13 13 13 10 9 7 9 13 12 12 11 10 9 10 11 10 11 10
41 40 41 41 40 33 28 30 25 21 20 18 17 20 23 22 21 21 21 18 21 24 12 14 12 15 15 15 15 15 14 14 15 15 13 11 12 11 12 13 13 13 12 11 10 10 11 12 12
41 43 40 40 37 35 36 29 27 24 23 20 16 19 19 21 20 22 21 17 20 18 15 13 15 15 15 15 15 16 15 15 15 17 18 16 14 13 13 13 13 13 12 13 13 13 12 13 13
40 39 41 43 41 37 36 34 27 24 24 22 18 20 22 21 25 26 27 25 24 20 21 19 17 16 16 14 16 18 18 16 17 16 20 18 16 14 13 12 13 14 14 12 13 14 14 13 13
43 42 41 43 41 37 36 32 23 22 24 22 24 21 21 20 20 26 30 34 26 24 25 21 24 19 16 18 17 20 19 20 19 20 18 18 18 18 16 15 13 14 15 14 14 15 15 15 15
40 42 41 41 43 40 37 33 25 23 23 23 24 22 25 24 22 25 26 29 28 29 28 23 24 21 19 19 25 22 23 25 24 24 24 21 21 19 18 19 17 17 16 15 15 15 16 16 17

GFSSGP_500_spd_096.txt.gz
Wind_Speed
7 7 6 5 3 8 10 11 16 14 13 16 16 18 20 16 15 16 15 14 15 15 17 16 15 14 11 11 11 11 12 11 11 11 10 9 6 5 6 7 7 8 10 11 11 10 10 10 11
6 6 7 6 9 12 11 13 16 14 15 15 17 18 18 16 15 15 14 14 15 16 17 18 18 17 15 13 13 13 13 11 10 9 9 9 8 7 6 7 7 8 10 11 11 11 12 13 13
6 8 16 6 22 15 14 14 14 14 16 18 18 16 16 16 14 15 15 14 14 16 17 18 19 20 18 15 14 14 13 13 13 12 11 10 8 7 7 8 8 10 11 11 12 12 13 14 15
5 10 12 14 20 16 19 16 16 15 14 16 18 17 16 16 15 15 16 14 15 16 17 18 19 20 21 19 17 16 15 16 16 15 13 11 9 10 12 12 11 11 11 9 12 18 15 15 16
5 6 12 14 18 16 16 15 17 16 17 16 18 17 17 16 15 14 16 15 14 15 17 17 17 19 21 22 20 19 19 19 18 15 16 16 17 18 19 19 17 16 14 16 22 18 16 16 16
3 2 12 10 14 14 14 17 18 17 16 17 18 17 17 16 15 14 15 16 15 14 15 16 17 18 19 20 20 20 19 19 18 16 18 18 19 18 17 16 17 15 14 15 17 16 15 16 17
5 3 4 5 14 17 14 15 18 19 14 17 18 17 16 16 14 14 15 17 16 14 13 15 16 17 16 18 19 19 19 18 18 15 19 19 18 16 15 14 14 13 13 14 17 16 15 16 18
5 1 4 5 17 23 14 14 16 17 15 16 17 18 17 16 13 13 15 16 16 13 13 14 14 15 16 16 17 19 18 19 18 19 18 18 17 16 15 14 11 9 10 12 14 13 14 16 17
6 4 5 11 23 20 15 14 16 17 17 16 14 13 14 16 13 13 14 15 15 15 14 14 15 15 16 17 17 18 17 18 17 17 17 15 14 14 13 13 12 13 11 13 14 12 16 15 17
8 6 7 14 23 22 17 17 19 18 18 16 13 10 9 14 13 12 13 13 13 14 15 14 15 16 15 17 17 18 18 19 18 17 16 15 15 13 11 12 12 16 13 16 15 13 16 16 17
10 8 7 11 18 20 17 14 17 18 17 16 19 13 10 15 13 11 12 12 11 12 13 14 13 14 15 16 17 18 19 19 18 16 16 14 13 14 13 17 16 17 20 17 16 16 16 16 18
11 9 7 11 15 19 18 16 14 15 17 17 15 19 14 14 12 10 10 12 10 10 12 12 12 13 13 15 16 17 16 19 18 17 15 14 15 16 16 18 18 18 19 17 17 16 17 18 22
12 9 9 10 11 20 18 17 16 15 16 18 15 14 15 16 13 12 9 10 9 10 10 12 11 12 13 14 14 14 14 16 15 15 15 17 16 17 18 18 18 17 17 16 16 17 19 23 26
15 11 11 11 11 17 20 19 15 14 15 17 19 16 16 14 14 12 11 8 8 9 9 11 12 12 13 14 14 14 15 15 16 16 16 15 16 17 17 17 17 16 16 16 17 19 21 25 28
15 15 14 12 13 14 18 18 23 15 15 17 18 17 15 13 12 11 11 9 7 8 8 10 12 13 12 13 14 13 13 13 14 15 15 15 15 16 16 17 16 15 15 15 17 20 23 24 26
21 14 13 14 16 17 18 17 22 23 17 15 17 18 17 16 15 12 11 11 9 8 8 9 11 12 12 11 13 13 13 14 15 15 15 15 13 12 13 15 15 16 17 15 16 18 21 22 22
20 19 18 18 18 22 21 20 20 21 17 15 18 18 17 17 15 14 13 11 10 9 8 8 10 10 11 11 12 13 12 14 14 15 15 14 13 11 9 11 12 13 15 15 15 16 19 20 20
24 24 22 19 18 16 18 22 24 26 21 19 17 19 19 19 19 17 14 12 11 11 10 8 9 10 9 10 10 11 11 12 13 12 12 12 11 10 10 9 9 9 11 12 13 14 15 17 17
32 29 23 22 26 13 17 7 28 25 22 21 18 19 19 17 17 16 15 14 12 11 11 10 8 8 10 10 10 9 10 11 12 12 11 11 11 9 8 8 9 10 8 9 10 11 13 13 14
29 15 21 24 20 16 14 10 13 13 27 24 21 17 15 16 15 16 16 16 14 12 12 12 11 8 8 8 9 10 8 9 10 9 9 10 9 8 8 8 7 7 8 9 9 9 10 12 12
28 25 26 24 17 16 15 17 15 16 23 24 22 19 18 18 18 18 18 19 18 15 13 12 11 10 7 9 8 9 10 7 8 9 7 8 9 8 8 7 6 5 5 6 7 8 8 10 12
30 31 29 27 25 23 21 15 18 30 26 27 21 17 19 18 18 18 18 18 18 17 15 14 12 11 10 8 9 9 8 9 8 8 7 6 8 9 9 8 6 5 5 5 6 7 9 9 11
37 33 31 27 25 31 23 16 14 24 31 29 23 18 17 19 16 14 15 15 17 18 17 16 15 13 11 10 8 7 8 7 6 6 5 6 7 7 7 8 10 7 6 6 6 5 6 8 9
35 34 33 29 27 27 23 24 20 22 27 30 24 16 16 15 17 18 17 14 14 16 18 17 16 15 14 13 12 9 8 8 8 6 6 6 6 7 9 9 8 9 9 8 7 6 6 7 8
37 36 35 31 23 16 22 18 22 21 11 6 11 15 12 16 16 17 14 16 14 15 17 17 16 15 14 14 13 12 10 9 11 10 9 7 7 8 8 9 10 9 8 9 10 9 8 8 8
39 37 31 30 22 21 29 23 17 12 10 12 11 12 7 13 20 19 17 15 21 20 20 17 14 12 14 14 14 13 12 11 12 13 11 10 10 9 8 9 10 10 10 10 8 10 11 10 10
41 43 37 30 24 21 26 29 20 22 20 16 12 12 15 19 18 19 22 21 24 23 27 19 19 15 12 14 14 14 15 14 13 14 15 13 10 10 9 9 10 11 11 11 11 10 11 12 11
42 40 39 40 26 23 20 23 21 26 23 21 15 15 19 21 21 22 24 27 29 26 29 25 20 19 15 13 15 16 17 17 16 16 15 16 14 13 12 11 10 11 11 11 12 12 12 12 13
42 38 42 31 30 22 22 18 30 26 24 24 21 20 24 26 27 28 29 30 30 29 26 22 21 21 19 14 15 17 16 18 19 19 17 16 16 15 14 13 12 13 12 11 11 12 12 14 15
42 39 38 36 29 32 22 22 26 26 23 26 26 25 23 29 26 23 26 33 33 34 31 30 22 29 27 16 16 19 14 19 20 22 22 21 19 18 18 17 16 16 13 13 13 13 13 14 15

GFSSGP_500_spd_099.txt.gz
Wind_Speed
7 6 6 5 5 8 8 10 11 10 11 12 11 14 15 13 13 12 11 13 13 14 15 13 11 8 9 11 13 13 12 12 10 9 7 7 7 7 7 6 5 6 6 8 9 10 10 10 10
5 7 7 3 7 8 10 11 11 11 12 12 12 13 14 13 13 11 12 13 14 14 16 15 14 11 10 11 11 11 11 10 9 7 6 5 5 6 5 4 5 6 8 8 9 11 12 12 13
6 11 14 9 15 10 10 12 10 11 13 14 12 13 13 12 11 12 12 12 13 15 16 16 17 16 14 13 11 10 9 9 8 6 5 4 4 5 5 5 5 8 9 10 11 12 13 13 14
7 12 12 23 15 13 13 12 12 12 13 14 14 14 12 11 11 11 13 13 14 15 17 18 17 17 16 16 14 13 12 11 9 7 5 5 5 6 7 6 8 8 9 10 13 13 13 13 15
9 11 7 14 15 14 15 15 15 16 15 13 13 15 14 12 11 10 11 12 14 14 16 16 17 18 17 17 16 16 15 13 11 11 11 12 13 14 14 12 13 11 8 10 16 14 14 14 15
7 6 9 13 12 16 10 15 15 16 15 14 15 15 14 11 12 12 11 12 12 12 15 15 16 17 18 18 17 17 15 14 15 16 15 15 15 16 15 14 15 16 17 21 16 14 14 14 15
4 1 9 15 12 14 13 15 16 15 16 15 15 14 13 12 12 12 12 12 11 12 13 14 15 15 16 16 17 16 15 14 17 17 16 14 13 14 14 13 12 13 15 18 15 14 15 15 15
5 5 1 16 17 16 14 15 17 16 16 16 15 15 13 12 12 11 11 13 13 12 12 13 14 15 15 15 16 16 16 18 19 17 16 17 14 13 12 11 10 12 14 14 13 14 16 16 17
4 4 3 8 19 16 15 16 18 16 15 15 13 11 12 14 11 10 10 13 14 13 13 13 14 16 15 15 16 16 16 17 17 17 15 15 13 12 11 12 11 13 12 13 12 15 16 17 18
6 2 4 18 23 17 17 19 19 18 15 13 12 10 8 13 12 10 10 11 13 14 12 14 14 14 16 14 16 17 16 16 17 18 15 13 12 11 9 10 12 14 15 13 13 16 16 17 19
9 5 10 16 22 19 16 17 19 19 18 16 15 12 9 10 12 10 10 11 11 12 12 12 14 13 15 15 15 16 15 16 16 17 14 14 14 12 14 16 22 20 18 15 14 17 16 17 19
11 9 11 13 22 18 15 16 15 17 17 16 14 15 13 10 11 11 9 10 10 10 11 12 12 12 13 15 13 15 15 16 15 14 15 15 14 16 18 19 20 20 17 17 15 15 18 20 21
15 11 11 15 19 20 14 14 17 17 17 16 14 12 13 12 12 10 9 9 9 9 9 12 13 11 11 13 12 14 13 15 16 15 16 15 17 19 20 19 19 19 18 17 16 18 21 22 23
17 14 14 14 14 19 17 15 14 17 16 17 18 16 15 12 11 10 9 8 8 9 9 10 12 13 12 12 13 13 14 15 15 15 15 15 16 18 20 19 18 18 18 18 18 23 25 26 25
20 18 16 16 13 19 26 19 15 15 18 19 19 18 16 11 11 11 9 9 8 8 10 9 10 12 12 12 12 12 13 13 14 15 15 15 15 15 16 16 15 16 17 18 20 24 25 25 25
21 21 19 19 17 15 22 17 20 16 16 19 20 19 16 13 12 12 10 10 9 9 10 10 9 10 11 10 12 12 13 13 14 14 14 14 13 14 13 14 14 15 16 16 19 22 23 23 23
23 23 20 19 20 21 23 23 23 23 19 21 20 20 18 16 14 13 11 10 9 9 9 9 9 10 10 10 10 12 12 12 13 14 13 12 12 12 12 13 13 14 14 14 15 18 18 19 19
25 25 24 21 20 21 27 33 24 27 25 22 22 22 21 20 18 16 14 11 10 9 9 9 9 10 10 9 10 11 12 10 11 12 12 10 9 9 10 10 11 12 12 13 13 14 15 15 14
24 31 36 27 28 26 22 22 23 24 29 24 22 22 22 21 19 17 16 14 11 9 9 9 8 10 10 9 9 10 10 11 9 9 10 9 8 7 8 8 6 9 10 10 11 11 13 13 13
27 26 26 31 30 24 19 19 26 18 27 24 23 21 22 21 20 19 17 15 13 10 10 9 9 9 9 9 8 9 9 8 7 7 9 8 8 9 8 7 5 4 6 7 8 9 10 12 13
31 30 32 21 19 23 20 17 9 26 12 33 25 24 22 21 21 20 19 17 15 13 12 12 10 9 8 9 9 8 9 8 6 6 7 7 6 6 7 6 5 5 6 5 5 7 9 8 9
17 30 38 21 24 20 19 14 8 12 12 29 26 24 22 22 21 20 19 19 17 16 15 13 12 10 9 9 9 9 9 8 8 7 7 6 6 6 5 5 4 3 5 6 6 6 7 10 8
34 21 27 9 16 16 19 12 19 21 18 31 32 24 22 20 19 11 18 19 19 18 16 15 13 12 12 11 10 11 9 9 8 7 7 6 5 6 7 7 4 3 2 2 3 4 5 6 8
40 32 23 21 23 15 16 21 22 18 10 35 33 25 26 23 25 21 18 16 17 17 18 18 17 14 14 13 11 10 11 11 10 9 7 6 7 7 6 6 6 6 4 3 2 2 3 4 6
44 31 14 16 18 8 21 18 27 27 19 27 30 25 27 24 20 17 17 14 14 16 18 19 19 17 15 14 13 11 10 10 10 7 7 5 5 7 8 8 7 6 6 7 7 6 5 6 5
38 31 20 11 13 17 14 12 18 22 24 14 16 23 21 16 20 18 16 13 16 15 16 17 19 17 16 14 13 12 11 10 9 10 8 7 8 4 4 6 8 9 9 8 7 8 8 8 8
38 39 23 18 19 21 20 18 19 18 13 11 8 4 14 5 11 17 18 20 25 17 18 17 17 15 13 14 14 14 14 13 11 11 11 10 8 15 10 6 7 8 9 10 10 9 7 9 8
32 30 33 28 13 21 15 17 17 19 18 15 14 14 10 14 14 19 18 21 22 21 22 22 16 13 17 14 16 16 15 14 14 13 13 13 13 15 6 10 10 9 10 11 11 11 11 10 10
39 37 31 27 27 20 16 13 20 14 25 23 18 15 15 15 16 18 21 22 23 25 24 24 20 20 20 18 16 16 17 17 17 16 16 15 15 17 17 16 13 11 10 11 11 11 11 12 13
27 34 27 30 25 27 22 25 26 20 23 24 22 20 19 21 22 23 24 23 23 27 25 21 27 23 28 27 21 19 15 16 16 17 19 18 18 16 20 16 15 15 12 10 11 12 12 11 13

GFSSGP_500_spd_102.txt.gz
Wind_Speed
6 5 3 2 6 6 9 7 9 6 7 8 11 14 15 11 13 12 12 13 15 15 15 13 10 8 9 8 10 10 9 9 9 9 9 8 6 7 7 7 7 7 9 9 8 8 11 11 13
5 6 5 8 12 7 10 9 8 7 7 7 9 12 12 13 15 13 13 14 15 15 17 16 13 10 9 9 8 8 8 7 7 6 7 6 4 5 6 5 6 5 6 7 9 9 12 13 13
6 10 5 10 8 12 6 9 8 6 7 8 9 10 10 12 14 14 13 13 13 15 16 17 15 13 12 11 10 9 8 7 6 5 5 4 4 4 5 4 6 6 7 8 9 11 13 15 15
5 11 6 23 8 9 10 8 10 9 7 5 9 9 10 12 11 12 12 13 13 14 16 17 15 13 13 12 12 11 10 9 7 6 5 4 4 4 4 3 5 5 9 9 11 13 14 16 17
4 8 10 14 8 10 10 9 10 11 10 9 8 7 10 12 10 10 10 13 13 15 16 16 15 14 12 13 13 13 13 11 11 11 11 11 12 12 10 10 7 8 9 11 13 14 16 16 16
3 4 12 9 9 11 9 10 10 11 10 11 10 9 10 10 11 9 11 9 12 13 16 15 15 14 13 14 15 14 13 13 13 13 14 16 14 14 15 15 16 14 13 14 14 15 16 16 16
3 1 11 11 11 14 8 11 11 12 11 11 10 10 10 10 9 11 11 11 12 13 13 13 14 14 14 15 15 14 13 14 16 15 14 14 13 14 14 15 15 15 17 15 15 15 16 16 16
6 4 14 16 14 12 12 12 13 12 10 11 9 9 10 11 10 10 14 13 13 11 12 13 13 15 15 15 15 16 18 15 16 16 14 14 13 11 10 13 14 15 14 15 14 15 16 16 16
2 7 15 26 17 11 13 13 13 12 11 9 7 9 9 10 10 11 12 13 14 13 11 13 12 15 15 15 15 15 16 15 16 15 14 14 14 13 12 13 15 15 16 14 13 14 18 20 20
5 5 6 24 18 13 14 16 16 15 11 10 8 8 8 9 11 11 11 13 13 14 13 12 11 13 15 14 15 15 15 16 16 18 15 14 13 13 12 18 18 17 17 18 16 13 17 19 20
10 11 9 19 16 15 13 16 17 14 13 13 11 9 7 5 10 10 10 11 13 14 13 13 11 11 14 14 14 13 15 14 16 17 17 14 16 17 17 20 24 18 14 22 18 13 12 23 21
12 1 7 9 15 16 11 16 15 16 16 12 11 11 10 5 8 10 10 10 12 13 14 11 12 10 11 15 15 12 13 14 15 18 18 16 17 20 23 12 8 20 2 28 17 16 16 18 21
13 9 9 12 19 15 12 14 15 16 16 13 10 9 10 9 7 9 10 10 10 12 13 12 12 11 9 13 14 13 12 15 18 21 18 16 17 23 22 19 23 13 15 16 19 21 21 17 20
17 12 11 16 15 15 15 14 17 12 13 14 14 12 11 10 8 8 9 9 9 10 12 13 13 12 11 12 15 14 13 13 17 13 17 20 21 23 16 15 23 20 17 17 21 17 25 22 23
21 17 14 11 18 21 18 17 15 20 17 17 17 15 13 11 8 8 9 9 9 10 12 11 12 12 10 11 13 15 14 15 15 10 15 18 13 21 16 18 20 20 20 19 16 21 23 22 22
26 20 16 17 21 16 18 23 17 16 16 17 18 17 15 12 10 10 9 10 8 9 11 9 10 12 11 10 11 12 12 14 15 14 13 11 16 16 17 18 18 18 19 21 23 21 21 22 23
26 21 21 24 24 18 16 19 17 19 17 18 19 19 17 15 12 11 11 10 9 8 11 9 8 9 12 10 9 11 12 12 13 13 13 12 12 15 15 16 16 17 16 18 16 18 17 18 19
26 22 26 22 32 20 18 22 23 22 22 20 21 22 20 17 16 13 12 11 11 8 9 10 9 8 10 10 10 10 12 11 11 11 11 13 12 13 15 13 16 16 13 12 15 15 14 14 14
31 22 31 32 30 24 24 26 27 24 26 26 24 23 23 21 19 16 13 13 12 10 9 10 10 9 9 9 9 9 9 9 7 8 8 10 9 10 12 14 14 10 10 10 11 11 9 12 11
37 41 38 39 22 32 26 27 31 32 35 29 23 20 24 22 21 17 14 13 12 12 10 10 10 9 8 8 9 9 9 9 7 6 6 6 7 8 7 8 12 13 12 11 10 8 9 8 10
23 35 40 35 37 19 31 32 24 22 30 34 30 26 26 24 23 20 16 15 14 12 11 10 9 9 9 8 8 6 7 8 8 7 6 7 6 5 4 4 4 11 7 9 13 6 6 7 4
21 21 30 30 21 16 29 22 20 20 22 20 36 30 32 25 22 20 19 17 16 14 12 11 10 9 8 9 9 7 7 7 6 7 8 7 5 3 2 5 5 7 5 10 10 5 5 4 5
26 28 29 25 15 15 15 19 16 19 10 9 42 31 29 33 27 24 20 21 17 15 14 12 11 10 8 8 9 8 7 7 4 4 3 6 4 6 6 1 4 1 2 7 9 4 3 3 3
29 21 26 24 27 5 2 5 15 12 13 12 37 34 28 27 21 25 19 18 17 16 15 13 12 10 10 9 7 8 7 8 9 11 5 5 6 5 6 5 6 8 7 4 7 2 2 0 1
30 20 14 19 16 15 8 0 9 15 17 22 25 40 32 27 26 27 25 16 17 15 16 14 12 11 11 10 10 8 7 9 10 7 7 7 7 8 6 5 3 7 4 2 2 4 4 3 2
26 21 22 11 16 16 12 20 9 18 16 21 21 29 30 34 29 29 23 18 14 14 11 12 14 12 13 13 12 12 10 9 10 8 9 10 2 2 7 8 6 8 7 4 5 7 9 9 8
21 29 24 17 10 5 16 6 8 9 13 26 24 29 28 37 27 27 24 30 24 20 13 10 12 12 15 14 14 14 13 13 12 12 13 12 11 11 10 8 8 10 10 8 7 7 9 10 9
32 10 26 30 17 10 12 17 2 3 5 2 5 7 6 21 18 28 25 25 18 23 17 10 10 12 14 12 13 16 16 14 14 13 13 12 10 9 8 7 6 10 9 8 7 9 10 9 9
33 30 20 26 23 22 14 17 6 7 11 10 15 11 9 14 10 14 23 31 19 20 21 15 13 20 15 14 15 16 19 18 17 17 17 16 13 12 12 10 10 10 7 8 8 9 11 11 10
24 20 18 20 29 22 18 21 26 24 20 16 16 19 20 15 17 13 18 25 18 23 17 18 20 18 20 18 19 19 22 16 16 20 22 19 16 14 14 15 13 10 10 9 10 10 12 12 11

GFSSGP_500_spd_105.txt.gz
Wind_Speed
4 3 2 4 4 5 8 8 6 11 12 13 15 19 21 17 18 18 14 16 17 16 14 13 9 10 12 12 10 11 9 11 13 13 11 8 8 7 8 8 7 9 11 10 12 13 15 15 17
5 8 7 12 8 7 9 6 9 8 7 12 14 15 17 16 16 17 15 15 17 18 16 15 14 11 10 10 10 10 9 9 9 8 8 7 7 6 6 7 5 7 10 11 10 12 14 15 17
5 9 9 8 11 12 7 6 6 9 6 7 10 13 15 15 13 16 15 16 17 17 16 16 15 13 10 8 8 7 7 8 8 7 8 7 7 7 6 6 5 7 9 11 10 12 14 16 18
6 7 5 8 13 12 12 4 6 11 5 7 11 10 13 12 12 15 14 15 15 16 16 16 15 14 12 10 9 8 7 7 7 6 6 6 5 6 6 6 6 7 10 11 12 13 16 17 19
5 7 9 17 9 12 11 6 6 10 7 6 9 8 13 13 13 11 14 14 15 15 16 16 16 14 13 13 12 12 10 9 9 10 10 10 11 11 10 7 8 10 12 14 13 14 16 19 19
2 7 9 10 7 11 9 7 6 5 6 9 9 9 11 14 12 9 13 15 12 14 15 16 17 15 14 13 13 13 13 12 13 15 14 15 15 16 16 14 12 11 12 14 14 16 18 19 21
3 3 12 5 12 11 8 8 6 5 4 10 9 9 9 10 14 10 11 9 12 14 15 16 17 16 15 15 14 14 14 15 15 15 15 15 15 16 16 17 19 18 17 17 17 17 18 20 22
5 5 10 10 11 10 8 11 10 7 4 8 8 8 10 9 11 14 12 12 12 14 14 15 17 17 15 16 16 15 14 15 16 15 16 13 12 14 15 15 18 17 16 17 18 19 19 19 19
7 13 6 16 10 11 10 15 8 8 7 8 7 7 8 11 9 12 15 12 16 14 14 15 16 17 15 15 15 14 13 14 14 13 15 15 11 11 12 15 17 16 17 18 19 20 22 21 18
9 12 11 19 16 15 11 13 12 10 9 10 9 8 8 9 8 12 15 14 15 16 12 14 17 17 16 16 16 15 13 15 11 15 15 14 11 12 14 15 16 15 17 19 19 23 24 23 19
12 11 15 27 24 20 16 14 12 10 9 10 7 7 7 6 8 8 17 16 13 14 13 14 16 15 16 17 18 14 16 14 16 14 17 12 11 17 15 14 15 15 21 19 18 18 20 23 19
16 8 5 19 23 17 10 14 15 15 12 10 8 5 7 6 7 7 13 15 15 14 14 13 14 14 15 17 17 14 12 13 14 14 13 16 15 18 14 11 12 21 20 23 19 21 22 24 20
11 9 6 8 32 30 16 14 13 14 10 8 6 4 6 6 6 7 11 14 16 14 14 13 12 13 14 14 16 16 17 16 17 16 17 17 17 23 26 21 28 26 23 22 21 18 17 20 18
15 10 6 13 31 27 10 14 14 17 11 13 10 6 5 4 5 6 7 11 14 13 14 12 12 14 15 13 14 14 15 17 13 17 18 19 18 18 19 21 23 21 23 26 23 21 22 20 23
14 15 11 13 24 17 13 13 14 11 14 14 12 10 8 6 4 6 5 10 10 12 12 12 12 13 14 14 13 14 15 16 16 18 16 19 17 15 17 21 20 23 23 20 27 20 21 20 21
24 16 11 12 18 15 27 15 13 18 15 11 13 11 11 10 7 7 7 10 7 10 12 13 11 12 13 13 12 14 14 14 14 16 13 14 16 16 18 18 19 25 23 20 20 18 18 19 21
22 18 14 10 15 37 14 19 21 17 17 17 15 13 13 13 11 9 9 8 10 9 9 12 11 12 11 13 11 11 12 13 13 13 14 13 15 16 18 17 15 22 22 20 19 16 14 15 17
27 22 15 17 31 38 15 17 19 22 19 19 18 18 17 15 12 12 11 10 10 10 10 10 10 11 11 11 12 10 10 11 12 12 11 13 14 15 17 16 14 17 14 18 17 16 14 13 13
28 28 22 18 20 31 24 22 23 31 20 14 15 21 20 18 17 14 13 12 11 10 10 9 9 10 11 11 10 10 8 9 9 10 10 10 12 12 16 15 12 12 12 15 17 15 14 14 12
29 32 33 38 32 42 27 23 27 28 22 20 20 22 25 24 21 15 14 13 12 12 10 9 9 8 10 9 11 11 8 8 7 7 7 7 9 12 15 15 11 10 9 7 12 16 13 10 11
27 27 33 38 41 24 34 33 29 32 26 24 23 22 26 22 23 20 18 16 13 13 11 9 9 7 8 9 8 10 8 7 8 7 6 6 6 8 11 12 9 9 9 10 8 9 12 11 6
26 18 22 33 46 37 30 32 35 29 24 19 26 33 29 27 25 22 20 17 16 13 13 11 8 8 7 6 8 6 7 6 5 5 4 4 4 5 6 9 9 10 7 4 6 8 7 8 7
28 20 18 23 25 24 21 25 41 35 23 19 17 33 37 30 28 28 25 21 20 16 15 12 12 9 7 7 6 5 7 4 4 4 5 4 4 6 4 7 8 5 8 6 5 5 7 7 5
27 23 19 21 26 19 3 11 20 18 17 16 15 23 40 30 31 32 28 25 22 19 14 12 11 10 10 8 8 7 5 7 4 3 5 6 6 7 8 9 10 9 9 7 7 7 4 4 2
35 21 20 6 10 23 12 7 11 11 3 6 15 12 37 33 29 28 28 24 22 22 19 16 14 12 11 10 10 9 9 9 6 7 6 4 6 5 6 5 7 8 7 7 6 7 4 2 1
37 19 12 11 10 13 28 20 11 10 2 5 16 18 37 35 31 33 29 23 21 21 20 17 17 15 13 11 11 10 9 9 11 12 10 10 9 10 9 7 6 5 5 6 7 5 4 6 4
23 24 18 25 6 8 5 9 3 7 4 5 8 16 35 34 33 31 27 25 25 18 19 17 16 17 15 13 13 12 11 12 13 13 12 10 6 4 7 5 5 5 5 8 7 4 6 5 5
24 16 21 22 18 20 17 4 7 14 9 9 9 5 25 36 36 32 27 28 25 37 19 17 17 17 15 14 15 13 12 14 16 15 12 12 10 9 9 9 6 6 8 9 9 7 9 8 7
31 25 21 22 23 20 17 18 11 6 10 15 13 13 4 26 29 28 25 24 22 28 22 20 14 15 13 14 13 12 12 16 16 17 14 14 14 11 8 10 10 8 10 12 10 9 8 10 10
20 31 21 18 19 24 23 23 13 5 9 6 15 15 15 14 23 23 25 23 32 30 28 23 16 13 18 15 14 12 15 12 14 17 18 17 16 13 13 15 15 14 13 13 11 11 11 11 9

GFSSGP_500_spd_108.txt.gz
Wind_Speed
7 9 6 6 3 2 2 11 12 13 13 17 20 21 18 16 19 18 15 18 17 16 12 11 11 13 13 10 13 14 13 12 14 17 15 10 7 8 11 12 12 12 12 13 14 15 18 21 19
6 10 9 11 4 1 3 9 11 12 13 16 17 18 17 16 17 17 15 16 19 19 16 13 13 13 13 12 11 10 10 10 11 10 10 10 9 8 9 11 10 11 13 13 14 16 18 21 19
7 9 10 9 3 5 5 9 9 12 12 15 14 14 15 15 14 17 13 15 18 19 18 16 14 14 13 11 10 9 9 9 8 9 9 10 10 10 10 9 8 10 12 13 14 16 19 20 19
7 8 4 16 7 6 7 9 6 12 13 9 9 12 12 11 14 14 15 15 17 19 17 17 16 15 13 12 11 10 9 9 10 10 9 10 9 9 10 12 13 12 13 14 16 17 20 19 18
6 8 7 8 8 8 8 11 6 11 9 7 7 10 12 9 13 11 13 15 17 19 17 17 16 15 14 13 11 10 9 9 9 9 10 10 10 10 11 12 12 13 14 15 16 18 20 21 18
5 7 11 7 10 9 10 10 8 7 5 6 8 7 13 9 12 10 14 16 15 17 19 18 18 17 15 14 14 12 12 13 13 13 14 15 14 13 12 13 15 16 16 15 16 18 21 21 17
5 4 8 2 10 8 11 8 10 8 5 6 7 5 13 10 12 12 12 15 14 18 20 19 19 17 15 15 14 14 14 12 12 13 14 15 15 16 15 15 15 16 17 17 19 21 22 21 17
5 2 6 7 11 6 6 8 9 9 7 7 5 7 12 12 11 13 11 14 14 18 21 19 18 17 16 17 16 15 14 12 12 12 12 11 13 15 17 18 18 18 16 18 21 22 23 21 18
7 12 9 11 11 11 8 9 9 6 7 8 6 8 8 13 12 10 12 13 15 18 20 21 18 17 15 16 15 13 12 14 12 10 10 9 11 13 16 18 16 18 19 18 21 23 23 21 18
10 11 10 13 17 15 13 17 8 9 5 7 7 6 8 10 12 8 11 13 15 18 20 20 18 18 15 16 14 13 13 14 13 13 13 10 11 14 14 17 16 16 19 21 21 22 23 20 18
11 14 26 24 17 14 11 14 9 7 11 8 8 5 7 9 11 10 10 13 17 17 17 18 18 18 14 16 15 12 16 17 15 16 15 13 12 15 14 17 17 18 19 20 20 21 19 18 17
9 11 16 10 15 13 14 14 12 9 10 9 7 4 6 10 8 9 9 14 16 16 16 17 17 17 15 14 14 10 15 14 15 17 17 16 14 13 12 17 19 21 22 21 23 18 19 18 16
15 7 13 13 22 21 16 15 15 11 10 9 7 6 5 8 10 8 11 13 12 15 15 15 14 16 15 14 18 16 15 17 17 16 22 23 22 15 12 20 20 23 25 24 24 24 22 18 18
20 12 10 24 31 32 18 12 11 12 14 10 11 9 7 10 9 9 8 13 12 13 14 15 14 14 13 14 16 14 15 18 17 19 20 17 21 20 28 23 23 23 23 25 23 25 23 20 19
22 5 11 13 25 37 21 14 13 12 15 11 13 10 9 11 6 6 7 11 12 13 15 17 15 15 12 14 14 13 15 18 16 18 20 21 19 17 17 17 19 21 23 20 20 20 19 20 21
21 16 12 11 14 26 17 18 12 13 16 14 10 9 8 9 11 8 6 9 12 13 13 15 16 13 13 13 11 12 12 12 17 16 16 20 20 20 18 17 19 24 17 20 18 18 15 17 18
24 13 16 9 11 20 21 23 12 12 15 14 10 11 7 8 8 8 6 7 9 11 11 14 16 15 13 13 12 10 11 11 13 15 16 18 21 19 18 18 18 21 21 21 19 16 13 15 16
23 26 22 16 31 18 18 16 15 11 18 17 17 16 12 10 9 8 7 6 8 9 10 13 14 16 15 13 11 11 9 10 11 14 16 18 17 17 16 15 15 16 18 19 15 13 14 15 13
32 30 24 16 16 30 20 19 17 15 16 17 17 17 13 14 13 13 10 9 8 7 10 13 12 13 15 16 13 13 11 10 11 10 11 13 13 15 17 16 14 14 16 16 14 13 14 13 11
32 28 29 31 25 28 28 28 19 17 19 17 16 16 14 18 16 15 14 12 11 9 10 11 13 11 12 13 13 13 10 10 9 9 9 9 8 12 12 11 11 13 12 12 14 13 11 11 10
28 23 29 34 31 33 18 41 22 19 15 21 17 20 16 18 17 17 16 15 14 12 10 10 12 11 12 11 10 11 10 9 9 10 8 9 9 8 7 8 8 9 8 9 9 9 11 10 9
29 26 23 21 34 31 37 28 41 32 29 27 20 19 18 13 18 19 18 18 18 15 13 12 11 10 10 11 10 12 10 9 7 9 7 7 8 6 4 5 7 7 8 9 8 8 7 8 8
26 27 22 16 19 24 30 39 39 49 29 22 18 20 25 22 20 24 22 22 20 19 17 14 13 12 10 9 8 11 10 6 7 6 9 6 7 7 7 7 8 6 7 7 8 9 9 8 8
22 23 33 13 15 17 19 37 24 31 31 26 28 24 25 22 24 26 25 25 24 20 18 16 15 13 12 10 9 9 9 8 7 6 7 7 7 9 7 6 5 6 7 6 6 6 7 7 6
23 23 26 2 2 5 14 14 7 25 30 39 31 23 15 25 26 26 24 28 24 24 20 17 17 16 14 12 11 11 8 7 7 6 7 8 8 8 10 11 10 10 9 7 6 4 5 7 7
21 10 15 13 2 3 6 21 14 16 34 28 30 34 22 23 32 28 29 32 29 25 23 21 18 16 16 16 14 13 12 11 9 8 8 7 8 8 11 10 10 10 11 10 9 9 10 8 8
19 15 15 15 5 2 3 18 23 16 24 15 15 22 23 32 33 31 29 30 26 27 25 23 21 20 18 17 16 14 13 12 11 12 11 9 10 7 10 10 11 11 12 9 8 9 11 8 8
22 19 22 22 19 16 11 1 1 9 14 13 13 14 20 33 37 36 30 33 24 24 27 26 22 22 18 19 18 16 15 15 13 12 12 12 10 10 10 11 12 12 13 12 11 11 11 10 10
21 22 18 17 13 18 17 20 14 2 8 0 16 10 24 38 38 33 32 30 28 24 26 22 22 23 23 19 18 15 14 15 14 14 15 14 14 14 12 13 15 13 13 12 12 12 13 12 12
19 21 18 17 12 16 16 16 6 2 3 9 11 16 18 32 34 35 32 28 27 35 32 27 25 20 18 18 16 16 13 15 13 16 16 16 16 15 16 15 16 14 14 14 13 12 14 13 13

GFSSGP_500_spd_111.txt.gz
Wind_Speed
10 12 12 9 5 5 7 9 13 14 16 11 12 14 15 16 16 18 18 14 13 12 13 14 14 16 13 16 17 11 11 18 16 17 17 15 13 14 14 14 16 16 17 17 17 19 20 18 17
11 12 13 7 3 3 5 9 12 13 10 10 13 12 15 17 17 19 17 14 12 13 12 13 14 13 11 13 13 12 12 13 12 14 15 13 12 13 12 14 15 15 17 17 17 17 19 17 17
10 12 14 6 1 4 8 10 11 8 8 11 13 15 14 15 16 18 15 14 13 13 13 12 12 12 11 10 10 9 9 8 9 9 10 10 12 13 14 13 14 14 16 18 18 19 19 18 19
8 12 14 4 4 4 6 12 10 7 9 13 15 13 12 11 13 16 14 13 13 16 15 14 13 12 11 10 8 8 7 7 7 8 9 10 10 11 11 11 13 15 15 18 20 21 19 18 18
8 10 10 1 4 3 6 11 10 6 7 11 12 9 11 9 12 13 13 13 13 18 17 15 15 15 14 12 10 7 6 6 5 5 7 7 8 10 12 13 14 15 14 18 20 20 18 17 17
6 7 6 4 2 3 5 8 9 5 6 8 7 7 10 7 6 13 12 13 16 18 17 17 17 16 15 13 12 12 11 10 9 9 11 10 9 10 11 13 15 16 17 19 20 20 19 16 16
4 7 5 4 3 4 6 8 7 5 7 4 5 6 8 5 8 11 10 16 16 16 16 17 18 17 17 15 14 14 14 14 13 13 14 13 12 14 15 17 18 17 17 19 21 21 19 18 17
5 4 3 7 6 8 7 8 6 5 7 6 5 4 8 8 9 14 12 15 15 16 16 17 18 17 16 15 15 15 14 13 13 14 14 13 15 18 17 18 19 17 17 18 20 21 18 17 18
5 4 4 10 9 12 9 9 6 3 6 7 6 5 7 10 7 13 12 15 16 17 17 17 17 16 13 13 12 14 14 13 12 12 12 13 14 18 18 18 19 19 18 19 20 21 19 17 16
8 10 12 10 16 11 11 15 11 8 9 7 6 6 7 8 10 12 12 15 14 18 18 17 17 16 14 14 17 17 17 15 11 10 12 13 13 15 16 16 18 20 20 22 22 21 19 17 16
10 10 17 23 17 16 13 15 12 10 10 7 7 6 8 7 8 8 12 12 13 17 18 18 18 18 17 19 19 19 18 15 11 9 10 14 14 15 15 16 18 21 22 23 22 22 19 18 17
14 11 13 14 15 14 15 15 11 11 10 8 6 8 9 5 7 6 10 11 12 16 16 19 18 19 18 16 17 18 17 17 15 12 11 14 14 15 14 16 19 20 22 23 22 21 20 18 17
17 13 10 10 12 12 14 13 15 18 12 10 8 9 7 7 6 6 5 11 12 13 15 15 18 20 20 19 22 19 18 20 17 19 15 14 14 14 15 17 18 20 21 23 20 22 21 18 18
15 17 12 13 7 16 15 16 15 14 11 10 8 9 6 7 7 6 5 10 13 12 13 14 16 19 19 19 18 18 21 17 19 19 21 21 10 15 18 17 19 20 21 19 19 18 18 16 17
16 17 17 11 15 23 23 18 20 17 18 13 10 12 8 9 6 9 7 9 13 11 11 11 15 15 18 19 20 21 20 20 18 20 20 19 20 19 17 17 18 20 21 17 15 15 16 15 15
19 19 18 14 17 14 26 21 17 15 16 13 13 15 14 11 8 9 10 10 11 11 10 10 12 16 14 17 19 20 17 14 15 20 19 19 19 20 15 15 18 18 16 17 14 12 12 14 13
22 23 21 21 20 15 32 24 16 17 16 20 17 16 15 10 9 8 11 12 12 12 12 10 11 14 14 15 16 18 16 14 16 17 18 20 21 18 14 18 11 18 18 16 15 13 10 12 10
27 26 24 12 16 19 29 30 23 22 18 19 17 15 19 15 12 9 10 12 13 12 11 11 10 11 12 14 14 14 16 16 17 16 16 18 19 19 16 16 17 15 16 15 13 12 12 10 8
33 31 27 18 26 16 33 33 23 22 23 24 12 12 14 16 12 11 11 11 12 12 10 10 10 12 12 15 15 14 14 15 15 14 13 15 17 17 16 13 14 15 15 15 12 12 11 10 6
34 28 28 26 26 19 24 28 37 26 21 23 15 14 13 18 14 13 13 11 13 12 12 9 9 12 12 13 15 14 13 13 11 11 12 14 14 13 14 13 13 13 14 15 15 13 11 8 8
32 32 29 31 32 21 29 22 46 24 24 22 16 15 14 14 17 15 15 14 12 12 13 10 9 10 11 12 11 13 13 12 12 9 9 10 10 12 9 10 11 11 9 9 11 12 10 9 7
31 32 30 21 28 25 31 26 39 44 26 28 19 22 16 12 23 19 16 16 13 12 13 12 10 10 11 10 11 11 11 11 10 11 11 9 7 7 8 8 8 8 9 7 7 8 8 9 8
32 30 25 28 18 21 24 25 33 46 29 29 24 16 18 15 22 21 19 17 15 14 14 14 12 10 11 10 11 11 10 11 11 9 11 10 8 6 7 7 9 7 6 6 6 7 8 8 9
31 29 25 25 11 15 17 20 25 28 30 40 32 30 20 23 22 26 23 20 18 17 16 14 13 12 10 11 12 11 10 8 9 10 10 9 9 8 8 7 7 7 7 7 6 5 7 8 9
29 25 20 18 16 9 10 17 16 21 35 39 37 25 27 23 24 25 24 23 20 18 18 17 16 14 12 12 11 11 11 10 9 9 9 9 8 9 9 9 7 7 7 8 8 8 8 9 8
23 27 27 24 13 3 4 11 14 9 27 37 40 30 32 19 30 26 27 29 27 22 20 18 18 15 14 13 11 11 11 11 9 9 7 9 8 8 8 8 9 10 10 11 10 9 11 11 9
16 19 23 24 25 13 7 6 17 10 8 27 41 40 32 30 24 30 30 31 29 24 23 22 21 20 19 17 16 15 13 13 11 10 8 10 9 9 12 12 11 11 11 11 10 12 12 10 11
20 14 18 17 16 16 10 10 4 7 10 29 37 34 30 35 33 36 32 28 27 26 27 25 24 22 20 19 19 19 18 16 15 13 11 13 12 15 11 15 14 12 12 10 11 13 13 12 12
27 28 25 20 16 24 16 9 18 12 6 3 16 31 29 28 34 34 33 25 25 29 30 28 27 26 26 24 24 22 22 19 17 16 15 14 13 14 14 14 15 13 15 14 14 15 14 15 14
19 22 23 22 17 17 18 10 14 4 4 9 11 16 23 29 33 35 30 34 30 30 28 29 29 29 28 28 25 24 22 20 20 20 18 17 16 16 16 16 15 13 14 15 14 14 15 16 15

GFSSGP_500_spd_114.txt.gz
Wind_Speed
13 13 17 10 9 8 8 12 13 13 14 12 11 13 13 14 15 16 15 13 11 11 15 17 12 18 18 18 16 13 19 25 23 20 18 16 16 15 16 17 17 18 18 18 18 18 17 17 16
12 13 15 8 6 6 8 8 12 12 12 11 10 12 10 13 15 16 15 14 12 11 14 14 11 13 15 18 18 20 19 20 22 19 16 18 18 17 16 15 16 18 18 17 17 17 16 16 17
11 13 15 3 5 6 8 7 8 9 13 10 9 13 11 13 14 14 15 12 11 11 11 13 13 14 14 14 15 17 17 16 15 15 13 14 18 17 15 15 16 17 18 17 18 15 14 17 17
11 13 12 6 7 7 7 4 7 10 12 9 11 11 13 14 13 13 14 11 9 10 11 10 11 13 12 12 12 12 13 12 11 11 12 12 16 18 17 15 16 16 16 17 18 16 15 16 17
10 11 9 8 8 10 6 4 5 8 9 11 12 12 13 12 12 12 11 10 9 8 12 12 11 12 13 12 11 10 10 10 10 10 12 13 14 14 16 19 16 17 17 18 18 16 15 15 15
7 7 7 7 8 8 5 4 5 7 10 12 12 11 11 10 11 11 10 11 10 10 14 13 14 14 13 13 12 11 10 10 9 10 11 12 13 15 13 16 18 17 20 20 20 18 16 15 14
5 7 2 8 6 6 5 4 5 7 9 11 12 11 8 10 6 10 10 11 11 13 15 15 17 17 16 16 15 15 14 14 14 13 12 13 15 17 17 17 17 18 20 20 21 18 16 16 15
6 2 4 3 4 2 3 3 6 9 9 10 9 8 7 11 8 11 12 12 13 15 15 15 16 16 17 17 16 15 15 15 15 14 13 13 16 18 19 20 19 17 18 19 20 17 15 16 16
7 4 1 2 8 2 4 5 7 9 5 4 6 7 7 8 8 12 13 13 15 15 15 15 16 16 14 17 18 16 14 13 12 13 14 14 16 17 20 21 20 18 20 20 21 18 15 16 16
6 6 7 6 11 15 9 9 7 8 6 1 5 6 7 8 9 10 13 13 15 15 16 16 18 19 18 21 18 14 13 12 11 13 15 15 16 16 17 19 19 17 19 20 19 18 16 16 16
5 8 10 15 15 7 9 11 10 11 7 4 3 4 6 7 7 8 14 14 15 15 18 18 19 20 18 18 16 14 14 10 9 11 14 13 16 16 17 18 18 18 20 20 19 18 16 15 15
12 9 6 18 15 20 16 13 9 11 9 7 3 3 5 7 7 7 12 15 14 14 17 19 19 18 18 18 18 17 19 15 14 13 16 15 16 16 14 15 16 18 20 21 19 18 16 15 15
13 13 11 14 10 15 12 12 10 9 11 8 7 3 5 6 8 8 8 13 15 14 15 19 21 22 20 20 20 18 17 18 16 16 15 14 16 16 15 17 18 19 20 19 18 18 17 14 14
13 15 15 9 12 11 12 12 8 11 8 9 8 5 4 5 7 7 8 11 13 14 16 17 19 23 20 19 19 19 21 19 21 20 14 16 17 16 17 19 19 19 20 14 15 15 15 14 13
13 17 14 14 8 6 13 9 11 16 15 12 9 8 6 6 5 6 9 8 12 13 14 16 17 19 22 20 19 21 21 22 22 21 24 19 19 19 15 19 19 19 16 17 16 15 13 13 11
18 21 20 16 12 12 17 12 14 18 17 14 11 10 9 5 5 5 7 11 11 13 13 14 16 17 19 18 18 20 19 20 22 22 19 21 20 19 17 18 19 19 18 16 14 13 10 11 10
22 23 23 22 22 16 17 21 22 19 19 14 16 12 10 7 5 4 7 11 12 12 12 13 14 16 18 17 16 20 19 19 21 22 22 18 17 16 19 21 16 16 18 17 15 12 9 10 7
26 28 26 24 13 19 18 24 27 25 22 20 18 17 15 12 9 9 8 10 13 12 12 13 11 15 17 16 15 17 19 18 19 21 20 18 20 18 19 13 17 17 16 15 13 12 12 8 5
29 31 29 28 26 11 23 33 35 28 28 24 20 21 20 17 14 13 12 12 13 12 11 12 12 12 15 16 16 15 17 18 18 18 18 17 18 19 18 17 17 17 18 16 14 13 12 8 5
27 34 31 30 28 24 22 27 37 28 28 26 25 22 25 21 16 16 15 14 14 14 13 12 13 11 12 12 14 14 14 14 17 15 16 17 15 16 16 15 15 13 11 12 14 14 9 5 4
26 32 31 30 31 28 22 23 35 32 33 31 25 23 26 25 21 19 18 17 17 15 14 13 11 10 11 10 10 11 13 12 12 13 14 14 13 14 14 13 12 12 11 11 10 11 10 9 6
24 27 31 30 29 31 29 27 21 35 39 28 26 23 24 27 25 22 20 17 18 17 15 14 11 10 11 12 11 8 8 9 11 12 13 14 13 14 11 11 12 10 10 9 10 9 8 8 8
22 28 27 27 27 27 24 28 26 31 39 34 31 24 24 24 24 22 21 20 17 18 16 14 14 11 10 11 11 11 9 10 10 11 13 12 13 12 12 12 11 12 11 9 7 7 7 8 9
23 24 27 22 25 26 23 22 23 32 42 44 28 28 25 26 22 28 25 23 19 17 16 14 13 15 12 8 10 11 12 10 10 10 10 10 11 10 11 11 10 7 8 10 9 8 8 8 7
23 24 27 23 22 22 21 20 21 22 31 33 33 19 23 22 23 27 24 23 22 19 17 15 14 13 14 14 10 12 12 10 10 10 10 10 11 11 10 11 10 10 10 9 9 10 9 8 7
22 24 23 21 19 20 14 15 13 14 17 29 23 21 33 28 26 24 26 26 25 23 20 17 17 15 15 15 15 14 13 12 12 11 11 10 9 10 11 12 12 13 13 13 11 10 9 7 7
24 21 22 22 21 21 12 10 8 20 13 23 30 32 34 31 30 25 30 26 28 24 23 21 19 18 18 15 14 15 16 14 12 11 12 11 11 9 9 10 11 10 11 12 11 11 12 12 11
25 21 23 19 18 21 23 13 8 15 13 16 27 26 34 36 31 27 33 29 28 27 27 24 22 21 20 18 18 16 16 15 14 14 14 13 13 12 10 8 11 12 11 10 11 11 11 10 9
29 28 23 20 18 15 22 20 15 5 2 5 15 30 33 35 35 26 30 33 30 29 32 28 26 24 23 22 21 21 20 19 18 18 17 16 15 13 11 11 10 12 12 11 14 13 12 11 11
27 29 28 24 18 16 21 14 8 11 7 6 2 12 33 33 34 33 39 29 35 33 36 31 29 29 27 25 23 24 22 22 22 21 22 18 17 16 15 15 13 13 14 15 14 12 13 12 12

GFSSGP_500_spd_117.txt.gz
Wind_Speed
13 14 11 12 10 8 7 10 14 15 15 13 12 12 12 12 13 13 14 13 11 11 13 12 15 14 16 17 18 25 25 25 24 22 20 19 17 17 16 17 19 19 19 19 20 18 17 15 15
12 11 7 10 8 5 5 9 14 14 14 13 11 10 11 11 13 13 13 14 13 11 11 11 15 18 19 23 23 23 27 24 22 20 19 19 18 18 17 18 19 19 19 19 18 17 17 15 15
10 12 8 8 8 3 4 8 11 12 13 12 10 11 11 10 13 13 12 13 14 13 11 11 14 16 18 19 22 22 20 21 19 19 20 20 19 17 16 17 17 17 18 18 17 16 18 14 15
9 10 12 6 8 4 4 8 9 11 13 12 10 9 10 12 14 13 13 14 11 14 12 12 13 15 16 18 18 18 18 17 16 14 16 19 18 16 16 16 17 17 17 16 14 16 18 16 14
6 10 13 9 6 5 4 6 7 11 11 13 11 10 8 15 14 13 11 11 12 11 13 13 13 13 14 15 16 16 16 15 14 13 16 17 18 17 17 15 17 18 17 17 16 15 15 15 13
5 9 9 12 5 4 4 6 7 10 9 13 15 11 10 10 12 11 12 10 11 11 12 14 14 13 13 14 14 13 13 14 15 15 16 17 16 16 19 17 15 17 18 17 16 15 14 12 11
3 6 13 10 6 3 4 5 7 9 10 11 14 12 10 12 11 10 12 11 11 12 12 14 14 15 15 15 16 15 14 14 13 13 15 16 15 15 21 18 16 15 17 18 15 13 14 12 14
2 4 5 10 7 4 4 3 6 6 10 10 13 12 11 11 11 9 12 13 11 12 13 14 13 15 17 16 17 17 16 14 14 12 13 15 15 16 18 20 17 16 17 17 14 13 14 15 15
1 1 4 8 8 2 4 2 4 1 11 10 11 13 10 10 11 9 11 13 12 13 13 13 12 13 16 16 17 16 15 14 14 14 14 14 16 17 17 18 16 17 18 18 14 14 16 15 15
1 5 3 8 7 7 9 6 5 2 10 11 10 9 9 9 10 9 11 12 13 14 15 14 15 16 16 15 15 14 14 13 12 13 16 16 16 18 19 17 17 18 19 17 15 16 16 15 15
5 8 6 5 14 14 9 11 9 5 8 11 8 7 8 9 10 9 9 12 13 15 17 17 18 18 15 16 15 13 13 14 14 15 16 17 17 17 18 19 16 19 20 19 16 17 17 15 15
4 7 7 8 20 8 12 11 12 6 5 7 8 6 7 8 10 9 8 11 12 14 16 18 18 18 16 17 19 17 15 16 17 18 19 18 17 18 21 22 17 20 21 18 17 18 16 15 14
8 8 7 6 11 5 13 12 12 8 6 5 5 5 7 7 8 10 8 10 12 14 16 17 18 19 19 18 16 18 17 17 19 19 19 19 19 19 20 19 19 20 19 18 16 18 16 14 13
12 9 9 10 5 2 11 11 9 7 9 6 5 4 5 6 5 10 10 9 11 14 16 19 21 21 18 19 21 18 19 19 19 21 20 19 19 20 21 19 19 20 20 17 15 15 14 12 12
13 10 11 11 10 8 12 15 10 10 10 9 7 6 4 6 7 7 10 11 11 12 15 17 17 21 22 19 20 19 20 21 18 18 21 20 18 20 20 21 21 21 18 17 14 13 12 10 12
15 14 12 13 13 7 5 13 17 15 15 11 11 10 7 8 7 7 8 12 12 12 14 15 18 18 19 18 19 20 19 19 20 20 20 19 18 20 20 21 21 19 20 18 16 13 10 9 11
19 20 19 17 19 14 13 12 17 18 20 16 15 13 11 10 11 9 7 10 13 13 13 14 15 16 18 19 18 20 20 19 18 19 20 20 18 21 22 22 20 21 20 18 16 13 9 9 9
21 23 23 20 21 18 16 11 21 19 19 19 21 18 15 12 11 11 11 9 13 15 14 15 14 15 16 18 18 20 21 21 19 19 20 19 21 24 22 20 20 21 20 18 15 13 9 8 6
21 24 25 25 24 23 16 16 23 24 24 25 22 19 17 16 14 11 13 11 11 16 17 15 15 15 15 19 18 19 21 20 19 20 20 19 22 22 15 17 18 18 17 16 15 14 10 7 5
21 24 26 25 27 24 32 22 17 28 32 31 28 25 23 18 16 14 12 14 11 14 18 17 16 13 14 15 17 18 18 18 17 18 19 18 21 19 18 19 18 16 16 15 15 15 10 6 5
21 22 25 25 26 28 30 28 23 17 38 35 29 31 29 22 21 18 16 16 16 14 17 18 16 14 13 14 14 15 15 16 16 17 15 16 17 19 18 17 16 15 13 12 14 13 11 9 6
22 21 25 25 27 28 27 26 23 24 27 33 32 30 27 24 23 24 21 19 19 17 16 18 18 15 13 14 14 14 14 13 14 14 15 14 14 14 16 17 15 13 13 12 11 11 9 7 6
21 20 24 25 25 27 26 27 23 26 27 34 34 32 27 29 26 24 24 22 20 19 17 16 16 18 15 13 14 13 13 12 13 13 12 12 11 12 12 11 12 13 13 12 11 10 8 7 7
22 19 21 22 24 22 22 26 25 17 21 32 36 34 30 28 30 29 30 27 23 20 19 18 17 16 16 13 12 12 12 13 12 12 12 12 12 10 9 10 10 9 9 9 10 10 10 9 8
19 18 21 23 23 19 16 18 21 21 20 22 36 29 29 32 32 30 27 26 26 24 21 19 18 17 16 15 13 12 12 11 12 13 13 12 13 12 14 13 12 11 11 11 10 9 8 9 9
18 19 20 22 21 19 17 14 14 18 19 24 32 43 38 37 32 27 27 28 28 26 23 23 21 19 18 17 16 15 14 13 11 11 12 12 14 14 14 13 12 11 11 12 12 10 9 9 9
19 19 18 20 20 19 16 13 6 11 18 21 29 32 34 35 28 25 30 30 29 28 27 25 24 21 19 17 16 17 16 15 12 10 11 13 12 12 12 12 13 13 13 13 13 13 13 12 12
21 20 22 22 23 20 17 13 8 8 15 19 19 30 29 30 33 28 29 26 27 28 30 28 25 24 22 19 18 19 18 16 14 14 13 13 13 13 13 13 13 12 12 13 14 15 14 14 12
24 23 22 23 25 21 17 11 13 7 4 11 18 24 28 36 37 32 29 22 28 29 31 31 29 26 24 22 21 20 20 19 17 17 16 16 16 15 15 15 16 16 15 13 14 14 14 14 13
29 26 26 28 23 20 18 11 13 10 9 7 9 18 28 33 41 38 35 28 29 29 32 33 31 29 27 25 23 22 20 20 20 20 20 19 17 16 16 16 16 15 16 16 15 16 15 14 14

GFSSGP_500_spd_120.txt.gz
Wind_Speed
12 10 8 8 10 10 10 9 10 12 12 13 13 12 13 12 11 9 11 12 12 12 9 10 15 14 7 20 24 27 29 26 24 24 23 23 20 18 18 17 16 16 16 16 16 14 14 14 14
10 8 5 4 10 7 6 8 10 13 12 13 13 14 12 11 11 10 10 11 12 12 16 16 18 17 16 16 22 25 26 26 24 22 22 21 19 19 18 18 18 17 17 15 14 14 15 15 16
10 8 3 6 9 6 5 7 9 12 12 12 12 13 12 10 10 10 9 10 10 8 11 13 12 14 17 17 21 24 24 23 22 20 20 21 19 18 18 18 18 17 17 16 16 16 15 15 16
9 7 8 8 7 6 6 8 8 10 12 11 10 11 11 9 10 11 11 10 10 11 13 13 14 17 19 19 19 22 22 22 21 22 21 20 19 19 19 18 18 17 15 14 17 15 15 16 15
7 5 7 8 6 6 8 9 7 9 12 11 12 10 10 10 11 11 12 11 10 9 11 12 12 14 15 17 18 19 19 19 18 17 23 18 19 19 18 18 18 17 16 17 18 17 17 15 14
6 5 4 4 5 7 8 8 8 8 8 10 12 13 11 10 11 10 10 12 12 11 10 11 12 13 14 15 16 16 16 17 17 18 19 17 17 17 18 18 18 18 17 16 16 15 15 15 15
5 9 8 3 4 6 8 7 7 7 7 10 13 14 11 12 11 11 11 12 13 13 12 11 12 14 14 14 14 15 14 14 14 16 17 17 13 15 16 18 19 19 17 15 15 15 15 17 16
6 9 5 7 6 7 9 7 6 7 9 10 13 12 10 12 13 10 11 12 12 14 13 11 11 12 13 14 15 14 14 13 13 13 14 14 12 18 17 18 19 20 18 15 16 16 17 17 16
6 4 4 6 6 2 8 8 7 6 9 11 11 11 10 11 13 11 10 12 12 13 12 11 11 12 13 14 15 15 15 14 14 15 15 15 16 18 16 17 19 19 18 16 17 16 17 16 16
8 5 3 9 11 13 3 8 6 6 9 11 8 11 9 10 12 12 10 10 11 13 12 10 14 11 12 12 13 14 15 15 14 16 17 16 17 18 18 17 18 20 18 16 17 16 17 17 15
3 1 4 10 8 15 14 10 9 7 7 9 11 10 8 9 11 12 10 11 10 13 13 16 15 13 11 11 12 13 14 16 16 18 18 19 19 19 19 19 20 21 18 17 18 18 16 16 16
2 4 6 7 10 17 11 12 10 9 7 7 10 8 7 7 10 11 9 10 11 13 14 16 16 14 13 12 13 15 15 18 18 19 18 18 20 19 20 19 20 20 18 17 18 18 17 16 16
6 7 7 1 9 7 7 12 11 8 7 6 8 8 5 6 8 11 9 9 10 11 13 16 17 15 16 17 14 15 18 20 19 19 19 19 20 20 22 19 21 21 19 17 18 18 16 15 14
7 7 9 5 4 5 4 8 8 9 9 7 6 8 6 6 6 10 10 8 11 11 15 15 17 17 18 17 16 16 19 22 21 20 19 20 21 21 20 21 23 22 19 16 17 17 15 13 14
9 8 9 10 7 9 10 11 13 9 12 10 7 7 7 6 8 8 10 8 10 13 15 15 17 17 19 18 17 18 19 21 21 20 19 19 21 22 22 22 23 22 19 15 15 16 14 12 14
13 11 9 12 10 6 11 13 14 12 13 11 10 9 8 6 9 7 9 9 10 11 13 16 16 18 18 18 17 17 18 19 19 19 19 18 21 22 22 23 23 21 18 16 14 16 13 11 12
15 16 15 15 15 13 11 9 15 17 15 14 13 11 11 10 10 10 9 10 10 12 14 15 14 15 17 17 17 17 19 22 20 20 19 18 21 22 22 23 19 20 17 16 15 17 12 10 10
19 19 18 17 18 17 13 16 10 19 19 19 16 14 14 13 11 12 10 11 11 12 13 13 13 15 18 18 18 18 19 22 23 21 20 20 21 23 22 22 21 21 18 17 15 16 13 10 10
17 20 21 19 22 21 18 13 13 16 21 23 20 16 16 16 15 13 12 11 12 13 14 13 14 14 16 19 18 18 20 20 21 20 19 22 24 23 20 19 19 19 18 16 14 15 13 10 8
17 18 22 22 22 23 22 22 17 13 21 23 21 20 18 17 16 16 14 13 13 14 15 15 14 15 14 18 18 19 21 21 20 21 20 21 22 17 19 19 18 17 15 15 15 15 13 10 8
17 16 21 19 21 22 24 24 24 24 17 20 26 24 22 21 19 18 17 15 14 15 16 16 14 15 15 16 17 17 19 22 21 21 20 21 19 19 18 18 18 17 15 13 13 13 12 8 7
17 19 19 18 19 21 24 25 23 24 25 19 26 28 30 26 21 21 19 17 16 16 18 18 17 14 14 15 16 17 18 20 21 19 19 18 18 17 18 18 16 14 14 13 12 10 8 7 5
20 18 17 17 20 22 21 26 22 20 21 19 21 35 36 28 25 23 20 20 18 17 18 19 18 17 15 14 13 14 15 15 17 18 19 18 17 16 14 14 14 14 13 13 13 11 10 8 5
19 20 19 19 22 21 19 21 16 19 21 19 21 25 36 33 29 26 24 23 20 18 18 19 20 18 18 17 15 14 14 14 14 14 15 16 16 15 14 14 13 13 13 12 12 12 10 8 6
17 16 15 18 21 16 16 12 9 13 17 23 20 26 36 34 30 28 27 23 23 21 20 20 20 21 21 19 17 15 15 15 14 13 12 13 13 13 14 13 13 13 12 12 11 10 9 9 9
17 17 14 13 12 16 18 10 10 13 16 18 18 30 39 39 32 29 27 28 29 26 24 23 22 21 20 18 18 16 16 16 15 15 13 13 13 12 13 13 12 12 12 12 12 12 11 10 10
15 18 17 19 19 21 13 12 12 13 11 19 21 23 29 37 35 30 31 31 32 29 27 26 24 22 21 20 19 17 16 16 14 14 14 13 13 14 15 15 14 14 14 14 14 14 13 13 14
18 19 16 19 17 16 13 15 19 9 12 15 21 22 29 40 38 31 32 32 34 34 32 29 26 24 22 20 19 18 18 16 14 14 13 14 15 14 15 15 16 17 17 18 18 18 17 16 16
20 20 18 19 17 18 12 16 21 15 14 6 18 21 33 33 46 38 35 33 38 38 35 32 29 26 24 23 22 21 21 19 17 16 15 15 15 14 14 15 15 16 18 17 16 15 15 15 15
26 20 20 21 18 19 24 20 27 22 12 9 9 25 29 33 47 40 36 35 38 38 36 34 33 30 28 27 25 24 22 21 20 20 19 18 17 18 19 20 19 19 20 19 20 18 16 16 16

GFSSGP_500_spd_126.txt.gz
Wind_Speed
10 4 2 7 10 14 12 11 9 5 7 7 10 8 8 6 4 6 5 2 2 4 1 2 6 5 8 14 11 11 17 19 23 25 24 22 20 16 15 16 16 15 15 15 15 14 14 14 14
9 4 5 5 15 10 9 10 10 7 1 4 9 8 7 6 6 7 5 6 3 4 2 2 5 5 5 11 11 14 24 28 22 21 22 22 20 19 18 18 16 17 16 14 16 15 14 15 15
7 6 10 7 17 7 6 5 7 6 7 8 9 9 6 7 7 8 5 7 6 8 7 7 5 6 3 13 17 16 21 24 24 22 22 20 20 20 18 20 18 17 16 16 16 15 15 14 14
3 8 7 5 14 2 3 4 7 9 7 8 7 8 7 8 8 8 6 5 3 12 15 8 6 5 8 20 22 22 22 23 23 21 21 22 21 21 18 19 17 16 17 17 16 15 14 13 16
4 15 9 4 7 2 4 5 8 10 5 6 7 7 8 7 8 8 7 4 6 16 10 14 9 10 12 12 13 19 19 20 21 19 20 20 20 20 19 18 15 16 16 17 17 15 16 17 17
4 10 12 6 3 0 3 5 8 7 6 6 8 7 10 8 9 9 9 6 9 0 6 10 8 9 13 15 15 16 17 18 18 17 18 18 18 18 19 19 15 19 18 17 16 16 19 19 17
5 10 4 7 17 2 4 6 7 6 5 6 8 7 10 8 10 9 9 8 5 5 7 4 5 7 10 11 11 12 15 17 16 16 16 16 18 18 19 20 21 20 17 16 17 18 19 18 17
4 9 5 5 8 3 2 2 3 3 4 4 4 7 9 7 9 9 9 8 6 11 11 6 5 5 7 8 9 10 12 15 19 17 15 16 16 18 19 18 19 18 16 16 19 20 19 18 17
3 4 6 6 8 7 8 6 3 2 1 4 3 4 8 6 8 8 8 7 2 3 10 9 8 11 7 7 9 11 12 14 15 18 16 14 15 18 20 19 18 17 17 20 21 20 18 18 17
7 6 7 2 10 18 8 9 6 3 1 4 5 6 7 7 9 9 8 6 4 1 4 10 4 10 9 8 10 15 16 17 16 16 16 17 18 18 20 21 18 17 18 19 19 19 18 17 17
6 8 9 6 9 13 8 10 7 5 5 3 3 5 6 7 7 10 9 8 4 7 8 8 10 8 16 13 10 9 18 16 16 16 15 13 23 17 20 20 18 18 18 19 17 19 19 18 15
5 5 7 6 10 15 6 9 7 2 9 0 2 3 7 5 5 8 10 9 9 6 8 3 8 11 12 15 17 9 12 14 15 16 16 21 20 20 21 21 19 19 17 19 17 16 18 17 15
6 8 7 5 8 9 5 11 13 7 7 2 2 3 7 4 5 8 8 8 8 6 6 3 3 6 7 7 5 11 11 14 15 17 19 19 21 20 22 22 20 19 18 18 17 17 16 17 16
3 7 7 7 6 4 1 10 10 12 7 3 2 3 4 6 6 5 8 8 7 7 6 5 2 5 7 8 13 16 17 15 15 16 19 21 21 20 21 21 19 19 17 17 16 16 14 16 15
6 8 7 9 8 7 4 9 9 9 10 7 5 3 3 6 5 4 7 8 7 7 6 5 5 4 6 9 13 15 16 18 17 18 21 22 20 19 21 21 19 19 18 16 15 15 15 12 14
6 3 4 15 11 8 9 10 23 16 11 11 8 4 4 4 6 6 6 7 6 8 7 4 4 5 6 9 14 14 12 17 17 19 21 23 23 19 23 23 20 19 19 15 13 13 12 11 12
3 6 5 11 15 13 9 9 9 9 8 8 10 6 5 3 4 6 7 8 7 9 8 6 4 4 6 6 11 13 14 18 19 19 20 23 25 22 23 23 21 20 21 18 14 9 8 8 7
11 12 14 18 13 14 11 8 8 9 11 23 18 8 6 2 3 4 6 8 10 9 8 5 2 3 5 5 10 14 14 12 17 19 20 22 26 24 23 25 25 23 25 26 22 14 9 8 6
15 15 9 21 14 15 15 12 10 11 11 17 18 6 8 7 5 6 6 7 9 10 8 7 4 2 4 6 6 14 11 12 15 14 19 22 23 24 24 24 23 22 18 22 20 21 16 14 11
17 24 20 25 16 15 15 14 13 13 17 9 15 19 14 9 8 5 8 7 9 10 10 8 8 4 4 6 7 10 11 13 14 16 20 21 23 25 24 24 21 16 11 9 9 10 8 5 4
15 13 7 20 16 11 16 11 14 14 17 16 6 16 9 11 7 9 7 9 10 10 12 11 9 7 5 6 7 8 10 14 17 18 20 21 22 22 21 21 19 16 12 15 9 11 5 7 10
12 11 17 26 21 16 16 10 16 10 12 18 17 10 9 14 12 11 10 10 10 11 11 13 12 9 7 7 7 7 10 11 15 19 20 19 18 18 19 18 15 15 17 5 13 8 6 11 15
14 19 20 17 20 19 19 17 9 17 11 14 19 19 19 22 16 18 15 10 11 11 13 13 14 14 12 11 10 8 8 11 14 18 19 17 17 17 15 15 15 13 10 6 9 8 12 10 7
18 23 15 15 16 15 10 12 9 17 22 15 26 20 21 22 29 20 19 14 13 14 12 14 15 16 16 14 13 11 11 11 11 13 14 16 15 15 16 16 15 13 12 10 10 8 5 6 8
15 16 12 5 9 6 7 12 16 20 21 19 23 17 24 22 24 27 24 25 17 15 15 17 17 17 17 17 15 15 14 12 12 11 13 13 14 13 14 14 14 13 12 11 10 10 9 8 9
14 16 11 8 8 12 10 17 17 23 26 25 31 11 22 26 26 23 27 23 27 19 18 19 19 18 19 18 18 18 17 16 15 14 13 13 14 14 14 14 14 13 12 11 12 11 10 9 10
11 12 14 21 19 15 14 21 28 31 35 28 15 20 21 28 30 25 31 32 26 27 22 21 21 19 19 19 19 20 20 18 17 16 17 15 14 14 14 14 14 13 13 13 13 13 12 12 12
20 23 19 18 13 17 13 26 33 24 29 25 28 17 16 26 25 27 33 34 30 30 26 26 23 21 20 19 19 19 19 20 20 20 19 18 18 17 16 15 15 14 14 15 15 15 16 15 15
13 18 19 22 23 24 19 28 28 30 33 17 27 19 18 24 25 30 44 35 34 32 30 28 25 24 23 21 19 19 20 20 20 21 21 21 20 19 19 19 18 18 19 20 19 19 19 20 18
13 17 16 17 14 19 23 29 35 22 31 35 34 31 32 27 27 32 37 42 43 30 33 29 30 28 28 25 24 23 22 21 21 22 21 20 19 18 18 19 20 20 20 21 19 18 17 18 19